<?xml version="1.0" encoding="UTF-8" standalone="no" ?>
<gpx xmlns="http://www.topografix.com/GPX/1/1" xmlns:xsi="http://www.w3.org/2001/XMLSchema-instance" xsi:schemaLocation="http://www.topografix.com/GPX/1/1 http://www.topografix.com/GPX/1/1/gpx.xsd" version="1.1" creator="VisuGPX - https://www.visugpx.com">
  <metadata>
    <name>Alpe d'Huez - BKool</name>
    <desc><![CDATA[Au seuil, objectif passer sous l'heure !]]></desc>
  </metadata>
  <trk>
    <name><![CDATA[20181208190553-2Z1nB]]></name>
    <trkseg>
      <trkpt lat="45.05498" lon="6.0303">
        <ele>731.9</ele>
        <time>2018-12-08T16:55:51Z</time>
      </trkpt>
      <trkpt lat="45.05498" lon="6.0303">
        <ele>731.9</ele>
        <time>2018-12-08T16:55:54Z</time>
      </trkpt>
      <trkpt lat="45.05498" lon="6.0303">
        <ele>731.9</ele>
        <time>2018-12-08T16:55:55Z</time>
      </trkpt>
      <trkpt lat="45.05498" lon="6.0303">
        <ele>731.9</ele>
        <time>2018-12-08T16:55:57Z</time>
      </trkpt>
      <trkpt lat="45.05498" lon="6.0303">
        <ele>731.9</ele>
        <time>2018-12-08T16:55:59Z</time>
      </trkpt>
      <trkpt lat="45.05498" lon="6.0303">
        <ele>731.9</ele>
        <time>2018-12-08T16:56:01Z</time>
      </trkpt>
      <trkpt lat="45.05498" lon="6.0303">
        <ele>731.9</ele>
        <time>2018-12-08T16:56:03Z</time>
      </trkpt>
      <trkpt lat="45.05498" lon="6.0303">
        <ele>731.9</ele>
        <time>2018-12-08T16:56:05Z</time>
      </trkpt>
      <trkpt lat="45.05498" lon="6.0303">
        <ele>731.9</ele>
        <time>2018-12-08T16:56:07Z</time>
      </trkpt>
      <trkpt lat="45.05498" lon="6.0303">
        <ele>731.9</ele>
        <time>2018-12-08T16:56:09Z</time>
      </trkpt>
      <trkpt lat="45.05498" lon="6.0303">
        <ele>731.9</ele>
        <time>2018-12-08T16:56:11Z</time>
      </trkpt>
      <trkpt lat="45.05498" lon="6.0303">
        <ele>731.9</ele>
        <time>2018-12-08T16:56:13Z</time>
      </trkpt>
      <trkpt lat="45.05498" lon="6.0303">
        <ele>731.9</ele>
        <time>2018-12-08T16:56:13Z</time>
      </trkpt>
      <trkpt lat="45.05498" lon="6.0303">
        <ele>731.9</ele>
        <time>2018-12-08T16:56:15Z</time>
      </trkpt>
      <trkpt lat="45.05498" lon="6.0303">
        <ele>731.9</ele>
        <time>2018-12-08T16:56:17Z</time>
      </trkpt>
      <trkpt lat="45.05498" lon="6.0303">
        <ele>731.9</ele>
        <time>2018-12-08T16:56:19Z</time>
      </trkpt>
      <trkpt lat="45.05497" lon="6.03034">
        <ele>731.9</ele>
        <time>2018-12-08T16:56:21Z</time>
      </trkpt>
      <trkpt lat="45.05496" lon="6.03045">
        <ele>731.8</ele>
        <time>2018-12-08T16:56:23Z</time>
      </trkpt>
      <trkpt lat="45.05494" lon="6.03058">
        <ele>731.8</ele>
        <time>2018-12-08T16:56:25Z</time>
      </trkpt>
      <trkpt lat="45.05492" lon="6.03073">
        <ele>731.7</ele>
        <time>2018-12-08T16:56:27Z</time>
      </trkpt>
      <trkpt lat="45.05488" lon="6.03109">
        <ele>731.5</ele>
        <time>2018-12-08T16:56:29Z</time>
      </trkpt>
      <trkpt lat="45.05486" lon="6.03125">
        <ele>731.4</ele>
        <time>2018-12-08T16:56:31Z</time>
      </trkpt>
      <trkpt lat="45.05481" lon="6.03153">
        <ele>731.3</ele>
        <time>2018-12-08T16:56:33Z</time>
      </trkpt>
      <trkpt lat="45.05476" lon="6.03181">
        <ele>731.1</ele>
        <time>2018-12-08T16:56:35Z</time>
      </trkpt>
      <trkpt lat="45.05476" lon="6.03201">
        <ele>730.4</ele>
        <time>2018-12-08T16:56:37Z</time>
      </trkpt>
      <trkpt lat="45.05481" lon="6.03224">
        <ele>729.6</ele>
        <time>2018-12-08T16:56:39Z</time>
      </trkpt>
      <trkpt lat="45.05489" lon="6.03239">
        <ele>728.9</ele>
        <time>2018-12-08T16:56:41Z</time>
      </trkpt>
      <trkpt lat="45.05505" lon="6.03269">
        <ele>727.7</ele>
        <time>2018-12-08T16:56:43Z</time>
      </trkpt>
      <trkpt lat="45.05516" lon="6.03282">
        <ele>727</ele>
        <time>2018-12-08T16:56:45Z</time>
      </trkpt>
      <trkpt lat="45.05527" lon="6.03296">
        <ele>726.3</ele>
        <time>2018-12-08T16:56:47Z</time>
      </trkpt>
      <trkpt lat="45.05539" lon="6.0331">
        <ele>725.6</ele>
        <time>2018-12-08T16:56:49Z</time>
      </trkpt>
      <trkpt lat="45.05551" lon="6.03324">
        <ele>724.9</ele>
        <time>2018-12-08T16:56:51Z</time>
      </trkpt>
      <trkpt lat="45.05588" lon="6.03369">
        <ele>722.6</ele>
        <time>2018-12-08T16:56:53Z</time>
      </trkpt>
      <trkpt lat="45.05606" lon="6.03387">
        <ele>722.5</ele>
        <time>2018-12-08T16:56:55Z</time>
      </trkpt>
      <trkpt lat="45.05618" lon="6.03401">
        <ele>722.4</ele>
        <time>2018-12-08T16:56:57Z</time>
      </trkpt>
      <trkpt lat="45.05637" lon="6.03422">
        <ele>722.3</ele>
        <time>2018-12-08T16:56:59Z</time>
      </trkpt>
      <trkpt lat="45.05652" lon="6.03438">
        <ele>722.2</ele>
        <time>2018-12-08T16:57:01Z</time>
      </trkpt>
      <trkpt lat="45.05662" lon="6.03449">
        <ele>722.1</ele>
        <time>2018-12-08T16:57:03Z</time>
      </trkpt>
      <trkpt lat="45.05672" lon="6.0346">
        <ele>722.1</ele>
        <time>2018-12-08T16:57:05Z</time>
      </trkpt>
      <trkpt lat="45.05695" lon="6.03484">
        <ele>722.3</ele>
        <time>2018-12-08T16:57:07Z</time>
      </trkpt>
      <trkpt lat="45.05712" lon="6.03502">
        <ele>723</ele>
        <time>2018-12-08T16:57:09Z</time>
      </trkpt>
      <trkpt lat="45.05723" lon="6.03517">
        <ele>723.6</ele>
        <time>2018-12-08T16:57:11Z</time>
      </trkpt>
      <trkpt lat="45.05732" lon="6.03528">
        <ele>724</ele>
        <time>2018-12-08T16:57:13Z</time>
      </trkpt>
      <trkpt lat="45.05741" lon="6.03538">
        <ele>724.4</ele>
        <time>2018-12-08T16:57:15Z</time>
      </trkpt>
      <trkpt lat="45.05748" lon="6.03547">
        <ele>724.7</ele>
        <time>2018-12-08T16:57:17Z</time>
      </trkpt>
      <trkpt lat="45.05755" lon="6.03555">
        <ele>725</ele>
        <time>2018-12-08T16:57:19Z</time>
      </trkpt>
      <trkpt lat="45.05761" lon="6.03563">
        <ele>725.3</ele>
        <time>2018-12-08T16:57:21Z</time>
      </trkpt>
      <trkpt lat="45.05786" lon="6.03593">
        <ele>726.3</ele>
        <time>2018-12-08T16:57:23Z</time>
      </trkpt>
      <trkpt lat="45.05793" lon="6.03601">
        <ele>726.2</ele>
        <time>2018-12-08T16:57:25Z</time>
      </trkpt>
      <trkpt lat="45.05799" lon="6.03609">
        <ele>726</ele>
        <time>2018-12-08T16:57:27Z</time>
      </trkpt>
      <trkpt lat="45.05807" lon="6.03618">
        <ele>725.8</ele>
        <time>2018-12-08T16:57:29Z</time>
      </trkpt>
      <trkpt lat="45.05828" lon="6.03644">
        <ele>725.3</ele>
        <time>2018-12-08T16:57:31Z</time>
      </trkpt>
      <trkpt lat="45.05838" lon="6.03662">
        <ele>725</ele>
        <time>2018-12-08T16:57:33Z</time>
      </trkpt>
      <trkpt lat="45.05849" lon="6.03678">
        <ele>724.7</ele>
        <time>2018-12-08T16:57:35Z</time>
      </trkpt>
      <trkpt lat="45.05857" lon="6.0369">
        <ele>724.5</ele>
        <time>2018-12-08T16:57:37Z</time>
      </trkpt>
      <trkpt lat="45.05872" lon="6.03712">
        <ele>724.1</ele>
        <time>2018-12-08T16:57:39Z</time>
      </trkpt>
      <trkpt lat="45.0588" lon="6.03725">
        <ele>723.8</ele>
        <time>2018-12-08T16:57:41Z</time>
      </trkpt>
      <trkpt lat="45.05897" lon="6.03752">
        <ele>723.2</ele>
        <time>2018-12-08T16:57:43Z</time>
      </trkpt>
      <trkpt lat="45.05905" lon="6.0377">
        <ele>722.8</ele>
        <time>2018-12-08T16:57:45Z</time>
      </trkpt>
      <trkpt lat="45.05907" lon="6.03793">
        <ele>722.5</ele>
        <time>2018-12-08T16:57:47Z</time>
      </trkpt>
      <trkpt lat="45.05921" lon="6.03807">
        <ele>722</ele>
        <time>2018-12-08T16:57:49Z</time>
      </trkpt>
      <trkpt lat="45.05935" lon="6.03805">
        <ele>721.6</ele>
        <time>2018-12-08T16:57:51Z</time>
      </trkpt>
      <trkpt lat="45.05945" lon="6.0378">
        <ele>721.1</ele>
        <time>2018-12-08T16:57:53Z</time>
      </trkpt>
      <trkpt lat="45.05958" lon="6.03779">
        <ele>720.8</ele>
        <time>2018-12-08T16:57:55Z</time>
      </trkpt>
      <trkpt lat="45.05971" lon="6.03777">
        <ele>720.4</ele>
        <time>2018-12-08T16:57:57Z</time>
      </trkpt>
      <trkpt lat="45.05984" lon="6.03776">
        <ele>720.1</ele>
        <time>2018-12-08T16:57:59Z</time>
      </trkpt>
      <trkpt lat="45.05998" lon="6.03775">
        <ele>719.8</ele>
        <time>2018-12-08T16:58:01Z</time>
      </trkpt>
      <trkpt lat="45.06035" lon="6.03769">
        <ele>719.3</ele>
        <time>2018-12-08T16:58:03Z</time>
      </trkpt>
      <trkpt lat="45.06048" lon="6.03766">
        <ele>719.5</ele>
        <time>2018-12-08T16:58:05Z</time>
      </trkpt>
      <trkpt lat="45.06061" lon="6.03763">
        <ele>719.7</ele>
        <time>2018-12-08T16:58:07Z</time>
      </trkpt>
      <trkpt lat="45.06074" lon="6.0376">
        <ele>720</ele>
        <time>2018-12-08T16:58:09Z</time>
      </trkpt>
      <trkpt lat="45.06086" lon="6.03757">
        <ele>720.2</ele>
        <time>2018-12-08T16:58:11Z</time>
      </trkpt>
      <trkpt lat="45.06097" lon="6.03754">
        <ele>720.4</ele>
        <time>2018-12-08T16:58:13Z</time>
      </trkpt>
      <trkpt lat="45.06108" lon="6.03751">
        <ele>720.6</ele>
        <time>2018-12-08T16:58:15Z</time>
      </trkpt>
      <trkpt lat="45.06154" lon="6.03737">
        <ele>721.5</ele>
        <time>2018-12-08T16:58:17Z</time>
      </trkpt>
      <trkpt lat="45.06164" lon="6.03733">
        <ele>721.7</ele>
        <time>2018-12-08T16:58:19Z</time>
      </trkpt>
      <trkpt lat="45.06173" lon="6.03728">
        <ele>721.9</ele>
        <time>2018-12-08T16:58:21Z</time>
      </trkpt>
      <trkpt lat="45.06183" lon="6.03723">
        <ele>722</ele>
        <time>2018-12-08T16:58:23Z</time>
      </trkpt>
      <trkpt lat="45.06192" lon="6.03718">
        <ele>722.2</ele>
        <time>2018-12-08T16:58:25Z</time>
      </trkpt>
      <trkpt lat="45.06222" lon="6.03705">
        <ele>723.1</ele>
        <time>2018-12-08T16:58:27Z</time>
      </trkpt>
      <trkpt lat="45.06232" lon="6.03703">
        <ele>723.6</ele>
        <time>2018-12-08T16:58:29Z</time>
      </trkpt>
      <trkpt lat="45.06251" lon="6.03699">
        <ele>724.7</ele>
        <time>2018-12-08T16:58:31Z</time>
      </trkpt>
      <trkpt lat="45.0626" lon="6.037">
        <ele>725.2</ele>
        <time>2018-12-08T16:58:33Z</time>
      </trkpt>
      <trkpt lat="45.06269" lon="6.03702">
        <ele>725.7</ele>
        <time>2018-12-08T16:58:35Z</time>
      </trkpt>
      <trkpt lat="45.06286" lon="6.03709">
        <ele>726.6</ele>
        <time>2018-12-08T16:58:37Z</time>
      </trkpt>
      <trkpt lat="45.06293" lon="6.03715">
        <ele>727.1</ele>
        <time>2018-12-08T16:58:39Z</time>
      </trkpt>
      <trkpt lat="45.06307" lon="6.03728">
        <ele>727.9</ele>
        <time>2018-12-08T16:58:41Z</time>
      </trkpt>
      <trkpt lat="45.06313" lon="6.03737">
        <ele>728.1</ele>
        <time>2018-12-08T16:58:43Z</time>
      </trkpt>
      <trkpt lat="45.06319" lon="6.03746">
        <ele>728.2</ele>
        <time>2018-12-08T16:58:45Z</time>
      </trkpt>
      <trkpt lat="45.06325" lon="6.03755">
        <ele>728.4</ele>
        <time>2018-12-08T16:58:47Z</time>
      </trkpt>
      <trkpt lat="45.06331" lon="6.03764">
        <ele>728.6</ele>
        <time>2018-12-08T16:58:49Z</time>
      </trkpt>
      <trkpt lat="45.06338" lon="6.03773">
        <ele>728.8</ele>
        <time>2018-12-08T16:58:51Z</time>
      </trkpt>
      <trkpt lat="45.06344" lon="6.03782">
        <ele>729</ele>
        <time>2018-12-08T16:58:53Z</time>
      </trkpt>
      <trkpt lat="45.06369" lon="6.03819">
        <ele>729.7</ele>
        <time>2018-12-08T16:58:55Z</time>
      </trkpt>
      <trkpt lat="45.06375" lon="6.03828">
        <ele>729.9</ele>
        <time>2018-12-08T16:58:57Z</time>
      </trkpt>
      <trkpt lat="45.06381" lon="6.03838">
        <ele>730.1</ele>
        <time>2018-12-08T16:58:59Z</time>
      </trkpt>
      <trkpt lat="45.06387" lon="6.03847">
        <ele>730.3</ele>
        <time>2018-12-08T16:59:01Z</time>
      </trkpt>
      <trkpt lat="45.06393" lon="6.03856">
        <ele>730.4</ele>
        <time>2018-12-08T16:59:03Z</time>
      </trkpt>
      <trkpt lat="45.064" lon="6.03865">
        <ele>730.6</ele>
        <time>2018-12-08T16:59:05Z</time>
      </trkpt>
      <trkpt lat="45.06421" lon="6.03897">
        <ele>731.3</ele>
        <time>2018-12-08T16:59:07Z</time>
      </trkpt>
      <trkpt lat="45.06428" lon="6.03906">
        <ele>731.4</ele>
        <time>2018-12-08T16:59:09Z</time>
      </trkpt>
      <trkpt lat="45.06434" lon="6.03915">
        <ele>731.6</ele>
        <time>2018-12-08T16:59:11Z</time>
      </trkpt>
      <trkpt lat="45.06441" lon="6.03924">
        <ele>731.8</ele>
        <time>2018-12-08T16:59:13Z</time>
      </trkpt>
      <trkpt lat="45.06447" lon="6.03932">
        <ele>732</ele>
        <time>2018-12-08T16:59:15Z</time>
      </trkpt>
      <trkpt lat="45.06454" lon="6.03941">
        <ele>732.2</ele>
        <time>2018-12-08T16:59:17Z</time>
      </trkpt>
      <trkpt lat="45.06461" lon="6.0395">
        <ele>732.4</ele>
        <time>2018-12-08T16:59:19Z</time>
      </trkpt>
      <trkpt lat="45.06467" lon="6.03959">
        <ele>732.5</ele>
        <time>2018-12-08T16:59:21Z</time>
      </trkpt>
      <trkpt lat="45.06474" lon="6.03967">
        <ele>732.7</ele>
        <time>2018-12-08T16:59:23Z</time>
      </trkpt>
      <trkpt lat="45.06507" lon="6.04004">
        <ele>733.7</ele>
        <time>2018-12-08T16:59:25Z</time>
      </trkpt>
      <trkpt lat="45.06516" lon="6.04008">
        <ele>734.4</ele>
        <time>2018-12-08T16:59:27Z</time>
      </trkpt>
      <trkpt lat="45.06529" lon="6.0401">
        <ele>735.5</ele>
        <time>2018-12-08T16:59:29Z</time>
      </trkpt>
      <trkpt lat="45.06537" lon="6.04007">
        <ele>736.2</ele>
        <time>2018-12-08T16:59:31Z</time>
      </trkpt>
      <trkpt lat="45.06544" lon="6.04005">
        <ele>736.7</ele>
        <time>2018-12-08T16:59:33Z</time>
      </trkpt>
      <trkpt lat="45.06549" lon="6.04003">
        <ele>737.2</ele>
        <time>2018-12-08T16:59:35Z</time>
      </trkpt>
      <trkpt lat="45.06555" lon="6.04001">
        <ele>737.6</ele>
        <time>2018-12-08T16:59:37Z</time>
      </trkpt>
      <trkpt lat="45.0656" lon="6.04">
        <ele>738.1</ele>
        <time>2018-12-08T16:59:39Z</time>
      </trkpt>
      <trkpt lat="45.06566" lon="6.03998">
        <ele>738.5</ele>
        <time>2018-12-08T16:59:41Z</time>
      </trkpt>
      <trkpt lat="45.0659" lon="6.03989">
        <ele>740.5</ele>
        <time>2018-12-08T16:59:43Z</time>
      </trkpt>
      <trkpt lat="45.06595" lon="6.03987">
        <ele>741</ele>
        <time>2018-12-08T16:59:45Z</time>
      </trkpt>
      <trkpt lat="45.06601" lon="6.03985">
        <ele>741.4</ele>
        <time>2018-12-08T16:59:47Z</time>
      </trkpt>
      <trkpt lat="45.06606" lon="6.03983">
        <ele>741.9</ele>
        <time>2018-12-08T16:59:49Z</time>
      </trkpt>
      <trkpt lat="45.06611" lon="6.0398">
        <ele>742.3</ele>
        <time>2018-12-08T16:59:51Z</time>
      </trkpt>
      <trkpt lat="45.06617" lon="6.03978">
        <ele>742.8</ele>
        <time>2018-12-08T16:59:53Z</time>
      </trkpt>
      <trkpt lat="45.06622" lon="6.03976">
        <ele>743.2</ele>
        <time>2018-12-08T16:59:55Z</time>
      </trkpt>
      <trkpt lat="45.06627" lon="6.03973">
        <ele>743.7</ele>
        <time>2018-12-08T16:59:57Z</time>
      </trkpt>
      <trkpt lat="45.0665" lon="6.03964">
        <ele>745.6</ele>
        <time>2018-12-08T16:59:59Z</time>
      </trkpt>
      <trkpt lat="45.06656" lon="6.03963">
        <ele>746</ele>
        <time>2018-12-08T17:00:01Z</time>
      </trkpt>
      <trkpt lat="45.06661" lon="6.03963">
        <ele>746.5</ele>
        <time>2018-12-08T17:00:03Z</time>
      </trkpt>
      <trkpt lat="45.06667" lon="6.03962">
        <ele>746.9</ele>
        <time>2018-12-08T17:00:05Z</time>
      </trkpt>
      <trkpt lat="45.06673" lon="6.03961">
        <ele>747.4</ele>
        <time>2018-12-08T17:00:07Z</time>
      </trkpt>
      <trkpt lat="45.06678" lon="6.0396">
        <ele>747.8</ele>
        <time>2018-12-08T17:00:09Z</time>
      </trkpt>
      <trkpt lat="45.06684" lon="6.03959">
        <ele>748.2</ele>
        <time>2018-12-08T17:00:11Z</time>
      </trkpt>
      <trkpt lat="45.06689" lon="6.03958">
        <ele>748.7</ele>
        <time>2018-12-08T17:00:13Z</time>
      </trkpt>
      <trkpt lat="45.06695" lon="6.03957">
        <ele>749.1</ele>
        <time>2018-12-08T17:00:15Z</time>
      </trkpt>
      <trkpt lat="45.067" lon="6.03956">
        <ele>749.6</ele>
        <time>2018-12-08T17:00:17Z</time>
      </trkpt>
      <trkpt lat="45.06705" lon="6.03955">
        <ele>750</ele>
        <time>2018-12-08T17:00:19Z</time>
      </trkpt>
      <trkpt lat="45.06711" lon="6.03954">
        <ele>750.5</ele>
        <time>2018-12-08T17:00:21Z</time>
      </trkpt>
      <trkpt lat="45.06717" lon="6.03953">
        <ele>750.9</ele>
        <time>2018-12-08T17:00:23Z</time>
      </trkpt>
      <trkpt lat="45.06722" lon="6.03952">
        <ele>751.4</ele>
        <time>2018-12-08T17:00:25Z</time>
      </trkpt>
      <trkpt lat="45.06728" lon="6.03951">
        <ele>751.8</ele>
        <time>2018-12-08T17:00:27Z</time>
      </trkpt>
      <trkpt lat="45.06734" lon="6.0395">
        <ele>752.3</ele>
        <time>2018-12-08T17:00:29Z</time>
      </trkpt>
      <trkpt lat="45.06739" lon="6.0395">
        <ele>752.7</ele>
        <time>2018-12-08T17:00:31Z</time>
      </trkpt>
      <trkpt lat="45.06781" lon="6.03941">
        <ele>756.1</ele>
        <time>2018-12-08T17:00:33Z</time>
      </trkpt>
      <trkpt lat="45.06786" lon="6.03939">
        <ele>756.6</ele>
        <time>2018-12-08T17:00:35Z</time>
      </trkpt>
      <trkpt lat="45.06792" lon="6.03937">
        <ele>757</ele>
        <time>2018-12-08T17:00:37Z</time>
      </trkpt>
      <trkpt lat="45.06797" lon="6.03935">
        <ele>757.4</ele>
        <time>2018-12-08T17:00:39Z</time>
      </trkpt>
      <trkpt lat="45.06802" lon="6.03933">
        <ele>757.8</ele>
        <time>2018-12-08T17:00:41Z</time>
      </trkpt>
      <trkpt lat="45.0682" lon="6.03926">
        <ele>759.4</ele>
        <time>2018-12-08T17:00:43Z</time>
      </trkpt>
      <trkpt lat="45.06825" lon="6.03927">
        <ele>760.1</ele>
        <time>2018-12-08T17:00:45Z</time>
      </trkpt>
      <trkpt lat="45.0683" lon="6.03927">
        <ele>760.7</ele>
        <time>2018-12-08T17:00:47Z</time>
      </trkpt>
      <trkpt lat="45.06835" lon="6.03927">
        <ele>761.3</ele>
        <time>2018-12-08T17:00:49Z</time>
      </trkpt>
      <trkpt lat="45.06838" lon="6.03928">
        <ele>761.8</ele>
        <time>2018-12-08T17:00:51Z</time>
      </trkpt>
      <trkpt lat="45.06842" lon="6.03928">
        <ele>762.4</ele>
        <time>2018-12-08T17:00:53Z</time>
      </trkpt>
      <trkpt lat="45.06846" lon="6.03928">
        <ele>762.9</ele>
        <time>2018-12-08T17:00:55Z</time>
      </trkpt>
      <trkpt lat="45.0685" lon="6.03929">
        <ele>763.5</ele>
        <time>2018-12-08T17:00:57Z</time>
      </trkpt>
      <trkpt lat="45.06854" lon="6.03929">
        <ele>764</ele>
        <time>2018-12-08T17:00:59Z</time>
      </trkpt>
      <trkpt lat="45.06873" lon="6.0393">
        <ele>766.6</ele>
        <time>2018-12-08T17:01:01Z</time>
      </trkpt>
      <trkpt lat="45.06877" lon="6.03928">
        <ele>767.1</ele>
        <time>2018-12-08T17:01:03Z</time>
      </trkpt>
      <trkpt lat="45.06881" lon="6.03927">
        <ele>767.6</ele>
        <time>2018-12-08T17:01:05Z</time>
      </trkpt>
      <trkpt lat="45.06885" lon="6.03926">
        <ele>768.2</ele>
        <time>2018-12-08T17:01:07Z</time>
      </trkpt>
      <trkpt lat="45.06889" lon="6.03925">
        <ele>768.7</ele>
        <time>2018-12-08T17:01:09Z</time>
      </trkpt>
      <trkpt lat="45.06892" lon="6.03923">
        <ele>769.2</ele>
        <time>2018-12-08T17:01:11Z</time>
      </trkpt>
      <trkpt lat="45.06896" lon="6.03922">
        <ele>769.7</ele>
        <time>2018-12-08T17:01:13Z</time>
      </trkpt>
      <trkpt lat="45.069" lon="6.03921">
        <ele>770.2</ele>
        <time>2018-12-08T17:01:15Z</time>
      </trkpt>
      <trkpt lat="45.06904" lon="6.03919">
        <ele>770.8</ele>
        <time>2018-12-08T17:01:17Z</time>
      </trkpt>
      <trkpt lat="45.06908" lon="6.03918">
        <ele>771.3</ele>
        <time>2018-12-08T17:01:19Z</time>
      </trkpt>
      <trkpt lat="45.06911" lon="6.03917">
        <ele>771.7</ele>
        <time>2018-12-08T17:01:21Z</time>
      </trkpt>
      <trkpt lat="45.06914" lon="6.03916">
        <ele>772.1</ele>
        <time>2018-12-08T17:01:23Z</time>
      </trkpt>
      <trkpt lat="45.06936" lon="6.03909">
        <ele>775.2</ele>
        <time>2018-12-08T17:01:25Z</time>
      </trkpt>
      <trkpt lat="45.06939" lon="6.03907">
        <ele>775.7</ele>
        <time>2018-12-08T17:01:27Z</time>
      </trkpt>
      <trkpt lat="45.06942" lon="6.03905">
        <ele>776.1</ele>
        <time>2018-12-08T17:01:29Z</time>
      </trkpt>
      <trkpt lat="45.06946" lon="6.03904">
        <ele>776.6</ele>
        <time>2018-12-08T17:01:31Z</time>
      </trkpt>
      <trkpt lat="45.06949" lon="6.03902">
        <ele>777.1</ele>
        <time>2018-12-08T17:01:33Z</time>
      </trkpt>
      <trkpt lat="45.06952" lon="6.039">
        <ele>777.5</ele>
        <time>2018-12-08T17:01:35Z</time>
      </trkpt>
      <trkpt lat="45.06956" lon="6.03899">
        <ele>778</ele>
        <time>2018-12-08T17:01:37Z</time>
      </trkpt>
      <trkpt lat="45.06959" lon="6.03897">
        <ele>778.5</ele>
        <time>2018-12-08T17:01:39Z</time>
      </trkpt>
      <trkpt lat="45.06963" lon="6.03895">
        <ele>779</ele>
        <time>2018-12-08T17:01:41Z</time>
      </trkpt>
      <trkpt lat="45.06966" lon="6.03894">
        <ele>779.4</ele>
        <time>2018-12-08T17:01:43Z</time>
      </trkpt>
      <trkpt lat="45.06969" lon="6.03892">
        <ele>779.9</ele>
        <time>2018-12-08T17:01:45Z</time>
      </trkpt>
      <trkpt lat="45.06972" lon="6.03891">
        <ele>780.3</ele>
        <time>2018-12-08T17:01:47Z</time>
      </trkpt>
      <trkpt lat="45.06975" lon="6.03889">
        <ele>780.8</ele>
        <time>2018-12-08T17:01:49Z</time>
      </trkpt>
      <trkpt lat="45.06996" lon="6.03879">
        <ele>783.8</ele>
        <time>2018-12-08T17:01:51Z</time>
      </trkpt>
      <trkpt lat="45.07" lon="6.03878">
        <ele>784.2</ele>
        <time>2018-12-08T17:01:53Z</time>
      </trkpt>
      <trkpt lat="45.07003" lon="6.03877">
        <ele>784.7</ele>
        <time>2018-12-08T17:01:55Z</time>
      </trkpt>
      <trkpt lat="45.07007" lon="6.03876">
        <ele>785.2</ele>
        <time>2018-12-08T17:01:57Z</time>
      </trkpt>
      <trkpt lat="45.0701" lon="6.03875">
        <ele>785.7</ele>
        <time>2018-12-08T17:01:59Z</time>
      </trkpt>
      <trkpt lat="45.07014" lon="6.03874">
        <ele>786.1</ele>
        <time>2018-12-08T17:02:01Z</time>
      </trkpt>
      <trkpt lat="45.07017" lon="6.03873">
        <ele>786.6</ele>
        <time>2018-12-08T17:02:03Z</time>
      </trkpt>
      <trkpt lat="45.07031" lon="6.03871">
        <ele>788.5</ele>
        <time>2018-12-08T17:02:05Z</time>
      </trkpt>
      <trkpt lat="45.07034" lon="6.03871">
        <ele>789</ele>
        <time>2018-12-08T17:02:07Z</time>
      </trkpt>
      <trkpt lat="45.07038" lon="6.03872">
        <ele>789.4</ele>
        <time>2018-12-08T17:02:09Z</time>
      </trkpt>
      <trkpt lat="45.07041" lon="6.03873">
        <ele>789.9</ele>
        <time>2018-12-08T17:02:11Z</time>
      </trkpt>
      <trkpt lat="45.07045" lon="6.03874">
        <ele>790.4</ele>
        <time>2018-12-08T17:02:13Z</time>
      </trkpt>
      <trkpt lat="45.07048" lon="6.03874">
        <ele>790.9</ele>
        <time>2018-12-08T17:02:15Z</time>
      </trkpt>
      <trkpt lat="45.07052" lon="6.03875">
        <ele>791.3</ele>
        <time>2018-12-08T17:02:17Z</time>
      </trkpt>
      <trkpt lat="45.07055" lon="6.03876">
        <ele>791.8</ele>
        <time>2018-12-08T17:02:19Z</time>
      </trkpt>
      <trkpt lat="45.07059" lon="6.03877">
        <ele>792.3</ele>
        <time>2018-12-08T17:02:21Z</time>
      </trkpt>
      <trkpt lat="45.07063" lon="6.03877">
        <ele>792.8</ele>
        <time>2018-12-08T17:02:23Z</time>
      </trkpt>
      <trkpt lat="45.07066" lon="6.03878">
        <ele>793.3</ele>
        <time>2018-12-08T17:02:25Z</time>
      </trkpt>
      <trkpt lat="45.0707" lon="6.03879">
        <ele>793.8</ele>
        <time>2018-12-08T17:02:27Z</time>
      </trkpt>
      <trkpt lat="45.07073" lon="6.0388">
        <ele>794.3</ele>
        <time>2018-12-08T17:02:29Z</time>
      </trkpt>
      <trkpt lat="45.07077" lon="6.0388">
        <ele>794.7</ele>
        <time>2018-12-08T17:02:31Z</time>
      </trkpt>
      <trkpt lat="45.07081" lon="6.03881">
        <ele>795.2</ele>
        <time>2018-12-08T17:02:33Z</time>
      </trkpt>
      <trkpt lat="45.07084" lon="6.03882">
        <ele>795.7</ele>
        <time>2018-12-08T17:02:35Z</time>
      </trkpt>
      <trkpt lat="45.07088" lon="6.03883">
        <ele>796.2</ele>
        <time>2018-12-08T17:02:37Z</time>
      </trkpt>
      <trkpt lat="45.07091" lon="6.03883">
        <ele>796.7</ele>
        <time>2018-12-08T17:02:39Z</time>
      </trkpt>
      <trkpt lat="45.07095" lon="6.03884">
        <ele>797.2</ele>
        <time>2018-12-08T17:02:41Z</time>
      </trkpt>
      <trkpt lat="45.07098" lon="6.03885">
        <ele>797.6</ele>
        <time>2018-12-08T17:02:43Z</time>
      </trkpt>
      <trkpt lat="45.07102" lon="6.03886">
        <ele>798.1</ele>
        <time>2018-12-08T17:02:45Z</time>
      </trkpt>
      <trkpt lat="45.07105" lon="6.03886">
        <ele>798.6</ele>
        <time>2018-12-08T17:02:47Z</time>
      </trkpt>
      <trkpt lat="45.07109" lon="6.03887">
        <ele>799.1</ele>
        <time>2018-12-08T17:02:49Z</time>
      </trkpt>
      <trkpt lat="45.07112" lon="6.03888">
        <ele>799.5</ele>
        <time>2018-12-08T17:02:51Z</time>
      </trkpt>
      <trkpt lat="45.07116" lon="6.03889">
        <ele>800</ele>
        <time>2018-12-08T17:02:53Z</time>
      </trkpt>
      <trkpt lat="45.07119" lon="6.03889">
        <ele>800.5</ele>
        <time>2018-12-08T17:02:55Z</time>
      </trkpt>
      <trkpt lat="45.07123" lon="6.0389">
        <ele>800.9</ele>
        <time>2018-12-08T17:02:57Z</time>
      </trkpt>
      <trkpt lat="45.07126" lon="6.03891">
        <ele>801.4</ele>
        <time>2018-12-08T17:02:59Z</time>
      </trkpt>
      <trkpt lat="45.0713" lon="6.03892">
        <ele>801.9</ele>
        <time>2018-12-08T17:03:01Z</time>
      </trkpt>
      <trkpt lat="45.07174" lon="6.03902">
        <ele>808</ele>
        <time>2018-12-08T17:03:03Z</time>
      </trkpt>
      <trkpt lat="45.07177" lon="6.03905">
        <ele>808.5</ele>
        <time>2018-12-08T17:03:05Z</time>
      </trkpt>
      <trkpt lat="45.07184" lon="6.0391">
        <ele>809.5</ele>
        <time>2018-12-08T17:03:07Z</time>
      </trkpt>
      <trkpt lat="45.07184" lon="6.03915">
        <ele>810</ele>
        <time>2018-12-08T17:03:09Z</time>
      </trkpt>
      <trkpt lat="45.07183" lon="6.03922">
        <ele>810.7</ele>
        <time>2018-12-08T17:03:11Z</time>
      </trkpt>
      <trkpt lat="45.07181" lon="6.03926">
        <ele>811.2</ele>
        <time>2018-12-08T17:03:13Z</time>
      </trkpt>
      <trkpt lat="45.07177" lon="6.0393">
        <ele>812</ele>
        <time>2018-12-08T17:03:15Z</time>
      </trkpt>
      <trkpt lat="45.07173" lon="6.03929">
        <ele>812.5</ele>
        <time>2018-12-08T17:03:17Z</time>
      </trkpt>
      <trkpt lat="45.0717" lon="6.03928">
        <ele>813</ele>
        <time>2018-12-08T17:03:19Z</time>
      </trkpt>
      <trkpt lat="45.07166" lon="6.03927">
        <ele>813.5</ele>
        <time>2018-12-08T17:03:21Z</time>
      </trkpt>
      <trkpt lat="45.07162" lon="6.03927">
        <ele>814</ele>
        <time>2018-12-08T17:03:23Z</time>
      </trkpt>
      <trkpt lat="45.07159" lon="6.03926">
        <ele>814.4</ele>
        <time>2018-12-08T17:03:25Z</time>
      </trkpt>
      <trkpt lat="45.07155" lon="6.03925">
        <ele>814.9</ele>
        <time>2018-12-08T17:03:27Z</time>
      </trkpt>
      <trkpt lat="45.07152" lon="6.03924">
        <ele>815.4</ele>
        <time>2018-12-08T17:03:29Z</time>
      </trkpt>
      <trkpt lat="45.07148" lon="6.03923">
        <ele>815.9</ele>
        <time>2018-12-08T17:03:31Z</time>
      </trkpt>
      <trkpt lat="45.07145" lon="6.03923">
        <ele>816.4</ele>
        <time>2018-12-08T17:03:33Z</time>
      </trkpt>
      <trkpt lat="45.07141" lon="6.03922">
        <ele>816.9</ele>
        <time>2018-12-08T17:03:35Z</time>
      </trkpt>
      <trkpt lat="45.07137" lon="6.03921">
        <ele>817.4</ele>
        <time>2018-12-08T17:03:37Z</time>
      </trkpt>
      <trkpt lat="45.07134" lon="6.0392">
        <ele>817.9</ele>
        <time>2018-12-08T17:03:39Z</time>
      </trkpt>
      <trkpt lat="45.0713" lon="6.03919">
        <ele>818.3</ele>
        <time>2018-12-08T17:03:41Z</time>
      </trkpt>
      <trkpt lat="45.07126" lon="6.03919">
        <ele>818.8</ele>
        <time>2018-12-08T17:03:43Z</time>
      </trkpt>
      <trkpt lat="45.071" lon="6.03914">
        <ele>822.3</ele>
        <time>2018-12-08T17:03:45Z</time>
      </trkpt>
      <trkpt lat="45.07097" lon="6.03915">
        <ele>822.6</ele>
        <time>2018-12-08T17:03:47Z</time>
      </trkpt>
      <trkpt lat="45.07093" lon="6.03917">
        <ele>823</ele>
        <time>2018-12-08T17:03:49Z</time>
      </trkpt>
      <trkpt lat="45.07089" lon="6.03918">
        <ele>823.4</ele>
        <time>2018-12-08T17:03:51Z</time>
      </trkpt>
      <trkpt lat="45.07085" lon="6.0392">
        <ele>823.9</ele>
        <time>2018-12-08T17:03:53Z</time>
      </trkpt>
      <trkpt lat="45.0708" lon="6.03922">
        <ele>824.3</ele>
        <time>2018-12-08T17:03:55Z</time>
      </trkpt>
      <trkpt lat="45.07076" lon="6.03923">
        <ele>824.7</ele>
        <time>2018-12-08T17:03:57Z</time>
      </trkpt>
      <trkpt lat="45.07072" lon="6.03925">
        <ele>825.2</ele>
        <time>2018-12-08T17:03:59Z</time>
      </trkpt>
      <trkpt lat="45.07067" lon="6.03927">
        <ele>825.6</ele>
        <time>2018-12-08T17:04:01Z</time>
      </trkpt>
      <trkpt lat="45.07046" lon="6.03935">
        <ele>827.7</ele>
        <time>2018-12-08T17:04:03Z</time>
      </trkpt>
      <trkpt lat="45.07042" lon="6.03938">
        <ele>828.2</ele>
        <time>2018-12-08T17:04:05Z</time>
      </trkpt>
      <trkpt lat="45.07038" lon="6.03941">
        <ele>828.6</ele>
        <time>2018-12-08T17:04:07Z</time>
      </trkpt>
      <trkpt lat="45.07035" lon="6.03944">
        <ele>829</ele>
        <time>2018-12-08T17:04:09Z</time>
      </trkpt>
      <trkpt lat="45.07024" lon="6.03953">
        <ele>830.2</ele>
        <time>2018-12-08T17:04:11Z</time>
      </trkpt>
      <trkpt lat="45.07021" lon="6.03957">
        <ele>830.6</ele>
        <time>2018-12-08T17:04:13Z</time>
      </trkpt>
      <trkpt lat="45.07017" lon="6.03961">
        <ele>831.1</ele>
        <time>2018-12-08T17:04:15Z</time>
      </trkpt>
      <trkpt lat="45.07014" lon="6.03965">
        <ele>831.5</ele>
        <time>2018-12-08T17:04:17Z</time>
      </trkpt>
      <trkpt lat="45.0701" lon="6.03969">
        <ele>832</ele>
        <time>2018-12-08T17:04:19Z</time>
      </trkpt>
      <trkpt lat="45.07007" lon="6.03974">
        <ele>832.4</ele>
        <time>2018-12-08T17:04:21Z</time>
      </trkpt>
      <trkpt lat="45.07003" lon="6.03978">
        <ele>832.9</ele>
        <time>2018-12-08T17:04:23Z</time>
      </trkpt>
      <trkpt lat="45.06999" lon="6.03982">
        <ele>833.3</ele>
        <time>2018-12-08T17:04:25Z</time>
      </trkpt>
      <trkpt lat="45.06996" lon="6.03986">
        <ele>833.8</ele>
        <time>2018-12-08T17:04:27Z</time>
      </trkpt>
      <trkpt lat="45.06992" lon="6.0399">
        <ele>834.2</ele>
        <time>2018-12-08T17:04:29Z</time>
      </trkpt>
      <trkpt lat="45.06989" lon="6.03994">
        <ele>834.7</ele>
        <time>2018-12-08T17:04:31Z</time>
      </trkpt>
      <trkpt lat="45.06969" lon="6.04017">
        <ele>837.1</ele>
        <time>2018-12-08T17:04:33Z</time>
      </trkpt>
      <trkpt lat="45.06966" lon="6.04022">
        <ele>837.3</ele>
        <time>2018-12-08T17:04:35Z</time>
      </trkpt>
      <trkpt lat="45.06962" lon="6.04027">
        <ele>837.6</ele>
        <time>2018-12-08T17:04:37Z</time>
      </trkpt>
      <trkpt lat="45.06959" lon="6.04032">
        <ele>837.9</ele>
        <time>2018-12-08T17:04:39Z</time>
      </trkpt>
      <trkpt lat="45.06955" lon="6.04038">
        <ele>838.2</ele>
        <time>2018-12-08T17:04:41Z</time>
      </trkpt>
      <trkpt lat="45.06951" lon="6.04044">
        <ele>838.5</ele>
        <time>2018-12-08T17:04:43Z</time>
      </trkpt>
      <trkpt lat="45.06947" lon="6.0405">
        <ele>838.8</ele>
        <time>2018-12-08T17:04:45Z</time>
      </trkpt>
      <trkpt lat="45.06942" lon="6.04057">
        <ele>839.2</ele>
        <time>2018-12-08T17:04:47Z</time>
      </trkpt>
      <trkpt lat="45.06925" lon="6.04081">
        <ele>840.5</ele>
        <time>2018-12-08T17:04:49Z</time>
      </trkpt>
      <trkpt lat="45.06919" lon="6.04083">
        <ele>840.9</ele>
        <time>2018-12-08T17:04:51Z</time>
      </trkpt>
      <trkpt lat="45.06912" lon="6.04084">
        <ele>841.2</ele>
        <time>2018-12-08T17:04:53Z</time>
      </trkpt>
      <trkpt lat="45.06906" lon="6.04086">
        <ele>841.5</ele>
        <time>2018-12-08T17:04:55Z</time>
      </trkpt>
      <trkpt lat="45.069" lon="6.04088">
        <ele>841.9</ele>
        <time>2018-12-08T17:04:57Z</time>
      </trkpt>
      <trkpt lat="45.06894" lon="6.04089">
        <ele>842.2</ele>
        <time>2018-12-08T17:04:59Z</time>
      </trkpt>
      <trkpt lat="45.06888" lon="6.04091">
        <ele>842.6</ele>
        <time>2018-12-08T17:05:01Z</time>
      </trkpt>
      <trkpt lat="45.06862" lon="6.04098">
        <ele>844</ele>
        <time>2018-12-08T17:05:03Z</time>
      </trkpt>
      <trkpt lat="45.06855" lon="6.041">
        <ele>844.7</ele>
        <time>2018-12-08T17:05:05Z</time>
      </trkpt>
      <trkpt lat="45.06849" lon="6.04102">
        <ele>845.5</ele>
        <time>2018-12-08T17:05:07Z</time>
      </trkpt>
      <trkpt lat="45.06842" lon="6.04103">
        <ele>846.2</ele>
        <time>2018-12-08T17:05:09Z</time>
      </trkpt>
      <trkpt lat="45.06837" lon="6.04105">
        <ele>846.8</ele>
        <time>2018-12-08T17:05:11Z</time>
      </trkpt>
      <trkpt lat="45.06833" lon="6.04106">
        <ele>847.3</ele>
        <time>2018-12-08T17:05:13Z</time>
      </trkpt>
      <trkpt lat="45.06814" lon="6.04111">
        <ele>849.4</ele>
        <time>2018-12-08T17:05:15Z</time>
      </trkpt>
      <trkpt lat="45.06811" lon="6.04113">
        <ele>849.8</ele>
        <time>2018-12-08T17:05:17Z</time>
      </trkpt>
      <trkpt lat="45.06807" lon="6.04115">
        <ele>850.3</ele>
        <time>2018-12-08T17:05:19Z</time>
      </trkpt>
      <trkpt lat="45.06804" lon="6.04117">
        <ele>850.7</ele>
        <time>2018-12-08T17:05:21Z</time>
      </trkpt>
      <trkpt lat="45.068" lon="6.04119">
        <ele>851.2</ele>
        <time>2018-12-08T17:05:23Z</time>
      </trkpt>
      <trkpt lat="45.06796" lon="6.04121">
        <ele>851.7</ele>
        <time>2018-12-08T17:05:25Z</time>
      </trkpt>
      <trkpt lat="45.06792" lon="6.04124">
        <ele>852.2</ele>
        <time>2018-12-08T17:05:27Z</time>
      </trkpt>
      <trkpt lat="45.06788" lon="6.04126">
        <ele>852.6</ele>
        <time>2018-12-08T17:05:29Z</time>
      </trkpt>
      <trkpt lat="45.06784" lon="6.04128">
        <ele>853.1</ele>
        <time>2018-12-08T17:05:31Z</time>
      </trkpt>
      <trkpt lat="45.0678" lon="6.0413">
        <ele>853.5</ele>
        <time>2018-12-08T17:05:33Z</time>
      </trkpt>
      <trkpt lat="45.06776" lon="6.04132">
        <ele>854</ele>
        <time>2018-12-08T17:05:35Z</time>
      </trkpt>
      <trkpt lat="45.06773" lon="6.04134">
        <ele>854.5</ele>
        <time>2018-12-08T17:05:37Z</time>
      </trkpt>
      <trkpt lat="45.06769" lon="6.04136">
        <ele>854.9</ele>
        <time>2018-12-08T17:05:39Z</time>
      </trkpt>
      <trkpt lat="45.06765" lon="6.04138">
        <ele>855.4</ele>
        <time>2018-12-08T17:05:41Z</time>
      </trkpt>
      <trkpt lat="45.06761" lon="6.04141">
        <ele>855.9</ele>
        <time>2018-12-08T17:05:43Z</time>
      </trkpt>
      <trkpt lat="45.06757" lon="6.04143">
        <ele>856.4</ele>
        <time>2018-12-08T17:05:45Z</time>
      </trkpt>
      <trkpt lat="45.06753" lon="6.04145">
        <ele>856.8</ele>
        <time>2018-12-08T17:05:47Z</time>
      </trkpt>
      <trkpt lat="45.06749" lon="6.04147">
        <ele>857.3</ele>
        <time>2018-12-08T17:05:49Z</time>
      </trkpt>
      <trkpt lat="45.06746" lon="6.04149">
        <ele>857.7</ele>
        <time>2018-12-08T17:05:51Z</time>
      </trkpt>
      <trkpt lat="45.06742" lon="6.04151">
        <ele>858.2</ele>
        <time>2018-12-08T17:05:53Z</time>
      </trkpt>
      <trkpt lat="45.06738" lon="6.04153">
        <ele>858.7</ele>
        <time>2018-12-08T17:05:55Z</time>
      </trkpt>
      <trkpt lat="45.06734" lon="6.04155">
        <ele>859.1</ele>
        <time>2018-12-08T17:05:57Z</time>
      </trkpt>
      <trkpt lat="45.0673" lon="6.04157">
        <ele>859.6</ele>
        <time>2018-12-08T17:05:59Z</time>
      </trkpt>
      <trkpt lat="45.06726" lon="6.0416">
        <ele>860</ele>
        <time>2018-12-08T17:06:01Z</time>
      </trkpt>
      <trkpt lat="45.06722" lon="6.04162">
        <ele>860.5</ele>
        <time>2018-12-08T17:06:03Z</time>
      </trkpt>
      <trkpt lat="45.06718" lon="6.04164">
        <ele>861</ele>
        <time>2018-12-08T17:06:05Z</time>
      </trkpt>
      <trkpt lat="45.06714" lon="6.04166">
        <ele>861.5</ele>
        <time>2018-12-08T17:06:07Z</time>
      </trkpt>
      <trkpt lat="45.0671" lon="6.04169">
        <ele>862</ele>
        <time>2018-12-08T17:06:09Z</time>
      </trkpt>
      <trkpt lat="45.06706" lon="6.04171">
        <ele>862.4</ele>
        <time>2018-12-08T17:06:11Z</time>
      </trkpt>
      <trkpt lat="45.06702" lon="6.04173">
        <ele>862.9</ele>
        <time>2018-12-08T17:06:13Z</time>
      </trkpt>
      <trkpt lat="45.06651" lon="6.04202">
        <ele>869.1</ele>
        <time>2018-12-08T17:06:15Z</time>
      </trkpt>
      <trkpt lat="45.06648" lon="6.04207">
        <ele>869.5</ele>
        <time>2018-12-08T17:06:17Z</time>
      </trkpt>
      <trkpt lat="45.06643" lon="6.04215">
        <ele>870.2</ele>
        <time>2018-12-08T17:06:19Z</time>
      </trkpt>
      <trkpt lat="45.06644" lon="6.04222">
        <ele>870.7</ele>
        <time>2018-12-08T17:06:21Z</time>
      </trkpt>
      <trkpt lat="45.06649" lon="6.04224">
        <ele>871.1</ele>
        <time>2018-12-08T17:06:23Z</time>
      </trkpt>
      <trkpt lat="45.06658" lon="6.04226">
        <ele>871.9</ele>
        <time>2018-12-08T17:06:25Z</time>
      </trkpt>
      <trkpt lat="45.06662" lon="6.04223">
        <ele>872.3</ele>
        <time>2018-12-08T17:06:27Z</time>
      </trkpt>
      <trkpt lat="45.06665" lon="6.04221">
        <ele>872.6</ele>
        <time>2018-12-08T17:06:29Z</time>
      </trkpt>
      <trkpt lat="45.0667" lon="6.04218">
        <ele>873</ele>
        <time>2018-12-08T17:06:31Z</time>
      </trkpt>
      <trkpt lat="45.06674" lon="6.04215">
        <ele>873.4</ele>
        <time>2018-12-08T17:06:33Z</time>
      </trkpt>
      <trkpt lat="45.06679" lon="6.04212">
        <ele>873.9</ele>
        <time>2018-12-08T17:06:35Z</time>
      </trkpt>
      <trkpt lat="45.06683" lon="6.04209">
        <ele>874.3</ele>
        <time>2018-12-08T17:06:37Z</time>
      </trkpt>
      <trkpt lat="45.06688" lon="6.04206">
        <ele>874.7</ele>
        <time>2018-12-08T17:06:39Z</time>
      </trkpt>
      <trkpt lat="45.06706" lon="6.04195">
        <ele>876.4</ele>
        <time>2018-12-08T17:06:41Z</time>
      </trkpt>
      <trkpt lat="45.06711" lon="6.04193">
        <ele>876.8</ele>
        <time>2018-12-08T17:06:43Z</time>
      </trkpt>
      <trkpt lat="45.06716" lon="6.04191">
        <ele>877.3</ele>
        <time>2018-12-08T17:06:45Z</time>
      </trkpt>
      <trkpt lat="45.0672" lon="6.04189">
        <ele>877.7</ele>
        <time>2018-12-08T17:06:47Z</time>
      </trkpt>
      <trkpt lat="45.06725" lon="6.04188">
        <ele>878.1</ele>
        <time>2018-12-08T17:06:49Z</time>
      </trkpt>
      <trkpt lat="45.0673" lon="6.04186">
        <ele>878.5</ele>
        <time>2018-12-08T17:06:51Z</time>
      </trkpt>
      <trkpt lat="45.06734" lon="6.04184">
        <ele>878.9</ele>
        <time>2018-12-08T17:06:53Z</time>
      </trkpt>
      <trkpt lat="45.06739" lon="6.04182">
        <ele>879.4</ele>
        <time>2018-12-08T17:06:55Z</time>
      </trkpt>
      <trkpt lat="45.06759" lon="6.04176">
        <ele>881.1</ele>
        <time>2018-12-08T17:06:57Z</time>
      </trkpt>
      <trkpt lat="45.06764" lon="6.04177">
        <ele>881.6</ele>
        <time>2018-12-08T17:06:59Z</time>
      </trkpt>
      <trkpt lat="45.06774" lon="6.0418">
        <ele>882.4</ele>
        <time>2018-12-08T17:07:01Z</time>
      </trkpt>
      <trkpt lat="45.06779" lon="6.04182">
        <ele>882.8</ele>
        <time>2018-12-08T17:07:03Z</time>
      </trkpt>
      <trkpt lat="45.06783" lon="6.04184">
        <ele>883.3</ele>
        <time>2018-12-08T17:07:05Z</time>
      </trkpt>
      <trkpt lat="45.06788" lon="6.04186">
        <ele>883.7</ele>
        <time>2018-12-08T17:07:07Z</time>
      </trkpt>
      <trkpt lat="45.06793" lon="6.04188">
        <ele>884.1</ele>
        <time>2018-12-08T17:07:09Z</time>
      </trkpt>
      <trkpt lat="45.06802" lon="6.04199">
        <ele>885.4</ele>
        <time>2018-12-08T17:07:11Z</time>
      </trkpt>
      <trkpt lat="45.06799" lon="6.04206">
        <ele>886</ele>
        <time>2018-12-08T17:07:13Z</time>
      </trkpt>
      <trkpt lat="45.06794" lon="6.04208">
        <ele>886.5</ele>
        <time>2018-12-08T17:07:15Z</time>
      </trkpt>
      <trkpt lat="45.06785" lon="6.04207">
        <ele>887.2</ele>
        <time>2018-12-08T17:07:17Z</time>
      </trkpt>
      <trkpt lat="45.0678" lon="6.04204">
        <ele>887.7</ele>
        <time>2018-12-08T17:07:19Z</time>
      </trkpt>
      <trkpt lat="45.06776" lon="6.04201">
        <ele>888.1</ele>
        <time>2018-12-08T17:07:21Z</time>
      </trkpt>
      <trkpt lat="45.06765" lon="6.04197">
        <ele>889.2</ele>
        <time>2018-12-08T17:07:23Z</time>
      </trkpt>
      <trkpt lat="45.0676" lon="6.04197">
        <ele>889.9</ele>
        <time>2018-12-08T17:07:25Z</time>
      </trkpt>
      <trkpt lat="45.06755" lon="6.04197">
        <ele>890.4</ele>
        <time>2018-12-08T17:07:27Z</time>
      </trkpt>
      <trkpt lat="45.06745" lon="6.04198">
        <ele>891.7</ele>
        <time>2018-12-08T17:07:29Z</time>
      </trkpt>
      <trkpt lat="45.06742" lon="6.04201">
        <ele>892.2</ele>
        <time>2018-12-08T17:07:31Z</time>
      </trkpt>
      <trkpt lat="45.06739" lon="6.04204">
        <ele>892.7</ele>
        <time>2018-12-08T17:07:33Z</time>
      </trkpt>
      <trkpt lat="45.06736" lon="6.04207">
        <ele>893.1</ele>
        <time>2018-12-08T17:07:35Z</time>
      </trkpt>
      <trkpt lat="45.06733" lon="6.0421">
        <ele>893.6</ele>
        <time>2018-12-08T17:07:37Z</time>
      </trkpt>
      <trkpt lat="45.0673" lon="6.04213">
        <ele>894.1</ele>
        <time>2018-12-08T17:07:39Z</time>
      </trkpt>
      <trkpt lat="45.06727" lon="6.04216">
        <ele>894.6</ele>
        <time>2018-12-08T17:07:41Z</time>
      </trkpt>
      <trkpt lat="45.06723" lon="6.04219">
        <ele>895</ele>
        <time>2018-12-08T17:07:43Z</time>
      </trkpt>
      <trkpt lat="45.06721" lon="6.04222">
        <ele>895.5</ele>
        <time>2018-12-08T17:07:45Z</time>
      </trkpt>
      <trkpt lat="45.06718" lon="6.04225">
        <ele>895.9</ele>
        <time>2018-12-08T17:07:47Z</time>
      </trkpt>
      <trkpt lat="45.06714" lon="6.04229">
        <ele>896.4</ele>
        <time>2018-12-08T17:07:49Z</time>
      </trkpt>
      <trkpt lat="45.06711" lon="6.04232">
        <ele>896.9</ele>
        <time>2018-12-08T17:07:51Z</time>
      </trkpt>
      <trkpt lat="45.06708" lon="6.04235">
        <ele>897.4</ele>
        <time>2018-12-08T17:07:53Z</time>
      </trkpt>
      <trkpt lat="45.06705" lon="6.04238">
        <ele>897.9</ele>
        <time>2018-12-08T17:07:55Z</time>
      </trkpt>
      <trkpt lat="45.06701" lon="6.04241">
        <ele>898.4</ele>
        <time>2018-12-08T17:07:57Z</time>
      </trkpt>
      <trkpt lat="45.06699" lon="6.04244">
        <ele>898.8</ele>
        <time>2018-12-08T17:07:59Z</time>
      </trkpt>
      <trkpt lat="45.06696" lon="6.04247">
        <ele>899.3</ele>
        <time>2018-12-08T17:08:01Z</time>
      </trkpt>
      <trkpt lat="45.06693" lon="6.0425">
        <ele>899.7</ele>
        <time>2018-12-08T17:08:03Z</time>
      </trkpt>
      <trkpt lat="45.06667" lon="6.04275">
        <ele>903.7</ele>
        <time>2018-12-08T17:08:05Z</time>
      </trkpt>
      <trkpt lat="45.06663" lon="6.04277">
        <ele>904.1</ele>
        <time>2018-12-08T17:08:07Z</time>
      </trkpt>
      <trkpt lat="45.06659" lon="6.04279">
        <ele>904.7</ele>
        <time>2018-12-08T17:08:09Z</time>
      </trkpt>
      <trkpt lat="45.06656" lon="6.0428">
        <ele>905.2</ele>
        <time>2018-12-08T17:08:11Z</time>
      </trkpt>
      <trkpt lat="45.06652" lon="6.04282">
        <ele>905.6</ele>
        <time>2018-12-08T17:08:13Z</time>
      </trkpt>
      <trkpt lat="45.06649" lon="6.04284">
        <ele>906.1</ele>
        <time>2018-12-08T17:08:15Z</time>
      </trkpt>
      <trkpt lat="45.06645" lon="6.04286">
        <ele>906.5</ele>
        <time>2018-12-08T17:08:17Z</time>
      </trkpt>
      <trkpt lat="45.06642" lon="6.04287">
        <ele>907</ele>
        <time>2018-12-08T17:08:19Z</time>
      </trkpt>
      <trkpt lat="45.06639" lon="6.04289">
        <ele>907.4</ele>
        <time>2018-12-08T17:08:21Z</time>
      </trkpt>
      <trkpt lat="45.06635" lon="6.04291">
        <ele>907.9</ele>
        <time>2018-12-08T17:08:23Z</time>
      </trkpt>
      <trkpt lat="45.06632" lon="6.04293">
        <ele>908.4</ele>
        <time>2018-12-08T17:08:25Z</time>
      </trkpt>
      <trkpt lat="45.06628" lon="6.04294">
        <ele>908.8</ele>
        <time>2018-12-08T17:08:27Z</time>
      </trkpt>
      <trkpt lat="45.06625" lon="6.04296">
        <ele>909.3</ele>
        <time>2018-12-08T17:08:29Z</time>
      </trkpt>
      <trkpt lat="45.06621" lon="6.04298">
        <ele>909.7</ele>
        <time>2018-12-08T17:08:31Z</time>
      </trkpt>
      <trkpt lat="45.06598" lon="6.0431">
        <ele>912.9</ele>
        <time>2018-12-08T17:08:33Z</time>
      </trkpt>
      <trkpt lat="45.06596" lon="6.04316">
        <ele>913.5</ele>
        <time>2018-12-08T17:08:35Z</time>
      </trkpt>
      <trkpt lat="45.06596" lon="6.04322">
        <ele>914</ele>
        <time>2018-12-08T17:08:37Z</time>
      </trkpt>
      <trkpt lat="45.06598" lon="6.0433">
        <ele>914.9</ele>
        <time>2018-12-08T17:08:39Z</time>
      </trkpt>
      <trkpt lat="45.06601" lon="6.04331">
        <ele>915.3</ele>
        <time>2018-12-08T17:08:41Z</time>
      </trkpt>
      <trkpt lat="45.06605" lon="6.04332">
        <ele>915.8</ele>
        <time>2018-12-08T17:08:43Z</time>
      </trkpt>
      <trkpt lat="45.06612" lon="6.04333">
        <ele>916.7</ele>
        <time>2018-12-08T17:08:45Z</time>
      </trkpt>
      <trkpt lat="45.06616" lon="6.04332">
        <ele>917.2</ele>
        <time>2018-12-08T17:08:47Z</time>
      </trkpt>
      <trkpt lat="45.06619" lon="6.04331">
        <ele>917.7</ele>
        <time>2018-12-08T17:08:49Z</time>
      </trkpt>
      <trkpt lat="45.06623" lon="6.04329">
        <ele>918.1</ele>
        <time>2018-12-08T17:08:51Z</time>
      </trkpt>
      <trkpt lat="45.06627" lon="6.04328">
        <ele>918.6</ele>
        <time>2018-12-08T17:08:53Z</time>
      </trkpt>
      <trkpt lat="45.0663" lon="6.04327">
        <ele>919.1</ele>
        <time>2018-12-08T17:08:55Z</time>
      </trkpt>
      <trkpt lat="45.06634" lon="6.04326">
        <ele>919.6</ele>
        <time>2018-12-08T17:08:57Z</time>
      </trkpt>
      <trkpt lat="45.06638" lon="6.04325">
        <ele>920</ele>
        <time>2018-12-08T17:08:59Z</time>
      </trkpt>
      <trkpt lat="45.06641" lon="6.04324">
        <ele>920.5</ele>
        <time>2018-12-08T17:09:01Z</time>
      </trkpt>
      <trkpt lat="45.06645" lon="6.04323">
        <ele>921</ele>
        <time>2018-12-08T17:09:03Z</time>
      </trkpt>
      <trkpt lat="45.06649" lon="6.04321">
        <ele>921.4</ele>
        <time>2018-12-08T17:09:05Z</time>
      </trkpt>
      <trkpt lat="45.06652" lon="6.0432">
        <ele>921.9</ele>
        <time>2018-12-08T17:09:07Z</time>
      </trkpt>
      <trkpt lat="45.06656" lon="6.04319">
        <ele>922.4</ele>
        <time>2018-12-08T17:09:09Z</time>
      </trkpt>
      <trkpt lat="45.0668" lon="6.04311">
        <ele>925.4</ele>
        <time>2018-12-08T17:09:11Z</time>
      </trkpt>
      <trkpt lat="45.06683" lon="6.04309">
        <ele>925.9</ele>
        <time>2018-12-08T17:09:13Z</time>
      </trkpt>
      <trkpt lat="45.06687" lon="6.04306">
        <ele>926.4</ele>
        <time>2018-12-08T17:09:15Z</time>
      </trkpt>
      <trkpt lat="45.0669" lon="6.04304">
        <ele>926.9</ele>
        <time>2018-12-08T17:09:17Z</time>
      </trkpt>
      <trkpt lat="45.06694" lon="6.04301">
        <ele>927.4</ele>
        <time>2018-12-08T17:09:19Z</time>
      </trkpt>
      <trkpt lat="45.06697" lon="6.04299">
        <ele>927.9</ele>
        <time>2018-12-08T17:09:21Z</time>
      </trkpt>
      <trkpt lat="45.067" lon="6.04296">
        <ele>928.3</ele>
        <time>2018-12-08T17:09:23Z</time>
      </trkpt>
      <trkpt lat="45.06704" lon="6.04294">
        <ele>928.8</ele>
        <time>2018-12-08T17:09:25Z</time>
      </trkpt>
      <trkpt lat="45.06707" lon="6.04292">
        <ele>929.3</ele>
        <time>2018-12-08T17:09:27Z</time>
      </trkpt>
      <trkpt lat="45.06724" lon="6.04282">
        <ele>931.5</ele>
        <time>2018-12-08T17:09:29Z</time>
      </trkpt>
      <trkpt lat="45.06727" lon="6.04282">
        <ele>932</ele>
        <time>2018-12-08T17:09:31Z</time>
      </trkpt>
      <trkpt lat="45.06731" lon="6.04282">
        <ele>932.5</ele>
        <time>2018-12-08T17:09:33Z</time>
      </trkpt>
      <trkpt lat="45.06735" lon="6.04282">
        <ele>933</ele>
        <time>2018-12-08T17:09:35Z</time>
      </trkpt>
      <trkpt lat="45.06739" lon="6.04282">
        <ele>933.4</ele>
        <time>2018-12-08T17:09:37Z</time>
      </trkpt>
      <trkpt lat="45.06743" lon="6.04282">
        <ele>933.9</ele>
        <time>2018-12-08T17:09:39Z</time>
      </trkpt>
      <trkpt lat="45.06756" lon="6.04282">
        <ele>935.7</ele>
        <time>2018-12-08T17:09:41Z</time>
      </trkpt>
      <trkpt lat="45.0676" lon="6.04281">
        <ele>936.1</ele>
        <time>2018-12-08T17:09:43Z</time>
      </trkpt>
      <trkpt lat="45.06764" lon="6.04279">
        <ele>936.6</ele>
        <time>2018-12-08T17:09:45Z</time>
      </trkpt>
      <trkpt lat="45.06768" lon="6.04278">
        <ele>937.1</ele>
        <time>2018-12-08T17:09:47Z</time>
      </trkpt>
      <trkpt lat="45.06771" lon="6.04277">
        <ele>937.6</ele>
        <time>2018-12-08T17:09:49Z</time>
      </trkpt>
      <trkpt lat="45.06775" lon="6.04276">
        <ele>938.1</ele>
        <time>2018-12-08T17:09:51Z</time>
      </trkpt>
      <trkpt lat="45.06779" lon="6.04274">
        <ele>938.6</ele>
        <time>2018-12-08T17:09:53Z</time>
      </trkpt>
      <trkpt lat="45.06783" lon="6.04273">
        <ele>939</ele>
        <time>2018-12-08T17:09:55Z</time>
      </trkpt>
      <trkpt lat="45.06786" lon="6.04272">
        <ele>939.5</ele>
        <time>2018-12-08T17:09:57Z</time>
      </trkpt>
      <trkpt lat="45.0679" lon="6.04271">
        <ele>940</ele>
        <time>2018-12-08T17:09:59Z</time>
      </trkpt>
      <trkpt lat="45.06794" lon="6.04269">
        <ele>940.5</ele>
        <time>2018-12-08T17:10:01Z</time>
      </trkpt>
      <trkpt lat="45.06798" lon="6.04268">
        <ele>941</ele>
        <time>2018-12-08T17:10:03Z</time>
      </trkpt>
      <trkpt lat="45.06821" lon="6.04261">
        <ele>943.9</ele>
        <time>2018-12-08T17:10:05Z</time>
      </trkpt>
      <trkpt lat="45.06824" lon="6.04261">
        <ele>944.4</ele>
        <time>2018-12-08T17:10:07Z</time>
      </trkpt>
      <trkpt lat="45.06828" lon="6.04262">
        <ele>944.9</ele>
        <time>2018-12-08T17:10:09Z</time>
      </trkpt>
      <trkpt lat="45.06832" lon="6.04262">
        <ele>945.4</ele>
        <time>2018-12-08T17:10:11Z</time>
      </trkpt>
      <trkpt lat="45.06836" lon="6.04262">
        <ele>945.9</ele>
        <time>2018-12-08T17:10:13Z</time>
      </trkpt>
      <trkpt lat="45.0684" lon="6.04262">
        <ele>946.4</ele>
        <time>2018-12-08T17:10:15Z</time>
      </trkpt>
      <trkpt lat="45.06844" lon="6.04263">
        <ele>946.8</ele>
        <time>2018-12-08T17:10:17Z</time>
      </trkpt>
      <trkpt lat="45.06848" lon="6.04263">
        <ele>947.3</ele>
        <time>2018-12-08T17:10:19Z</time>
      </trkpt>
      <trkpt lat="45.06852" lon="6.04263">
        <ele>947.8</ele>
        <time>2018-12-08T17:10:21Z</time>
      </trkpt>
      <trkpt lat="45.06855" lon="6.04264">
        <ele>948.3</ele>
        <time>2018-12-08T17:10:23Z</time>
      </trkpt>
      <trkpt lat="45.06859" lon="6.04264">
        <ele>948.8</ele>
        <time>2018-12-08T17:10:25Z</time>
      </trkpt>
      <trkpt lat="45.06881" lon="6.04266">
        <ele>951.5</ele>
        <time>2018-12-08T17:10:27Z</time>
      </trkpt>
      <trkpt lat="45.06884" lon="6.04268">
        <ele>951.9</ele>
        <time>2018-12-08T17:10:29Z</time>
      </trkpt>
      <trkpt lat="45.06889" lon="6.04273">
        <ele>952.8</ele>
        <time>2018-12-08T17:10:31Z</time>
      </trkpt>
      <trkpt lat="45.06891" lon="6.04278">
        <ele>953.3</ele>
        <time>2018-12-08T17:10:33Z</time>
      </trkpt>
      <trkpt lat="45.06889" lon="6.04284">
        <ele>954.1</ele>
        <time>2018-12-08T17:10:35Z</time>
      </trkpt>
      <trkpt lat="45.06886" lon="6.04287">
        <ele>954.6</ele>
        <time>2018-12-08T17:10:37Z</time>
      </trkpt>
      <trkpt lat="45.06878" lon="6.04291">
        <ele>955.6</ele>
        <time>2018-12-08T17:10:39Z</time>
      </trkpt>
      <trkpt lat="45.06874" lon="6.0429">
        <ele>956.1</ele>
        <time>2018-12-08T17:10:41Z</time>
      </trkpt>
      <trkpt lat="45.0687" lon="6.04289">
        <ele>956.6</ele>
        <time>2018-12-08T17:10:43Z</time>
      </trkpt>
      <trkpt lat="45.06866" lon="6.04289">
        <ele>957.1</ele>
        <time>2018-12-08T17:10:45Z</time>
      </trkpt>
      <trkpt lat="45.06863" lon="6.04288">
        <ele>957.6</ele>
        <time>2018-12-08T17:10:47Z</time>
      </trkpt>
      <trkpt lat="45.06859" lon="6.04287">
        <ele>958.1</ele>
        <time>2018-12-08T17:10:49Z</time>
      </trkpt>
      <trkpt lat="45.06855" lon="6.04286">
        <ele>958.6</ele>
        <time>2018-12-08T17:10:51Z</time>
      </trkpt>
      <trkpt lat="45.06851" lon="6.04286">
        <ele>959.1</ele>
        <time>2018-12-08T17:10:53Z</time>
      </trkpt>
      <trkpt lat="45.06847" lon="6.04285">
        <ele>959.6</ele>
        <time>2018-12-08T17:10:55Z</time>
      </trkpt>
      <trkpt lat="45.0683" lon="6.04284">
        <ele>961.8</ele>
        <time>2018-12-08T17:10:57Z</time>
      </trkpt>
      <trkpt lat="45.06826" lon="6.04287">
        <ele>962.3</ele>
        <time>2018-12-08T17:10:59Z</time>
      </trkpt>
      <trkpt lat="45.06823" lon="6.04289">
        <ele>962.8</ele>
        <time>2018-12-08T17:11:01Z</time>
      </trkpt>
      <trkpt lat="45.06819" lon="6.04292">
        <ele>963.3</ele>
        <time>2018-12-08T17:11:03Z</time>
      </trkpt>
      <trkpt lat="45.06816" lon="6.04294">
        <ele>963.8</ele>
        <time>2018-12-08T17:11:05Z</time>
      </trkpt>
      <trkpt lat="45.06812" lon="6.04297">
        <ele>964.2</ele>
        <time>2018-12-08T17:11:07Z</time>
      </trkpt>
      <trkpt lat="45.068" lon="6.04306">
        <ele>966</ele>
        <time>2018-12-08T17:11:09Z</time>
      </trkpt>
      <trkpt lat="45.06797" lon="6.04309">
        <ele>966.5</ele>
        <time>2018-12-08T17:11:11Z</time>
      </trkpt>
      <trkpt lat="45.06793" lon="6.04312">
        <ele>967</ele>
        <time>2018-12-08T17:11:13Z</time>
      </trkpt>
      <trkpt lat="45.0679" lon="6.04315">
        <ele>967.5</ele>
        <time>2018-12-08T17:11:15Z</time>
      </trkpt>
      <trkpt lat="45.06787" lon="6.04318">
        <ele>967.9</ele>
        <time>2018-12-08T17:11:17Z</time>
      </trkpt>
      <trkpt lat="45.06783" lon="6.04321">
        <ele>968.4</ele>
        <time>2018-12-08T17:11:19Z</time>
      </trkpt>
      <trkpt lat="45.0678" lon="6.04324">
        <ele>968.9</ele>
        <time>2018-12-08T17:11:21Z</time>
      </trkpt>
      <trkpt lat="45.06777" lon="6.04327">
        <ele>969.4</ele>
        <time>2018-12-08T17:11:23Z</time>
      </trkpt>
      <trkpt lat="45.06773" lon="6.0433">
        <ele>969.9</ele>
        <time>2018-12-08T17:11:25Z</time>
      </trkpt>
      <trkpt lat="45.06758" lon="6.04344">
        <ele>972.3</ele>
        <time>2018-12-08T17:11:27Z</time>
      </trkpt>
      <trkpt lat="45.06754" lon="6.04346">
        <ele>972.9</ele>
        <time>2018-12-08T17:11:29Z</time>
      </trkpt>
      <trkpt lat="45.06751" lon="6.04348">
        <ele>973.4</ele>
        <time>2018-12-08T17:11:31Z</time>
      </trkpt>
      <trkpt lat="45.06748" lon="6.04351">
        <ele>973.9</ele>
        <time>2018-12-08T17:11:33Z</time>
      </trkpt>
      <trkpt lat="45.06745" lon="6.04353">
        <ele>974.5</ele>
        <time>2018-12-08T17:11:35Z</time>
      </trkpt>
      <trkpt lat="45.06741" lon="6.04355">
        <ele>975</ele>
        <time>2018-12-08T17:11:37Z</time>
      </trkpt>
      <trkpt lat="45.06738" lon="6.04358">
        <ele>975.6</ele>
        <time>2018-12-08T17:11:39Z</time>
      </trkpt>
      <trkpt lat="45.06727" lon="6.04368">
        <ele>977.6</ele>
        <time>2018-12-08T17:11:41Z</time>
      </trkpt>
      <trkpt lat="45.06725" lon="6.04372">
        <ele>978.1</ele>
        <time>2018-12-08T17:11:43Z</time>
      </trkpt>
      <trkpt lat="45.06721" lon="6.04382">
        <ele>979.3</ele>
        <time>2018-12-08T17:11:45Z</time>
      </trkpt>
      <trkpt lat="45.06721" lon="6.04387">
        <ele>979.9</ele>
        <time>2018-12-08T17:11:47Z</time>
      </trkpt>
      <trkpt lat="45.06721" lon="6.04395">
        <ele>980.8</ele>
        <time>2018-12-08T17:11:49Z</time>
      </trkpt>
      <trkpt lat="45.06724" lon="6.04398">
        <ele>981.3</ele>
        <time>2018-12-08T17:11:51Z</time>
      </trkpt>
      <trkpt lat="45.06727" lon="6.04402">
        <ele>981.8</ele>
        <time>2018-12-08T17:11:53Z</time>
      </trkpt>
      <trkpt lat="45.06729" lon="6.04405">
        <ele>982.4</ele>
        <time>2018-12-08T17:11:55Z</time>
      </trkpt>
      <trkpt lat="45.06732" lon="6.04408">
        <ele>982.9</ele>
        <time>2018-12-08T17:11:57Z</time>
      </trkpt>
      <trkpt lat="45.0674" lon="6.04418">
        <ele>984.4</ele>
        <time>2018-12-08T17:11:59Z</time>
      </trkpt>
      <trkpt lat="45.06743" lon="6.0442">
        <ele>984.9</ele>
        <time>2018-12-08T17:12:01Z</time>
      </trkpt>
      <trkpt lat="45.06745" lon="6.04423">
        <ele>985.4</ele>
        <time>2018-12-08T17:12:03Z</time>
      </trkpt>
      <trkpt lat="45.06748" lon="6.04426">
        <ele>986</ele>
        <time>2018-12-08T17:12:05Z</time>
      </trkpt>
      <trkpt lat="45.06751" lon="6.04429">
        <ele>986.5</ele>
        <time>2018-12-08T17:12:07Z</time>
      </trkpt>
      <trkpt lat="45.06755" lon="6.04432">
        <ele>987.1</ele>
        <time>2018-12-08T17:12:09Z</time>
      </trkpt>
      <trkpt lat="45.06758" lon="6.04435">
        <ele>987.7</ele>
        <time>2018-12-08T17:12:11Z</time>
      </trkpt>
      <trkpt lat="45.06761" lon="6.04438">
        <ele>988.2</ele>
        <time>2018-12-08T17:12:13Z</time>
      </trkpt>
      <trkpt lat="45.06774" lon="6.04451">
        <ele>990.5</ele>
        <time>2018-12-08T17:12:15Z</time>
      </trkpt>
      <trkpt lat="45.06777" lon="6.04453">
        <ele>990.9</ele>
        <time>2018-12-08T17:12:17Z</time>
      </trkpt>
      <trkpt lat="45.06781" lon="6.04455">
        <ele>991.3</ele>
        <time>2018-12-08T17:12:19Z</time>
      </trkpt>
      <trkpt lat="45.06785" lon="6.04458">
        <ele>991.7</ele>
        <time>2018-12-08T17:12:21Z</time>
      </trkpt>
      <trkpt lat="45.06796" lon="6.04464">
        <ele>992.8</ele>
        <time>2018-12-08T17:12:23Z</time>
      </trkpt>
      <trkpt lat="45.06801" lon="6.04465">
        <ele>993.3</ele>
        <time>2018-12-08T17:12:25Z</time>
      </trkpt>
      <trkpt lat="45.06805" lon="6.04466">
        <ele>993.7</ele>
        <time>2018-12-08T17:12:27Z</time>
      </trkpt>
      <trkpt lat="45.06809" lon="6.04468">
        <ele>994.1</ele>
        <time>2018-12-08T17:12:29Z</time>
      </trkpt>
      <trkpt lat="45.06813" lon="6.04469">
        <ele>994.5</ele>
        <time>2018-12-08T17:12:31Z</time>
      </trkpt>
      <trkpt lat="45.06817" lon="6.0447">
        <ele>994.9</ele>
        <time>2018-12-08T17:12:33Z</time>
      </trkpt>
      <trkpt lat="45.06832" lon="6.04476">
        <ele>996.5</ele>
        <time>2018-12-08T17:12:35Z</time>
      </trkpt>
      <trkpt lat="45.06837" lon="6.04477">
        <ele>996.9</ele>
        <time>2018-12-08T17:12:37Z</time>
      </trkpt>
      <trkpt lat="45.06841" lon="6.04478">
        <ele>997.3</ele>
        <time>2018-12-08T17:12:39Z</time>
      </trkpt>
      <trkpt lat="45.06846" lon="6.0448">
        <ele>997.8</ele>
        <time>2018-12-08T17:12:41Z</time>
      </trkpt>
      <trkpt lat="45.0685" lon="6.04481">
        <ele>998.2</ele>
        <time>2018-12-08T17:12:43Z</time>
      </trkpt>
      <trkpt lat="45.06854" lon="6.04483">
        <ele>998.6</ele>
        <time>2018-12-08T17:12:45Z</time>
      </trkpt>
      <trkpt lat="45.06858" lon="6.04484">
        <ele>999</ele>
        <time>2018-12-08T17:12:47Z</time>
      </trkpt>
      <trkpt lat="45.06862" lon="6.04485">
        <ele>999.4</ele>
        <time>2018-12-08T17:12:49Z</time>
      </trkpt>
      <trkpt lat="45.06866" lon="6.04487">
        <ele>999.9</ele>
        <time>2018-12-08T17:12:51Z</time>
      </trkpt>
      <trkpt lat="45.06885" lon="6.04495">
        <ele>1001.9</ele>
        <time>2018-12-08T17:12:53Z</time>
      </trkpt>
      <trkpt lat="45.06889" lon="6.04499">
        <ele>1002.3</ele>
        <time>2018-12-08T17:12:55Z</time>
      </trkpt>
      <trkpt lat="45.06892" lon="6.04504">
        <ele>1002.8</ele>
        <time>2018-12-08T17:12:57Z</time>
      </trkpt>
      <trkpt lat="45.06895" lon="6.04508">
        <ele>1003.2</ele>
        <time>2018-12-08T17:12:59Z</time>
      </trkpt>
      <trkpt lat="45.06898" lon="6.04513">
        <ele>1003.7</ele>
        <time>2018-12-08T17:13:01Z</time>
      </trkpt>
      <trkpt lat="45.06902" lon="6.04517">
        <ele>1004.2</ele>
        <time>2018-12-08T17:13:03Z</time>
      </trkpt>
      <trkpt lat="45.06905" lon="6.04522">
        <ele>1004.6</ele>
        <time>2018-12-08T17:13:05Z</time>
      </trkpt>
      <trkpt lat="45.06918" lon="6.0454">
        <ele>1006.6</ele>
        <time>2018-12-08T17:13:07Z</time>
      </trkpt>
      <trkpt lat="45.06923" lon="6.04543">
        <ele>1007</ele>
        <time>2018-12-08T17:13:09Z</time>
      </trkpt>
      <trkpt lat="45.06927" lon="6.04546">
        <ele>1007.5</ele>
        <time>2018-12-08T17:13:11Z</time>
      </trkpt>
      <trkpt lat="45.06931" lon="6.04549">
        <ele>1008</ele>
        <time>2018-12-08T17:13:13Z</time>
      </trkpt>
      <trkpt lat="45.06935" lon="6.04552">
        <ele>1008.5</ele>
        <time>2018-12-08T17:13:15Z</time>
      </trkpt>
      <trkpt lat="45.0694" lon="6.04555">
        <ele>1009</ele>
        <time>2018-12-08T17:13:17Z</time>
      </trkpt>
      <trkpt lat="45.06944" lon="6.04558">
        <ele>1009.5</ele>
        <time>2018-12-08T17:13:19Z</time>
      </trkpt>
      <trkpt lat="45.06961" lon="6.0457">
        <ele>1011.5</ele>
        <time>2018-12-08T17:13:21Z</time>
      </trkpt>
      <trkpt lat="45.06966" lon="6.04572">
        <ele>1012.2</ele>
        <time>2018-12-08T17:13:23Z</time>
      </trkpt>
      <trkpt lat="45.06971" lon="6.04573">
        <ele>1012.8</ele>
        <time>2018-12-08T17:13:25Z</time>
      </trkpt>
      <trkpt lat="45.06975" lon="6.04575">
        <ele>1013.5</ele>
        <time>2018-12-08T17:13:27Z</time>
      </trkpt>
      <trkpt lat="45.06978" lon="6.04576">
        <ele>1013.9</ele>
        <time>2018-12-08T17:13:29Z</time>
      </trkpt>
      <trkpt lat="45.06989" lon="6.0458">
        <ele>1015.5</ele>
        <time>2018-12-08T17:13:31Z</time>
      </trkpt>
      <trkpt lat="45.06991" lon="6.04582">
        <ele>1015.9</ele>
        <time>2018-12-08T17:13:33Z</time>
      </trkpt>
      <trkpt lat="45.06994" lon="6.04585">
        <ele>1016.4</ele>
        <time>2018-12-08T17:13:35Z</time>
      </trkpt>
      <trkpt lat="45.06997" lon="6.04587">
        <ele>1016.9</ele>
        <time>2018-12-08T17:13:37Z</time>
      </trkpt>
      <trkpt lat="45.07" lon="6.0459">
        <ele>1017.4</ele>
        <time>2018-12-08T17:13:39Z</time>
      </trkpt>
      <trkpt lat="45.07003" lon="6.04592">
        <ele>1017.9</ele>
        <time>2018-12-08T17:13:41Z</time>
      </trkpt>
      <trkpt lat="45.07013" lon="6.04602">
        <ele>1019.6</ele>
        <time>2018-12-08T17:13:43Z</time>
      </trkpt>
      <trkpt lat="45.07016" lon="6.04605">
        <ele>1020.1</ele>
        <time>2018-12-08T17:13:45Z</time>
      </trkpt>
      <trkpt lat="45.07018" lon="6.0461">
        <ele>1020.6</ele>
        <time>2018-12-08T17:13:47Z</time>
      </trkpt>
      <trkpt lat="45.0702" lon="6.04614">
        <ele>1021.2</ele>
        <time>2018-12-08T17:13:49Z</time>
      </trkpt>
      <trkpt lat="45.07023" lon="6.04618">
        <ele>1021.7</ele>
        <time>2018-12-08T17:13:51Z</time>
      </trkpt>
      <trkpt lat="45.07025" lon="6.04621">
        <ele>1022.2</ele>
        <time>2018-12-08T17:13:53Z</time>
      </trkpt>
      <trkpt lat="45.07027" lon="6.04625">
        <ele>1022.7</ele>
        <time>2018-12-08T17:13:55Z</time>
      </trkpt>
      <trkpt lat="45.0703" lon="6.04629">
        <ele>1023.2</ele>
        <time>2018-12-08T17:13:57Z</time>
      </trkpt>
      <trkpt lat="45.07032" lon="6.04633">
        <ele>1023.7</ele>
        <time>2018-12-08T17:13:59Z</time>
      </trkpt>
      <trkpt lat="45.07034" lon="6.04637">
        <ele>1024.2</ele>
        <time>2018-12-08T17:14:01Z</time>
      </trkpt>
      <trkpt lat="45.07037" lon="6.04641">
        <ele>1024.7</ele>
        <time>2018-12-08T17:14:03Z</time>
      </trkpt>
      <trkpt lat="45.07039" lon="6.04645">
        <ele>1025.2</ele>
        <time>2018-12-08T17:14:05Z</time>
      </trkpt>
      <trkpt lat="45.07041" lon="6.04648">
        <ele>1025.7</ele>
        <time>2018-12-08T17:14:07Z</time>
      </trkpt>
      <trkpt lat="45.07043" lon="6.04652">
        <ele>1026.2</ele>
        <time>2018-12-08T17:14:09Z</time>
      </trkpt>
      <trkpt lat="45.07045" lon="6.04656">
        <ele>1026.7</ele>
        <time>2018-12-08T17:14:11Z</time>
      </trkpt>
      <trkpt lat="45.07048" lon="6.0466">
        <ele>1027.2</ele>
        <time>2018-12-08T17:14:13Z</time>
      </trkpt>
      <trkpt lat="45.0705" lon="6.04664">
        <ele>1027.7</ele>
        <time>2018-12-08T17:14:15Z</time>
      </trkpt>
      <trkpt lat="45.07069" lon="6.04695">
        <ele>1031.8</ele>
        <time>2018-12-08T17:14:17Z</time>
      </trkpt>
      <trkpt lat="45.07072" lon="6.04698">
        <ele>1032.1</ele>
        <time>2018-12-08T17:14:19Z</time>
      </trkpt>
      <trkpt lat="45.07075" lon="6.04701">
        <ele>1032.5</ele>
        <time>2018-12-08T17:14:21Z</time>
      </trkpt>
      <trkpt lat="45.07078" lon="6.04704">
        <ele>1032.9</ele>
        <time>2018-12-08T17:14:23Z</time>
      </trkpt>
      <trkpt lat="45.07082" lon="6.04707">
        <ele>1033.3</ele>
        <time>2018-12-08T17:14:25Z</time>
      </trkpt>
      <trkpt lat="45.07085" lon="6.0471">
        <ele>1033.8</ele>
        <time>2018-12-08T17:14:27Z</time>
      </trkpt>
      <trkpt lat="45.07089" lon="6.04714">
        <ele>1034.2</ele>
        <time>2018-12-08T17:14:29Z</time>
      </trkpt>
      <trkpt lat="45.07092" lon="6.04717">
        <ele>1034.7</ele>
        <time>2018-12-08T17:14:31Z</time>
      </trkpt>
      <trkpt lat="45.07096" lon="6.0472">
        <ele>1035.1</ele>
        <time>2018-12-08T17:14:33Z</time>
      </trkpt>
      <trkpt lat="45.07099" lon="6.04724">
        <ele>1035.5</ele>
        <time>2018-12-08T17:14:35Z</time>
      </trkpt>
      <trkpt lat="45.07103" lon="6.04727">
        <ele>1036</ele>
        <time>2018-12-08T17:14:37Z</time>
      </trkpt>
      <trkpt lat="45.07106" lon="6.04731">
        <ele>1036.4</ele>
        <time>2018-12-08T17:14:39Z</time>
      </trkpt>
      <trkpt lat="45.0711" lon="6.04734">
        <ele>1036.9</ele>
        <time>2018-12-08T17:14:41Z</time>
      </trkpt>
      <trkpt lat="45.07113" lon="6.04737">
        <ele>1037.3</ele>
        <time>2018-12-08T17:14:43Z</time>
      </trkpt>
      <trkpt lat="45.07117" lon="6.04741">
        <ele>1037.8</ele>
        <time>2018-12-08T17:14:45Z</time>
      </trkpt>
      <trkpt lat="45.07121" lon="6.04744">
        <ele>1038.2</ele>
        <time>2018-12-08T17:14:47Z</time>
      </trkpt>
      <trkpt lat="45.07124" lon="6.04748">
        <ele>1038.6</ele>
        <time>2018-12-08T17:14:49Z</time>
      </trkpt>
      <trkpt lat="45.07128" lon="6.04751">
        <ele>1039.1</ele>
        <time>2018-12-08T17:14:51Z</time>
      </trkpt>
      <trkpt lat="45.07156" lon="6.04779">
        <ele>1042.7</ele>
        <time>2018-12-08T17:14:53Z</time>
      </trkpt>
      <trkpt lat="45.0716" lon="6.04783">
        <ele>1043.1</ele>
        <time>2018-12-08T17:14:55Z</time>
      </trkpt>
      <trkpt lat="45.07163" lon="6.04787">
        <ele>1043.6</ele>
        <time>2018-12-08T17:14:57Z</time>
      </trkpt>
      <trkpt lat="45.07166" lon="6.04791">
        <ele>1044</ele>
        <time>2018-12-08T17:14:59Z</time>
      </trkpt>
      <trkpt lat="45.07169" lon="6.04796">
        <ele>1044.5</ele>
        <time>2018-12-08T17:15:01Z</time>
      </trkpt>
      <trkpt lat="45.07173" lon="6.048">
        <ele>1045</ele>
        <time>2018-12-08T17:15:03Z</time>
      </trkpt>
      <trkpt lat="45.07185" lon="6.04814">
        <ele>1046.6</ele>
        <time>2018-12-08T17:15:05Z</time>
      </trkpt>
      <trkpt lat="45.07189" lon="6.04813">
        <ele>1046.8</ele>
        <time>2018-12-08T17:15:07Z</time>
      </trkpt>
      <trkpt lat="45.07197" lon="6.04808">
        <ele>1047.2</ele>
        <time>2018-12-08T17:15:09Z</time>
      </trkpt>
      <trkpt lat="45.07195" lon="6.048">
        <ele>1047.5</ele>
        <time>2018-12-08T17:15:11Z</time>
      </trkpt>
      <trkpt lat="45.0719" lon="6.04787">
        <ele>1048</ele>
        <time>2018-12-08T17:15:13Z</time>
      </trkpt>
      <trkpt lat="45.07184" lon="6.04782">
        <ele>1048.3</ele>
        <time>2018-12-08T17:15:15Z</time>
      </trkpt>
      <trkpt lat="45.07171" lon="6.04772">
        <ele>1048.9</ele>
        <time>2018-12-08T17:15:17Z</time>
      </trkpt>
      <trkpt lat="45.07166" lon="6.04765">
        <ele>1049.3</ele>
        <time>2018-12-08T17:15:19Z</time>
      </trkpt>
      <trkpt lat="45.0716" lon="6.04757">
        <ele>1049.6</ele>
        <time>2018-12-08T17:15:21Z</time>
      </trkpt>
      <trkpt lat="45.07155" lon="6.0475">
        <ele>1049.9</ele>
        <time>2018-12-08T17:15:23Z</time>
      </trkpt>
      <trkpt lat="45.07149" lon="6.04743">
        <ele>1050.3</ele>
        <time>2018-12-08T17:15:25Z</time>
      </trkpt>
      <trkpt lat="45.07144" lon="6.04736">
        <ele>1050.6</ele>
        <time>2018-12-08T17:15:27Z</time>
      </trkpt>
      <trkpt lat="45.07126" lon="6.04711">
        <ele>1051.6</ele>
        <time>2018-12-08T17:15:29Z</time>
      </trkpt>
      <trkpt lat="45.07122" lon="6.04702">
        <ele>1051.8</ele>
        <time>2018-12-08T17:15:31Z</time>
      </trkpt>
      <trkpt lat="45.07118" lon="6.04691">
        <ele>1052</ele>
        <time>2018-12-08T17:15:33Z</time>
      </trkpt>
      <trkpt lat="45.07113" lon="6.0468">
        <ele>1052.2</ele>
        <time>2018-12-08T17:15:35Z</time>
      </trkpt>
      <trkpt lat="45.07107" lon="6.04652">
        <ele>1052.7</ele>
        <time>2018-12-08T17:15:37Z</time>
      </trkpt>
      <trkpt lat="45.07107" lon="6.0464">
        <ele>1052.9</ele>
        <time>2018-12-08T17:15:39Z</time>
      </trkpt>
      <trkpt lat="45.07108" lon="6.04626">
        <ele>1053.1</ele>
        <time>2018-12-08T17:15:41Z</time>
      </trkpt>
      <trkpt lat="45.07108" lon="6.04614">
        <ele>1053.3</ele>
        <time>2018-12-08T17:15:43Z</time>
      </trkpt>
      <trkpt lat="45.07108" lon="6.04601">
        <ele>1053.5</ele>
        <time>2018-12-08T17:15:45Z</time>
      </trkpt>
      <trkpt lat="45.07109" lon="6.04588">
        <ele>1053.7</ele>
        <time>2018-12-08T17:15:47Z</time>
      </trkpt>
      <trkpt lat="45.07109" lon="6.04574">
        <ele>1053.9</ele>
        <time>2018-12-08T17:15:49Z</time>
      </trkpt>
      <trkpt lat="45.0711" lon="6.04561">
        <ele>1054.1</ele>
        <time>2018-12-08T17:15:51Z</time>
      </trkpt>
      <trkpt lat="45.0711" lon="6.04501">
        <ele>1055.3</ele>
        <time>2018-12-08T17:15:53Z</time>
      </trkpt>
      <trkpt lat="45.07106" lon="6.04482">
        <ele>1056.4</ele>
        <time>2018-12-08T17:15:55Z</time>
      </trkpt>
      <trkpt lat="45.07101" lon="6.04472">
        <ele>1057.1</ele>
        <time>2018-12-08T17:15:57Z</time>
      </trkpt>
      <trkpt lat="45.07097" lon="6.04464">
        <ele>1057.6</ele>
        <time>2018-12-08T17:15:59Z</time>
      </trkpt>
      <trkpt lat="45.0709" lon="6.04446">
        <ele>1058.8</ele>
        <time>2018-12-08T17:16:01Z</time>
      </trkpt>
      <trkpt lat="45.07092" lon="6.04435">
        <ele>1059.4</ele>
        <time>2018-12-08T17:16:03Z</time>
      </trkpt>
      <trkpt lat="45.07096" lon="6.04429">
        <ele>1060</ele>
        <time>2018-12-08T17:16:05Z</time>
      </trkpt>
      <trkpt lat="45.07101" lon="6.0443">
        <ele>1060.4</ele>
        <time>2018-12-08T17:16:07Z</time>
      </trkpt>
      <trkpt lat="45.07109" lon="6.04436">
        <ele>1061.2</ele>
        <time>2018-12-08T17:16:09Z</time>
      </trkpt>
      <trkpt lat="45.07111" lon="6.04443">
        <ele>1061.6</ele>
        <time>2018-12-08T17:16:11Z</time>
      </trkpt>
      <trkpt lat="45.07114" lon="6.04449">
        <ele>1062.1</ele>
        <time>2018-12-08T17:16:13Z</time>
      </trkpt>
      <trkpt lat="45.07118" lon="6.04456">
        <ele>1062.5</ele>
        <time>2018-12-08T17:16:15Z</time>
      </trkpt>
      <trkpt lat="45.07121" lon="6.04463">
        <ele>1063</ele>
        <time>2018-12-08T17:16:17Z</time>
      </trkpt>
      <trkpt lat="45.07129" lon="6.04484">
        <ele>1064.6</ele>
        <time>2018-12-08T17:16:19Z</time>
      </trkpt>
      <trkpt lat="45.07131" lon="6.04492">
        <ele>1065.5</ele>
        <time>2018-12-08T17:16:21Z</time>
      </trkpt>
      <trkpt lat="45.07132" lon="6.04496">
        <ele>1065.9</ele>
        <time>2018-12-08T17:16:23Z</time>
      </trkpt>
      <trkpt lat="45.07133" lon="6.045">
        <ele>1066.4</ele>
        <time>2018-12-08T17:16:25Z</time>
      </trkpt>
      <trkpt lat="45.07133" lon="6.04505">
        <ele>1066.9</ele>
        <time>2018-12-08T17:16:27Z</time>
      </trkpt>
      <trkpt lat="45.07134" lon="6.04509">
        <ele>1067.4</ele>
        <time>2018-12-08T17:16:29Z</time>
      </trkpt>
      <trkpt lat="45.07135" lon="6.04514">
        <ele>1067.9</ele>
        <time>2018-12-08T17:16:31Z</time>
      </trkpt>
      <trkpt lat="45.07136" lon="6.04518">
        <ele>1068.3</ele>
        <time>2018-12-08T17:16:33Z</time>
      </trkpt>
      <trkpt lat="45.07137" lon="6.04522">
        <ele>1068.8</ele>
        <time>2018-12-08T17:16:35Z</time>
      </trkpt>
      <trkpt lat="45.07138" lon="6.04527">
        <ele>1069.3</ele>
        <time>2018-12-08T17:16:37Z</time>
      </trkpt>
      <trkpt lat="45.07139" lon="6.04532">
        <ele>1069.9</ele>
        <time>2018-12-08T17:16:39Z</time>
      </trkpt>
      <trkpt lat="45.0714" lon="6.04536">
        <ele>1070.3</ele>
        <time>2018-12-08T17:16:41Z</time>
      </trkpt>
      <trkpt lat="45.07141" lon="6.04541">
        <ele>1070.9</ele>
        <time>2018-12-08T17:16:43Z</time>
      </trkpt>
      <trkpt lat="45.07142" lon="6.04546">
        <ele>1071.4</ele>
        <time>2018-12-08T17:16:45Z</time>
      </trkpt>
      <trkpt lat="45.07143" lon="6.0455">
        <ele>1071.9</ele>
        <time>2018-12-08T17:16:47Z</time>
      </trkpt>
      <trkpt lat="45.07144" lon="6.04555">
        <ele>1072.5</ele>
        <time>2018-12-08T17:16:49Z</time>
      </trkpt>
      <trkpt lat="45.07145" lon="6.0456">
        <ele>1073</ele>
        <time>2018-12-08T17:16:51Z</time>
      </trkpt>
      <trkpt lat="45.07146" lon="6.04565">
        <ele>1073.5</ele>
        <time>2018-12-08T17:16:53Z</time>
      </trkpt>
      <trkpt lat="45.07154" lon="6.04605">
        <ele>1078</ele>
        <time>2018-12-08T17:16:55Z</time>
      </trkpt>
      <trkpt lat="45.07156" lon="6.0461">
        <ele>1078.5</ele>
        <time>2018-12-08T17:16:57Z</time>
      </trkpt>
      <trkpt lat="45.07157" lon="6.04614">
        <ele>1079.1</ele>
        <time>2018-12-08T17:16:59Z</time>
      </trkpt>
      <trkpt lat="45.07159" lon="6.04618">
        <ele>1079.6</ele>
        <time>2018-12-08T17:17:01Z</time>
      </trkpt>
      <trkpt lat="45.0716" lon="6.04623">
        <ele>1080.1</ele>
        <time>2018-12-08T17:17:03Z</time>
      </trkpt>
      <trkpt lat="45.07162" lon="6.04627">
        <ele>1080.6</ele>
        <time>2018-12-08T17:17:05Z</time>
      </trkpt>
      <trkpt lat="45.07163" lon="6.04631">
        <ele>1081.1</ele>
        <time>2018-12-08T17:17:07Z</time>
      </trkpt>
      <trkpt lat="45.07169" lon="6.04646">
        <ele>1082.7</ele>
        <time>2018-12-08T17:17:09Z</time>
      </trkpt>
      <trkpt lat="45.07172" lon="6.0465">
        <ele>1083</ele>
        <time>2018-12-08T17:17:11Z</time>
      </trkpt>
      <trkpt lat="45.07175" lon="6.04655">
        <ele>1083.4</ele>
        <time>2018-12-08T17:17:13Z</time>
      </trkpt>
      <trkpt lat="45.07179" lon="6.0466">
        <ele>1083.8</ele>
        <time>2018-12-08T17:17:15Z</time>
      </trkpt>
      <trkpt lat="45.07182" lon="6.04665">
        <ele>1084.1</ele>
        <time>2018-12-08T17:17:17Z</time>
      </trkpt>
      <trkpt lat="45.07185" lon="6.0467">
        <ele>1084.5</ele>
        <time>2018-12-08T17:17:19Z</time>
      </trkpt>
      <trkpt lat="45.07197" lon="6.04685">
        <ele>1085.8</ele>
        <time>2018-12-08T17:17:21Z</time>
      </trkpt>
      <trkpt lat="45.07202" lon="6.04689">
        <ele>1086.2</ele>
        <time>2018-12-08T17:17:23Z</time>
      </trkpt>
      <trkpt lat="45.07206" lon="6.04694">
        <ele>1086.7</ele>
        <time>2018-12-08T17:17:25Z</time>
      </trkpt>
      <trkpt lat="45.07211" lon="6.04698">
        <ele>1087.1</ele>
        <time>2018-12-08T17:17:27Z</time>
      </trkpt>
      <trkpt lat="45.07216" lon="6.04702">
        <ele>1087.6</ele>
        <time>2018-12-08T17:17:29Z</time>
      </trkpt>
      <trkpt lat="45.07231" lon="6.04715">
        <ele>1088.9</ele>
        <time>2018-12-08T17:17:31Z</time>
      </trkpt>
      <trkpt lat="45.07236" lon="6.04719">
        <ele>1089.4</ele>
        <time>2018-12-08T17:17:33Z</time>
      </trkpt>
      <trkpt lat="45.07241" lon="6.04723">
        <ele>1089.9</ele>
        <time>2018-12-08T17:17:35Z</time>
      </trkpt>
      <trkpt lat="45.07246" lon="6.04727">
        <ele>1090.3</ele>
        <time>2018-12-08T17:17:37Z</time>
      </trkpt>
      <trkpt lat="45.07252" lon="6.04731">
        <ele>1090.8</ele>
        <time>2018-12-08T17:17:39Z</time>
      </trkpt>
      <trkpt lat="45.07257" lon="6.04735">
        <ele>1091.3</ele>
        <time>2018-12-08T17:17:41Z</time>
      </trkpt>
      <trkpt lat="45.07262" lon="6.04739">
        <ele>1091.7</ele>
        <time>2018-12-08T17:17:43Z</time>
      </trkpt>
      <trkpt lat="45.07267" lon="6.04743">
        <ele>1092.2</ele>
        <time>2018-12-08T17:17:45Z</time>
      </trkpt>
      <trkpt lat="45.0729" lon="6.0476">
        <ele>1094.1</ele>
        <time>2018-12-08T17:17:47Z</time>
      </trkpt>
      <trkpt lat="45.07296" lon="6.04761">
        <ele>1094.3</ele>
        <time>2018-12-08T17:17:49Z</time>
      </trkpt>
      <trkpt lat="45.07302" lon="6.04763">
        <ele>1094.5</ele>
        <time>2018-12-08T17:17:51Z</time>
      </trkpt>
      <trkpt lat="45.07309" lon="6.04764">
        <ele>1094.7</ele>
        <time>2018-12-08T17:17:53Z</time>
      </trkpt>
      <trkpt lat="45.07326" lon="6.0477">
        <ele>1095.3</ele>
        <time>2018-12-08T17:17:55Z</time>
      </trkpt>
      <trkpt lat="45.07333" lon="6.04773">
        <ele>1095.6</ele>
        <time>2018-12-08T17:17:57Z</time>
      </trkpt>
      <trkpt lat="45.07348" lon="6.04781">
        <ele>1096.1</ele>
        <time>2018-12-08T17:17:59Z</time>
      </trkpt>
      <trkpt lat="45.07352" lon="6.0479">
        <ele>1096.3</ele>
        <time>2018-12-08T17:18:01Z</time>
      </trkpt>
      <trkpt lat="45.07357" lon="6.04805">
        <ele>1096.7</ele>
        <time>2018-12-08T17:18:03Z</time>
      </trkpt>
      <trkpt lat="45.0736" lon="6.04815">
        <ele>1097</ele>
        <time>2018-12-08T17:18:05Z</time>
      </trkpt>
      <trkpt lat="45.07362" lon="6.04826">
        <ele>1097.3</ele>
        <time>2018-12-08T17:18:07Z</time>
      </trkpt>
      <trkpt lat="45.07364" lon="6.04836">
        <ele>1097.5</ele>
        <time>2018-12-08T17:18:09Z</time>
      </trkpt>
      <trkpt lat="45.07368" lon="6.04864">
        <ele>1098.1</ele>
        <time>2018-12-08T17:18:11Z</time>
      </trkpt>
      <trkpt lat="45.07366" lon="6.04875">
        <ele>1098.3</ele>
        <time>2018-12-08T17:18:13Z</time>
      </trkpt>
      <trkpt lat="45.0736" lon="6.04893">
        <ele>1098.6</ele>
        <time>2018-12-08T17:18:15Z</time>
      </trkpt>
      <trkpt lat="45.07354" lon="6.04901">
        <ele>1098.8</ele>
        <time>2018-12-08T17:18:17Z</time>
      </trkpt>
      <trkpt lat="45.07348" lon="6.04909">
        <ele>1099</ele>
        <time>2018-12-08T17:18:19Z</time>
      </trkpt>
      <trkpt lat="45.07337" lon="6.0493">
        <ele>1099.4</ele>
        <time>2018-12-08T17:18:21Z</time>
      </trkpt>
      <trkpt lat="45.07334" lon="6.04941">
        <ele>1099.6</ele>
        <time>2018-12-08T17:18:23Z</time>
      </trkpt>
      <trkpt lat="45.07331" lon="6.04952">
        <ele>1099.8</ele>
        <time>2018-12-08T17:18:25Z</time>
      </trkpt>
      <trkpt lat="45.07324" lon="6.0498">
        <ele>1100.4</ele>
        <time>2018-12-08T17:18:27Z</time>
      </trkpt>
      <trkpt lat="45.07319" lon="6.04989">
        <ele>1101.3</ele>
        <time>2018-12-08T17:18:29Z</time>
      </trkpt>
      <trkpt lat="45.07314" lon="6.04998">
        <ele>1102.1</ele>
        <time>2018-12-08T17:18:31Z</time>
      </trkpt>
      <trkpt lat="45.07309" lon="6.05005">
        <ele>1102.7</ele>
        <time>2018-12-08T17:18:33Z</time>
      </trkpt>
      <trkpt lat="45.07306" lon="6.0501">
        <ele>1103.3</ele>
        <time>2018-12-08T17:18:35Z</time>
      </trkpt>
      <trkpt lat="45.07303" lon="6.05015">
        <ele>1103.8</ele>
        <time>2018-12-08T17:18:37Z</time>
      </trkpt>
      <trkpt lat="45.073" lon="6.0502">
        <ele>1104.2</ele>
        <time>2018-12-08T17:18:39Z</time>
      </trkpt>
      <trkpt lat="45.07297" lon="6.05025">
        <ele>1104.6</ele>
        <time>2018-12-08T17:18:41Z</time>
      </trkpt>
      <trkpt lat="45.07295" lon="6.05029">
        <ele>1105.1</ele>
        <time>2018-12-08T17:18:43Z</time>
      </trkpt>
      <trkpt lat="45.07292" lon="6.05034">
        <ele>1105.5</ele>
        <time>2018-12-08T17:18:45Z</time>
      </trkpt>
      <trkpt lat="45.07289" lon="6.05039">
        <ele>1105.9</ele>
        <time>2018-12-08T17:18:47Z</time>
      </trkpt>
      <trkpt lat="45.07286" lon="6.05043">
        <ele>1106.3</ele>
        <time>2018-12-08T17:18:49Z</time>
      </trkpt>
      <trkpt lat="45.07284" lon="6.05047">
        <ele>1106.7</ele>
        <time>2018-12-08T17:18:51Z</time>
      </trkpt>
      <trkpt lat="45.07281" lon="6.05052">
        <ele>1107.2</ele>
        <time>2018-12-08T17:18:53Z</time>
      </trkpt>
      <trkpt lat="45.07278" lon="6.05057">
        <ele>1107.6</ele>
        <time>2018-12-08T17:18:55Z</time>
      </trkpt>
      <trkpt lat="45.07275" lon="6.05061">
        <ele>1108.1</ele>
        <time>2018-12-08T17:18:57Z</time>
      </trkpt>
      <trkpt lat="45.07273" lon="6.05066">
        <ele>1108.5</ele>
        <time>2018-12-08T17:18:59Z</time>
      </trkpt>
      <trkpt lat="45.07248" lon="6.05109">
        <ele>1112.5</ele>
        <time>2018-12-08T17:19:01Z</time>
      </trkpt>
      <trkpt lat="45.07246" lon="6.05115">
        <ele>1112.9</ele>
        <time>2018-12-08T17:19:03Z</time>
      </trkpt>
      <trkpt lat="45.07246" lon="6.05124">
        <ele>1113.7</ele>
        <time>2018-12-08T17:19:05Z</time>
      </trkpt>
      <trkpt lat="45.0725" lon="6.05126">
        <ele>1114.2</ele>
        <time>2018-12-08T17:19:07Z</time>
      </trkpt>
      <trkpt lat="45.07256" lon="6.05124">
        <ele>1114.9</ele>
        <time>2018-12-08T17:19:09Z</time>
      </trkpt>
      <trkpt lat="45.07262" lon="6.05118">
        <ele>1115.6</ele>
        <time>2018-12-08T17:19:11Z</time>
      </trkpt>
      <trkpt lat="45.07265" lon="6.05112">
        <ele>1116.1</ele>
        <time>2018-12-08T17:19:13Z</time>
      </trkpt>
      <trkpt lat="45.07267" lon="6.05107">
        <ele>1116.5</ele>
        <time>2018-12-08T17:19:15Z</time>
      </trkpt>
      <trkpt lat="45.0727" lon="6.05102">
        <ele>1117</ele>
        <time>2018-12-08T17:19:17Z</time>
      </trkpt>
      <trkpt lat="45.07273" lon="6.05097">
        <ele>1117.4</ele>
        <time>2018-12-08T17:19:19Z</time>
      </trkpt>
      <trkpt lat="45.07281" lon="6.05083">
        <ele>1118.7</ele>
        <time>2018-12-08T17:19:21Z</time>
      </trkpt>
      <trkpt lat="45.07285" lon="6.05079">
        <ele>1119.2</ele>
        <time>2018-12-08T17:19:23Z</time>
      </trkpt>
      <trkpt lat="45.07289" lon="6.05076">
        <ele>1119.6</ele>
        <time>2018-12-08T17:19:25Z</time>
      </trkpt>
      <trkpt lat="45.07293" lon="6.05073">
        <ele>1120.1</ele>
        <time>2018-12-08T17:19:27Z</time>
      </trkpt>
      <trkpt lat="45.07297" lon="6.0507">
        <ele>1120.5</ele>
        <time>2018-12-08T17:19:29Z</time>
      </trkpt>
      <trkpt lat="45.07301" lon="6.05066">
        <ele>1121</ele>
        <time>2018-12-08T17:19:31Z</time>
      </trkpt>
      <trkpt lat="45.07305" lon="6.05063">
        <ele>1121.4</ele>
        <time>2018-12-08T17:19:33Z</time>
      </trkpt>
      <trkpt lat="45.07309" lon="6.0506">
        <ele>1121.9</ele>
        <time>2018-12-08T17:19:35Z</time>
      </trkpt>
      <trkpt lat="45.07313" lon="6.05056">
        <ele>1122.3</ele>
        <time>2018-12-08T17:19:37Z</time>
      </trkpt>
      <trkpt lat="45.07317" lon="6.05053">
        <ele>1122.8</ele>
        <time>2018-12-08T17:19:39Z</time>
      </trkpt>
      <trkpt lat="45.07321" lon="6.05049">
        <ele>1123.2</ele>
        <time>2018-12-08T17:19:41Z</time>
      </trkpt>
      <trkpt lat="45.07325" lon="6.05046">
        <ele>1123.7</ele>
        <time>2018-12-08T17:19:43Z</time>
      </trkpt>
      <trkpt lat="45.07329" lon="6.05043">
        <ele>1124.2</ele>
        <time>2018-12-08T17:19:45Z</time>
      </trkpt>
      <trkpt lat="45.07333" lon="6.05039">
        <ele>1124.6</ele>
        <time>2018-12-08T17:19:47Z</time>
      </trkpt>
      <trkpt lat="45.0736" lon="6.05016">
        <ele>1127.8</ele>
        <time>2018-12-08T17:19:49Z</time>
      </trkpt>
      <trkpt lat="45.07364" lon="6.05011">
        <ele>1128.3</ele>
        <time>2018-12-08T17:19:51Z</time>
      </trkpt>
      <trkpt lat="45.07368" lon="6.05007">
        <ele>1128.7</ele>
        <time>2018-12-08T17:19:53Z</time>
      </trkpt>
      <trkpt lat="45.07371" lon="6.05003">
        <ele>1129.2</ele>
        <time>2018-12-08T17:19:55Z</time>
      </trkpt>
      <trkpt lat="45.07375" lon="6.04998">
        <ele>1129.7</ele>
        <time>2018-12-08T17:19:57Z</time>
      </trkpt>
      <trkpt lat="45.07378" lon="6.04994">
        <ele>1130.1</ele>
        <time>2018-12-08T17:19:59Z</time>
      </trkpt>
      <trkpt lat="45.07382" lon="6.0499">
        <ele>1130.6</ele>
        <time>2018-12-08T17:20:01Z</time>
      </trkpt>
      <trkpt lat="45.07385" lon="6.04985">
        <ele>1131.1</ele>
        <time>2018-12-08T17:20:03Z</time>
      </trkpt>
      <trkpt lat="45.07401" lon="6.04968">
        <ele>1133</ele>
        <time>2018-12-08T17:20:05Z</time>
      </trkpt>
      <trkpt lat="45.07405" lon="6.04966">
        <ele>1133.5</ele>
        <time>2018-12-08T17:20:07Z</time>
      </trkpt>
      <trkpt lat="45.0741" lon="6.04963">
        <ele>1134</ele>
        <time>2018-12-08T17:20:09Z</time>
      </trkpt>
      <trkpt lat="45.07419" lon="6.0496">
        <ele>1135</ele>
        <time>2018-12-08T17:20:11Z</time>
      </trkpt>
      <trkpt lat="45.07424" lon="6.0496">
        <ele>1135.4</ele>
        <time>2018-12-08T17:20:13Z</time>
      </trkpt>
      <trkpt lat="45.07429" lon="6.04959">
        <ele>1135.9</ele>
        <time>2018-12-08T17:20:15Z</time>
      </trkpt>
      <trkpt lat="45.07433" lon="6.04959">
        <ele>1136.3</ele>
        <time>2018-12-08T17:20:17Z</time>
      </trkpt>
      <trkpt lat="45.07437" lon="6.04958">
        <ele>1136.7</ele>
        <time>2018-12-08T17:20:19Z</time>
      </trkpt>
      <trkpt lat="45.07441" lon="6.04958">
        <ele>1137.1</ele>
        <time>2018-12-08T17:20:21Z</time>
      </trkpt>
      <trkpt lat="45.07445" lon="6.04958">
        <ele>1137.5</ele>
        <time>2018-12-08T17:20:23Z</time>
      </trkpt>
      <trkpt lat="45.07462" lon="6.04954">
        <ele>1139.2</ele>
        <time>2018-12-08T17:20:25Z</time>
      </trkpt>
      <trkpt lat="45.07465" lon="6.04951">
        <ele>1139.6</ele>
        <time>2018-12-08T17:20:27Z</time>
      </trkpt>
      <trkpt lat="45.07469" lon="6.04948">
        <ele>1140</ele>
        <time>2018-12-08T17:20:29Z</time>
      </trkpt>
      <trkpt lat="45.07477" lon="6.0494">
        <ele>1141.1</ele>
        <time>2018-12-08T17:20:31Z</time>
      </trkpt>
      <trkpt lat="45.0748" lon="6.0493">
        <ele>1141.8</ele>
        <time>2018-12-08T17:20:33Z</time>
      </trkpt>
      <trkpt lat="45.07482" lon="6.04925">
        <ele>1142.2</ele>
        <time>2018-12-08T17:20:35Z</time>
      </trkpt>
      <trkpt lat="45.07483" lon="6.0492">
        <ele>1142.6</ele>
        <time>2018-12-08T17:20:37Z</time>
      </trkpt>
      <trkpt lat="45.07485" lon="6.04914">
        <ele>1143</ele>
        <time>2018-12-08T17:20:39Z</time>
      </trkpt>
      <trkpt lat="45.07487" lon="6.04908">
        <ele>1143.5</ele>
        <time>2018-12-08T17:20:41Z</time>
      </trkpt>
      <trkpt lat="45.07488" lon="6.04902">
        <ele>1143.9</ele>
        <time>2018-12-08T17:20:43Z</time>
      </trkpt>
      <trkpt lat="45.0749" lon="6.04896">
        <ele>1144.3</ele>
        <time>2018-12-08T17:20:45Z</time>
      </trkpt>
      <trkpt lat="45.07492" lon="6.0489">
        <ele>1144.8</ele>
        <time>2018-12-08T17:20:47Z</time>
      </trkpt>
      <trkpt lat="45.07494" lon="6.04884">
        <ele>1145.2</ele>
        <time>2018-12-08T17:20:49Z</time>
      </trkpt>
      <trkpt lat="45.07502" lon="6.04857">
        <ele>1147.3</ele>
        <time>2018-12-08T17:20:51Z</time>
      </trkpt>
      <trkpt lat="45.07502" lon="6.04851">
        <ele>1147.7</ele>
        <time>2018-12-08T17:20:53Z</time>
      </trkpt>
      <trkpt lat="45.07501" lon="6.04839">
        <ele>1148.6</ele>
        <time>2018-12-08T17:20:55Z</time>
      </trkpt>
      <trkpt lat="45.07499" lon="6.04834">
        <ele>1149</ele>
        <time>2018-12-08T17:20:57Z</time>
      </trkpt>
      <trkpt lat="45.07497" lon="6.04828">
        <ele>1149.5</ele>
        <time>2018-12-08T17:20:59Z</time>
      </trkpt>
      <trkpt lat="45.07495" lon="6.04822">
        <ele>1149.9</ele>
        <time>2018-12-08T17:21:01Z</time>
      </trkpt>
      <trkpt lat="45.07493" lon="6.04816">
        <ele>1150.4</ele>
        <time>2018-12-08T17:21:03Z</time>
      </trkpt>
      <trkpt lat="45.0749" lon="6.04811">
        <ele>1150.8</ele>
        <time>2018-12-08T17:21:05Z</time>
      </trkpt>
      <trkpt lat="45.07488" lon="6.04805">
        <ele>1151.3</ele>
        <time>2018-12-08T17:21:07Z</time>
      </trkpt>
      <trkpt lat="45.07486" lon="6.04799">
        <ele>1151.8</ele>
        <time>2018-12-08T17:21:09Z</time>
      </trkpt>
      <trkpt lat="45.07484" lon="6.04793">
        <ele>1152.2</ele>
        <time>2018-12-08T17:21:11Z</time>
      </trkpt>
      <trkpt lat="45.07478" lon="6.04768">
        <ele>1154.3</ele>
        <time>2018-12-08T17:21:13Z</time>
      </trkpt>
      <trkpt lat="45.07483" lon="6.04763">
        <ele>1155</ele>
        <time>2018-12-08T17:21:15Z</time>
      </trkpt>
      <trkpt lat="45.07488" lon="6.04763">
        <ele>1155.4</ele>
        <time>2018-12-08T17:21:17Z</time>
      </trkpt>
      <trkpt lat="45.07494" lon="6.04768">
        <ele>1156.3</ele>
        <time>2018-12-08T17:21:19Z</time>
      </trkpt>
      <trkpt lat="45.07495" lon="6.04774">
        <ele>1156.7</ele>
        <time>2018-12-08T17:21:21Z</time>
      </trkpt>
      <trkpt lat="45.07496" lon="6.0478">
        <ele>1157.2</ele>
        <time>2018-12-08T17:21:23Z</time>
      </trkpt>
      <trkpt lat="45.07498" lon="6.04786">
        <ele>1157.6</ele>
        <time>2018-12-08T17:21:25Z</time>
      </trkpt>
      <trkpt lat="45.07499" lon="6.04793">
        <ele>1158.1</ele>
        <time>2018-12-08T17:21:27Z</time>
      </trkpt>
      <trkpt lat="45.07503" lon="6.04811">
        <ele>1159.4</ele>
        <time>2018-12-08T17:21:29Z</time>
      </trkpt>
      <trkpt lat="45.07505" lon="6.04817">
        <ele>1159.9</ele>
        <time>2018-12-08T17:21:31Z</time>
      </trkpt>
      <trkpt lat="45.07507" lon="6.04823">
        <ele>1160.4</ele>
        <time>2018-12-08T17:21:33Z</time>
      </trkpt>
      <trkpt lat="45.07509" lon="6.04829">
        <ele>1160.8</ele>
        <time>2018-12-08T17:21:35Z</time>
      </trkpt>
      <trkpt lat="45.07511" lon="6.04835">
        <ele>1161.3</ele>
        <time>2018-12-08T17:21:37Z</time>
      </trkpt>
      <trkpt lat="45.07513" lon="6.04841">
        <ele>1161.7</ele>
        <time>2018-12-08T17:21:39Z</time>
      </trkpt>
      <trkpt lat="45.07515" lon="6.04847">
        <ele>1162.2</ele>
        <time>2018-12-08T17:21:41Z</time>
      </trkpt>
      <trkpt lat="45.07523" lon="6.04872">
        <ele>1164.1</ele>
        <time>2018-12-08T17:21:43Z</time>
      </trkpt>
      <trkpt lat="45.07523" lon="6.04878">
        <ele>1164.6</ele>
        <time>2018-12-08T17:21:45Z</time>
      </trkpt>
      <trkpt lat="45.07523" lon="6.04885">
        <ele>1165</ele>
        <time>2018-12-08T17:21:47Z</time>
      </trkpt>
      <trkpt lat="45.07523" lon="6.04892">
        <ele>1165.5</ele>
        <time>2018-12-08T17:21:49Z</time>
      </trkpt>
      <trkpt lat="45.07523" lon="6.04898">
        <ele>1166</ele>
        <time>2018-12-08T17:21:51Z</time>
      </trkpt>
      <trkpt lat="45.07523" lon="6.04905">
        <ele>1166.4</ele>
        <time>2018-12-08T17:21:53Z</time>
      </trkpt>
      <trkpt lat="45.07523" lon="6.04912">
        <ele>1166.9</ele>
        <time>2018-12-08T17:21:55Z</time>
      </trkpt>
      <trkpt lat="45.07523" lon="6.04918">
        <ele>1167.4</ele>
        <time>2018-12-08T17:21:57Z</time>
      </trkpt>
      <trkpt lat="45.07523" lon="6.04925">
        <ele>1167.8</ele>
        <time>2018-12-08T17:21:59Z</time>
      </trkpt>
      <trkpt lat="45.07523" lon="6.04931">
        <ele>1168.3</ele>
        <time>2018-12-08T17:22:01Z</time>
      </trkpt>
      <trkpt lat="45.07522" lon="6.04964">
        <ele>1170.6</ele>
        <time>2018-12-08T17:22:03Z</time>
      </trkpt>
      <trkpt lat="45.0752" lon="6.0497">
        <ele>1171</ele>
        <time>2018-12-08T17:22:05Z</time>
      </trkpt>
      <trkpt lat="45.07518" lon="6.04976">
        <ele>1171.5</ele>
        <time>2018-12-08T17:22:07Z</time>
      </trkpt>
      <trkpt lat="45.07516" lon="6.04982">
        <ele>1172</ele>
        <time>2018-12-08T17:22:09Z</time>
      </trkpt>
      <trkpt lat="45.0751" lon="6.04999">
        <ele>1173.3</ele>
        <time>2018-12-08T17:22:11Z</time>
      </trkpt>
      <trkpt lat="45.07506" lon="6.05002">
        <ele>1173.8</ele>
        <time>2018-12-08T17:22:13Z</time>
      </trkpt>
      <trkpt lat="45.07501" lon="6.05004">
        <ele>1174.2</ele>
        <time>2018-12-08T17:22:15Z</time>
      </trkpt>
      <trkpt lat="45.07497" lon="6.05007">
        <ele>1174.7</ele>
        <time>2018-12-08T17:22:17Z</time>
      </trkpt>
      <trkpt lat="45.07486" lon="6.05013">
        <ele>1175.8</ele>
        <time>2018-12-08T17:22:19Z</time>
      </trkpt>
      <trkpt lat="45.07482" lon="6.05015">
        <ele>1176.3</ele>
        <time>2018-12-08T17:22:21Z</time>
      </trkpt>
      <trkpt lat="45.07477" lon="6.05016">
        <ele>1176.8</ele>
        <time>2018-12-08T17:22:23Z</time>
      </trkpt>
      <trkpt lat="45.07473" lon="6.05018">
        <ele>1177.2</ele>
        <time>2018-12-08T17:22:25Z</time>
      </trkpt>
      <trkpt lat="45.07468" lon="6.0502">
        <ele>1177.7</ele>
        <time>2018-12-08T17:22:27Z</time>
      </trkpt>
      <trkpt lat="45.07454" lon="6.05025">
        <ele>1179.2</ele>
        <time>2018-12-08T17:22:29Z</time>
      </trkpt>
      <trkpt lat="45.0745" lon="6.05028">
        <ele>1179.6</ele>
        <time>2018-12-08T17:22:31Z</time>
      </trkpt>
      <trkpt lat="45.07445" lon="6.05031">
        <ele>1180.1</ele>
        <time>2018-12-08T17:22:33Z</time>
      </trkpt>
      <trkpt lat="45.07439" lon="6.05039">
        <ele>1180.9</ele>
        <time>2018-12-08T17:22:35Z</time>
      </trkpt>
      <trkpt lat="45.07437" lon="6.05044">
        <ele>1181.4</ele>
        <time>2018-12-08T17:22:37Z</time>
      </trkpt>
      <trkpt lat="45.07434" lon="6.05049">
        <ele>1181.8</ele>
        <time>2018-12-08T17:22:39Z</time>
      </trkpt>
      <trkpt lat="45.07432" lon="6.05055">
        <ele>1182.3</ele>
        <time>2018-12-08T17:22:41Z</time>
      </trkpt>
      <trkpt lat="45.07429" lon="6.0506">
        <ele>1182.8</ele>
        <time>2018-12-08T17:22:43Z</time>
      </trkpt>
      <trkpt lat="45.07427" lon="6.05066">
        <ele>1183.2</ele>
        <time>2018-12-08T17:22:45Z</time>
      </trkpt>
      <trkpt lat="45.07424" lon="6.05071">
        <ele>1183.6</ele>
        <time>2018-12-08T17:22:47Z</time>
      </trkpt>
      <trkpt lat="45.07413" lon="6.05092">
        <ele>1185.5</ele>
        <time>2018-12-08T17:22:49Z</time>
      </trkpt>
      <trkpt lat="45.0741" lon="6.05097">
        <ele>1185.9</ele>
        <time>2018-12-08T17:22:51Z</time>
      </trkpt>
      <trkpt lat="45.07407" lon="6.05101">
        <ele>1186.4</ele>
        <time>2018-12-08T17:22:53Z</time>
      </trkpt>
      <trkpt lat="45.07403" lon="6.05105">
        <ele>1186.8</ele>
        <time>2018-12-08T17:22:55Z</time>
      </trkpt>
      <trkpt lat="45.074" lon="6.0511">
        <ele>1187.3</ele>
        <time>2018-12-08T17:22:57Z</time>
      </trkpt>
      <trkpt lat="45.07396" lon="6.05114">
        <ele>1187.8</ele>
        <time>2018-12-08T17:22:59Z</time>
      </trkpt>
      <trkpt lat="45.07393" lon="6.05119">
        <ele>1188.2</ele>
        <time>2018-12-08T17:23:01Z</time>
      </trkpt>
      <trkpt lat="45.0739" lon="6.05123">
        <ele>1188.7</ele>
        <time>2018-12-08T17:23:03Z</time>
      </trkpt>
      <trkpt lat="45.07386" lon="6.05128">
        <ele>1189.1</ele>
        <time>2018-12-08T17:23:05Z</time>
      </trkpt>
      <trkpt lat="45.07383" lon="6.05132">
        <ele>1189.6</ele>
        <time>2018-12-08T17:23:07Z</time>
      </trkpt>
      <trkpt lat="45.07379" lon="6.05137">
        <ele>1190.1</ele>
        <time>2018-12-08T17:23:09Z</time>
      </trkpt>
      <trkpt lat="45.07359" lon="6.05163">
        <ele>1192.7</ele>
        <time>2018-12-08T17:23:11Z</time>
      </trkpt>
      <trkpt lat="45.07356" lon="6.05166">
        <ele>1193</ele>
        <time>2018-12-08T17:23:13Z</time>
      </trkpt>
      <trkpt lat="45.07351" lon="6.05171">
        <ele>1193.4</ele>
        <time>2018-12-08T17:23:15Z</time>
      </trkpt>
      <trkpt lat="45.07347" lon="6.05175">
        <ele>1193.8</ele>
        <time>2018-12-08T17:23:17Z</time>
      </trkpt>
      <trkpt lat="45.07343" lon="6.05179">
        <ele>1194.1</ele>
        <time>2018-12-08T17:23:19Z</time>
      </trkpt>
      <trkpt lat="45.07339" lon="6.05183">
        <ele>1194.5</ele>
        <time>2018-12-08T17:23:21Z</time>
      </trkpt>
      <trkpt lat="45.07325" lon="6.05199">
        <ele>1195.7</ele>
        <time>2018-12-08T17:23:23Z</time>
      </trkpt>
      <trkpt lat="45.07323" lon="6.05205">
        <ele>1196</ele>
        <time>2018-12-08T17:23:25Z</time>
      </trkpt>
      <trkpt lat="45.07324" lon="6.05215">
        <ele>1196.7</ele>
        <time>2018-12-08T17:23:27Z</time>
      </trkpt>
      <trkpt lat="45.07332" lon="6.05216">
        <ele>1197.2</ele>
        <time>2018-12-08T17:23:29Z</time>
      </trkpt>
      <trkpt lat="45.07336" lon="6.05212">
        <ele>1197.6</ele>
        <time>2018-12-08T17:23:31Z</time>
      </trkpt>
      <trkpt lat="45.07341" lon="6.05207">
        <ele>1198</ele>
        <time>2018-12-08T17:23:33Z</time>
      </trkpt>
      <trkpt lat="45.07346" lon="6.05202">
        <ele>1198.4</ele>
        <time>2018-12-08T17:23:35Z</time>
      </trkpt>
      <trkpt lat="45.0735" lon="6.05198">
        <ele>1198.8</ele>
        <time>2018-12-08T17:23:37Z</time>
      </trkpt>
      <trkpt lat="45.07355" lon="6.05193">
        <ele>1199.2</ele>
        <time>2018-12-08T17:23:39Z</time>
      </trkpt>
      <trkpt lat="45.0736" lon="6.05188">
        <ele>1199.6</ele>
        <time>2018-12-08T17:23:41Z</time>
      </trkpt>
      <trkpt lat="45.07365" lon="6.05183">
        <ele>1200</ele>
        <time>2018-12-08T17:23:43Z</time>
      </trkpt>
      <trkpt lat="45.0737" lon="6.05178">
        <ele>1200.4</ele>
        <time>2018-12-08T17:23:45Z</time>
      </trkpt>
      <trkpt lat="45.07374" lon="6.05174">
        <ele>1200.8</ele>
        <time>2018-12-08T17:23:47Z</time>
      </trkpt>
      <trkpt lat="45.07379" lon="6.05169">
        <ele>1201.2</ele>
        <time>2018-12-08T17:23:49Z</time>
      </trkpt>
      <trkpt lat="45.07384" lon="6.05164">
        <ele>1201.6</ele>
        <time>2018-12-08T17:23:51Z</time>
      </trkpt>
      <trkpt lat="45.07389" lon="6.05159">
        <ele>1202.1</ele>
        <time>2018-12-08T17:23:53Z</time>
      </trkpt>
      <trkpt lat="45.07394" lon="6.05154">
        <ele>1202.5</ele>
        <time>2018-12-08T17:23:55Z</time>
      </trkpt>
      <trkpt lat="45.07399" lon="6.05149">
        <ele>1202.9</ele>
        <time>2018-12-08T17:23:57Z</time>
      </trkpt>
      <trkpt lat="45.07404" lon="6.05144">
        <ele>1203.3</ele>
        <time>2018-12-08T17:23:59Z</time>
      </trkpt>
      <trkpt lat="45.07408" lon="6.0514">
        <ele>1203.7</ele>
        <time>2018-12-08T17:24:01Z</time>
      </trkpt>
      <trkpt lat="45.07447" lon="6.05101">
        <ele>1207</ele>
        <time>2018-12-08T17:24:03Z</time>
      </trkpt>
      <trkpt lat="45.07453" lon="6.05099">
        <ele>1207.4</ele>
        <time>2018-12-08T17:24:05Z</time>
      </trkpt>
      <trkpt lat="45.07458" lon="6.05096">
        <ele>1207.8</ele>
        <time>2018-12-08T17:24:07Z</time>
      </trkpt>
      <trkpt lat="45.07463" lon="6.05093">
        <ele>1208.1</ele>
        <time>2018-12-08T17:24:09Z</time>
      </trkpt>
      <trkpt lat="45.07469" lon="6.0509">
        <ele>1208.6</ele>
        <time>2018-12-08T17:24:11Z</time>
      </trkpt>
      <trkpt lat="45.07474" lon="6.05088">
        <ele>1208.9</ele>
        <time>2018-12-08T17:24:13Z</time>
      </trkpt>
      <trkpt lat="45.07493" lon="6.05079">
        <ele>1210.3</ele>
        <time>2018-12-08T17:24:15Z</time>
      </trkpt>
      <trkpt lat="45.07498" lon="6.05077">
        <ele>1210.7</ele>
        <time>2018-12-08T17:24:17Z</time>
      </trkpt>
      <trkpt lat="45.07504" lon="6.05075">
        <ele>1211.1</ele>
        <time>2018-12-08T17:24:19Z</time>
      </trkpt>
      <trkpt lat="45.0751" lon="6.05073">
        <ele>1211.5</ele>
        <time>2018-12-08T17:24:21Z</time>
      </trkpt>
      <trkpt lat="45.07515" lon="6.0507">
        <ele>1211.9</ele>
        <time>2018-12-08T17:24:23Z</time>
      </trkpt>
      <trkpt lat="45.07521" lon="6.05068">
        <ele>1212.3</ele>
        <time>2018-12-08T17:24:25Z</time>
      </trkpt>
      <trkpt lat="45.07526" lon="6.05066">
        <ele>1212.7</ele>
        <time>2018-12-08T17:24:27Z</time>
      </trkpt>
      <trkpt lat="45.07548" lon="6.05056">
        <ele>1214.2</ele>
        <time>2018-12-08T17:24:29Z</time>
      </trkpt>
      <trkpt lat="45.07553" lon="6.05052">
        <ele>1214.6</ele>
        <time>2018-12-08T17:24:31Z</time>
      </trkpt>
      <trkpt lat="45.07557" lon="6.05048">
        <ele>1214.9</ele>
        <time>2018-12-08T17:24:33Z</time>
      </trkpt>
      <trkpt lat="45.07562" lon="6.05044">
        <ele>1215.2</ele>
        <time>2018-12-08T17:24:35Z</time>
      </trkpt>
      <trkpt lat="45.07566" lon="6.0504">
        <ele>1215.5</ele>
        <time>2018-12-08T17:24:37Z</time>
      </trkpt>
      <trkpt lat="45.07571" lon="6.05035">
        <ele>1215.8</ele>
        <time>2018-12-08T17:24:39Z</time>
      </trkpt>
      <trkpt lat="45.07588" lon="6.05019">
        <ele>1217.1</ele>
        <time>2018-12-08T17:24:41Z</time>
      </trkpt>
      <trkpt lat="45.07591" lon="6.05011">
        <ele>1217.4</ele>
        <time>2018-12-08T17:24:43Z</time>
      </trkpt>
      <trkpt lat="45.07593" lon="6.05004">
        <ele>1217.8</ele>
        <time>2018-12-08T17:24:45Z</time>
      </trkpt>
      <trkpt lat="45.07595" lon="6.04997">
        <ele>1218.1</ele>
        <time>2018-12-08T17:24:47Z</time>
      </trkpt>
      <trkpt lat="45.07598" lon="6.04989">
        <ele>1218.5</ele>
        <time>2018-12-08T17:24:49Z</time>
      </trkpt>
      <trkpt lat="45.076" lon="6.04982">
        <ele>1218.8</ele>
        <time>2018-12-08T17:24:51Z</time>
      </trkpt>
      <trkpt lat="45.07602" lon="6.04977">
        <ele>1219</ele>
        <time>2018-12-08T17:24:53Z</time>
      </trkpt>
      <trkpt lat="45.0761" lon="6.04952">
        <ele>1220.2</ele>
        <time>2018-12-08T17:24:55Z</time>
      </trkpt>
      <trkpt lat="45.07613" lon="6.04946">
        <ele>1220.6</ele>
        <time>2018-12-08T17:24:57Z</time>
      </trkpt>
      <trkpt lat="45.07615" lon="6.0494">
        <ele>1221</ele>
        <time>2018-12-08T17:24:59Z</time>
      </trkpt>
      <trkpt lat="45.07618" lon="6.04934">
        <ele>1221.4</ele>
        <time>2018-12-08T17:25:01Z</time>
      </trkpt>
      <trkpt lat="45.0762" lon="6.04928">
        <ele>1221.7</ele>
        <time>2018-12-08T17:25:03Z</time>
      </trkpt>
      <trkpt lat="45.07623" lon="6.04921">
        <ele>1222.1</ele>
        <time>2018-12-08T17:25:05Z</time>
      </trkpt>
      <trkpt lat="45.07625" lon="6.04915">
        <ele>1222.5</ele>
        <time>2018-12-08T17:25:07Z</time>
      </trkpt>
      <trkpt lat="45.07635" lon="6.0489">
        <ele>1224</ele>
        <time>2018-12-08T17:25:09Z</time>
      </trkpt>
      <trkpt lat="45.07637" lon="6.04884">
        <ele>1224.4</ele>
        <time>2018-12-08T17:25:11Z</time>
      </trkpt>
      <trkpt lat="45.07638" lon="6.04873">
        <ele>1225</ele>
        <time>2018-12-08T17:25:13Z</time>
      </trkpt>
      <trkpt lat="45.07637" lon="6.04866">
        <ele>1225.4</ele>
        <time>2018-12-08T17:25:15Z</time>
      </trkpt>
      <trkpt lat="45.07636" lon="6.04859">
        <ele>1225.7</ele>
        <time>2018-12-08T17:25:17Z</time>
      </trkpt>
      <trkpt lat="45.07634" lon="6.04852">
        <ele>1226.1</ele>
        <time>2018-12-08T17:25:19Z</time>
      </trkpt>
      <trkpt lat="45.07633" lon="6.04845">
        <ele>1226.5</ele>
        <time>2018-12-08T17:25:21Z</time>
      </trkpt>
      <trkpt lat="45.07632" lon="6.04838">
        <ele>1226.9</ele>
        <time>2018-12-08T17:25:23Z</time>
      </trkpt>
      <trkpt lat="45.07631" lon="6.04831">
        <ele>1227.3</ele>
        <time>2018-12-08T17:25:25Z</time>
      </trkpt>
      <trkpt lat="45.07626" lon="6.04801">
        <ele>1228.9</ele>
        <time>2018-12-08T17:25:27Z</time>
      </trkpt>
      <trkpt lat="45.07629" lon="6.04794">
        <ele>1229.7</ele>
        <time>2018-12-08T17:25:29Z</time>
      </trkpt>
      <trkpt lat="45.0763" lon="6.04788">
        <ele>1230.4</ele>
        <time>2018-12-08T17:25:31Z</time>
      </trkpt>
      <trkpt lat="45.07632" lon="6.04784">
        <ele>1230.9</ele>
        <time>2018-12-08T17:25:33Z</time>
      </trkpt>
      <trkpt lat="45.07634" lon="6.04779">
        <ele>1231.4</ele>
        <time>2018-12-08T17:25:35Z</time>
      </trkpt>
      <trkpt lat="45.07635" lon="6.04774">
        <ele>1232</ele>
        <time>2018-12-08T17:25:37Z</time>
      </trkpt>
      <trkpt lat="45.07637" lon="6.04768">
        <ele>1232.6</ele>
        <time>2018-12-08T17:25:39Z</time>
      </trkpt>
      <trkpt lat="45.07639" lon="6.04764">
        <ele>1233.1</ele>
        <time>2018-12-08T17:25:41Z</time>
      </trkpt>
      <trkpt lat="45.0764" lon="6.04759">
        <ele>1233.6</ele>
        <time>2018-12-08T17:25:43Z</time>
      </trkpt>
      <trkpt lat="45.07648" lon="6.04737">
        <ele>1236.2</ele>
        <time>2018-12-08T17:25:45Z</time>
      </trkpt>
      <trkpt lat="45.07651" lon="6.04734">
        <ele>1236.7</ele>
        <time>2018-12-08T17:25:47Z</time>
      </trkpt>
      <trkpt lat="45.07656" lon="6.04729">
        <ele>1237.7</ele>
        <time>2018-12-08T17:25:49Z</time>
      </trkpt>
      <trkpt lat="45.0766" lon="6.04731">
        <ele>1238.2</ele>
        <time>2018-12-08T17:25:51Z</time>
      </trkpt>
      <trkpt lat="45.07665" lon="6.04734">
        <ele>1239.1</ele>
        <time>2018-12-08T17:25:53Z</time>
      </trkpt>
      <trkpt lat="45.07667" lon="6.04739">
        <ele>1239.6</ele>
        <time>2018-12-08T17:25:55Z</time>
      </trkpt>
      <trkpt lat="45.07669" lon="6.04747">
        <ele>1240.5</ele>
        <time>2018-12-08T17:25:57Z</time>
      </trkpt>
      <trkpt lat="45.07667" lon="6.04751">
        <ele>1241</ele>
        <time>2018-12-08T17:25:59Z</time>
      </trkpt>
      <trkpt lat="45.07665" lon="6.04756">
        <ele>1241.6</ele>
        <time>2018-12-08T17:26:01Z</time>
      </trkpt>
      <trkpt lat="45.07663" lon="6.0476">
        <ele>1242.1</ele>
        <time>2018-12-08T17:26:03Z</time>
      </trkpt>
      <trkpt lat="45.07661" lon="6.04764">
        <ele>1242.6</ele>
        <time>2018-12-08T17:26:05Z</time>
      </trkpt>
      <trkpt lat="45.07659" lon="6.04769">
        <ele>1243.1</ele>
        <time>2018-12-08T17:26:07Z</time>
      </trkpt>
      <trkpt lat="45.07657" lon="6.04773">
        <ele>1243.6</ele>
        <time>2018-12-08T17:26:09Z</time>
      </trkpt>
      <trkpt lat="45.07655" lon="6.04777">
        <ele>1244.1</ele>
        <time>2018-12-08T17:26:11Z</time>
      </trkpt>
      <trkpt lat="45.07648" lon="6.04795">
        <ele>1246.3</ele>
        <time>2018-12-08T17:26:13Z</time>
      </trkpt>
      <trkpt lat="45.07648" lon="6.04801">
        <ele>1246.8</ele>
        <time>2018-12-08T17:26:15Z</time>
      </trkpt>
      <trkpt lat="45.07649" lon="6.04809">
        <ele>1247.6</ele>
        <time>2018-12-08T17:26:17Z</time>
      </trkpt>
      <trkpt lat="45.0765" lon="6.04814">
        <ele>1248.1</ele>
        <time>2018-12-08T17:26:19Z</time>
      </trkpt>
      <trkpt lat="45.07652" lon="6.04819">
        <ele>1248.6</ele>
        <time>2018-12-08T17:26:21Z</time>
      </trkpt>
      <trkpt lat="45.07654" lon="6.04824">
        <ele>1249.1</ele>
        <time>2018-12-08T17:26:23Z</time>
      </trkpt>
      <trkpt lat="45.07656" lon="6.04829">
        <ele>1249.6</ele>
        <time>2018-12-08T17:26:25Z</time>
      </trkpt>
      <trkpt lat="45.07657" lon="6.04834">
        <ele>1250.2</ele>
        <time>2018-12-08T17:26:27Z</time>
      </trkpt>
      <trkpt lat="45.07659" lon="6.04837">
        <ele>1250.6</ele>
        <time>2018-12-08T17:26:29Z</time>
      </trkpt>
      <trkpt lat="45.0766" lon="6.04841">
        <ele>1251</ele>
        <time>2018-12-08T17:26:31Z</time>
      </trkpt>
      <trkpt lat="45.07662" lon="6.04846">
        <ele>1251.4</ele>
        <time>2018-12-08T17:26:33Z</time>
      </trkpt>
      <trkpt lat="45.07669" lon="6.04867">
        <ele>1253.7</ele>
        <time>2018-12-08T17:26:35Z</time>
      </trkpt>
      <trkpt lat="45.0767" lon="6.04872">
        <ele>1254.1</ele>
        <time>2018-12-08T17:26:37Z</time>
      </trkpt>
      <trkpt lat="45.0767" lon="6.04877">
        <ele>1254.5</ele>
        <time>2018-12-08T17:26:39Z</time>
      </trkpt>
      <trkpt lat="45.0767" lon="6.04881">
        <ele>1255</ele>
        <time>2018-12-08T17:26:41Z</time>
      </trkpt>
      <trkpt lat="45.07671" lon="6.04886">
        <ele>1255.4</ele>
        <time>2018-12-08T17:26:43Z</time>
      </trkpt>
      <trkpt lat="45.07671" lon="6.0489">
        <ele>1255.8</ele>
        <time>2018-12-08T17:26:45Z</time>
      </trkpt>
      <trkpt lat="45.07672" lon="6.04895">
        <ele>1256.3</ele>
        <time>2018-12-08T17:26:47Z</time>
      </trkpt>
      <trkpt lat="45.07673" lon="6.04913">
        <ele>1258</ele>
        <time>2018-12-08T17:26:49Z</time>
      </trkpt>
      <trkpt lat="45.07672" lon="6.04917">
        <ele>1258.3</ele>
        <time>2018-12-08T17:26:51Z</time>
      </trkpt>
      <trkpt lat="45.07672" lon="6.04922">
        <ele>1258.8</ele>
        <time>2018-12-08T17:26:53Z</time>
      </trkpt>
      <trkpt lat="45.07671" lon="6.04927">
        <ele>1259.2</ele>
        <time>2018-12-08T17:26:55Z</time>
      </trkpt>
      <trkpt lat="45.07671" lon="6.04932">
        <ele>1259.7</ele>
        <time>2018-12-08T17:26:57Z</time>
      </trkpt>
      <trkpt lat="45.0767" lon="6.04937">
        <ele>1260.2</ele>
        <time>2018-12-08T17:26:59Z</time>
      </trkpt>
      <trkpt lat="45.07668" lon="6.04954">
        <ele>1261.9</ele>
        <time>2018-12-08T17:27:01Z</time>
      </trkpt>
      <trkpt lat="45.07667" lon="6.04959">
        <ele>1262.4</ele>
        <time>2018-12-08T17:27:03Z</time>
      </trkpt>
      <trkpt lat="45.07666" lon="6.04964">
        <ele>1262.9</ele>
        <time>2018-12-08T17:27:05Z</time>
      </trkpt>
      <trkpt lat="45.07665" lon="6.04968">
        <ele>1263.4</ele>
        <time>2018-12-08T17:27:07Z</time>
      </trkpt>
      <trkpt lat="45.07663" lon="6.04973">
        <ele>1263.9</ele>
        <time>2018-12-08T17:27:09Z</time>
      </trkpt>
      <trkpt lat="45.07662" lon="6.04978">
        <ele>1264.4</ele>
        <time>2018-12-08T17:27:11Z</time>
      </trkpt>
      <trkpt lat="45.07661" lon="6.04983">
        <ele>1265</ele>
        <time>2018-12-08T17:27:13Z</time>
      </trkpt>
      <trkpt lat="45.07659" lon="6.04988">
        <ele>1265.5</ele>
        <time>2018-12-08T17:27:15Z</time>
      </trkpt>
      <trkpt lat="45.07658" lon="6.04993">
        <ele>1266</ele>
        <time>2018-12-08T17:27:17Z</time>
      </trkpt>
      <trkpt lat="45.07652" lon="6.05016">
        <ele>1268.6</ele>
        <time>2018-12-08T17:27:19Z</time>
      </trkpt>
      <trkpt lat="45.07652" lon="6.05022">
        <ele>1269.1</ele>
        <time>2018-12-08T17:27:21Z</time>
      </trkpt>
      <trkpt lat="45.07652" lon="6.05027">
        <ele>1269.6</ele>
        <time>2018-12-08T17:27:23Z</time>
      </trkpt>
      <trkpt lat="45.07652" lon="6.05032">
        <ele>1270.1</ele>
        <time>2018-12-08T17:27:25Z</time>
      </trkpt>
      <trkpt lat="45.07652" lon="6.05037">
        <ele>1270.6</ele>
        <time>2018-12-08T17:27:27Z</time>
      </trkpt>
      <trkpt lat="45.07652" lon="6.05042">
        <ele>1271.1</ele>
        <time>2018-12-08T17:27:29Z</time>
      </trkpt>
      <trkpt lat="45.07652" lon="6.05059">
        <ele>1272.9</ele>
        <time>2018-12-08T17:27:31Z</time>
      </trkpt>
      <trkpt lat="45.0765" lon="6.05064">
        <ele>1273.4</ele>
        <time>2018-12-08T17:27:33Z</time>
      </trkpt>
      <trkpt lat="45.07648" lon="6.05068">
        <ele>1273.9</ele>
        <time>2018-12-08T17:27:35Z</time>
      </trkpt>
      <trkpt lat="45.07643" lon="6.05077">
        <ele>1275</ele>
        <time>2018-12-08T17:27:37Z</time>
      </trkpt>
      <trkpt lat="45.07642" lon="6.05081">
        <ele>1275.2</ele>
        <time>2018-12-08T17:27:39Z</time>
      </trkpt>
      <trkpt lat="45.07641" lon="6.05086">
        <ele>1275.4</ele>
        <time>2018-12-08T17:27:41Z</time>
      </trkpt>
      <trkpt lat="45.07639" lon="6.05098">
        <ele>1276</ele>
        <time>2018-12-08T17:27:43Z</time>
      </trkpt>
      <trkpt lat="45.07635" lon="6.05103">
        <ele>1276.3</ele>
        <time>2018-12-08T17:27:45Z</time>
      </trkpt>
      <trkpt lat="45.07631" lon="6.05109">
        <ele>1276.7</ele>
        <time>2018-12-08T17:27:47Z</time>
      </trkpt>
      <trkpt lat="45.07627" lon="6.05115">
        <ele>1277.1</ele>
        <time>2018-12-08T17:27:49Z</time>
      </trkpt>
      <trkpt lat="45.07623" lon="6.0512">
        <ele>1277.5</ele>
        <time>2018-12-08T17:27:51Z</time>
      </trkpt>
      <trkpt lat="45.07619" lon="6.05127">
        <ele>1277.9</ele>
        <time>2018-12-08T17:27:53Z</time>
      </trkpt>
      <trkpt lat="45.07615" lon="6.05133">
        <ele>1278.2</ele>
        <time>2018-12-08T17:27:55Z</time>
      </trkpt>
      <trkpt lat="45.07599" lon="6.05155">
        <ele>1279.7</ele>
        <time>2018-12-08T17:27:57Z</time>
      </trkpt>
      <trkpt lat="45.07593" lon="6.05158">
        <ele>1280.1</ele>
        <time>2018-12-08T17:27:59Z</time>
      </trkpt>
      <trkpt lat="45.07588" lon="6.05162">
        <ele>1280.5</ele>
        <time>2018-12-08T17:28:01Z</time>
      </trkpt>
      <trkpt lat="45.07582" lon="6.05166">
        <ele>1280.9</ele>
        <time>2018-12-08T17:28:03Z</time>
      </trkpt>
      <trkpt lat="45.07576" lon="6.0517">
        <ele>1281.3</ele>
        <time>2018-12-08T17:28:05Z</time>
      </trkpt>
      <trkpt lat="45.07571" lon="6.05174">
        <ele>1281.8</ele>
        <time>2018-12-08T17:28:07Z</time>
      </trkpt>
      <trkpt lat="45.07565" lon="6.05179">
        <ele>1282.2</ele>
        <time>2018-12-08T17:28:09Z</time>
      </trkpt>
      <trkpt lat="45.07559" lon="6.05183">
        <ele>1282.6</ele>
        <time>2018-12-08T17:28:11Z</time>
      </trkpt>
      <trkpt lat="45.07553" lon="6.05187">
        <ele>1283</ele>
        <time>2018-12-08T17:28:13Z</time>
      </trkpt>
      <trkpt lat="45.07526" lon="6.05206">
        <ele>1285.1</ele>
        <time>2018-12-08T17:28:15Z</time>
      </trkpt>
      <trkpt lat="45.0752" lon="6.05208">
        <ele>1285.9</ele>
        <time>2018-12-08T17:28:17Z</time>
      </trkpt>
      <trkpt lat="45.07515" lon="6.0521">
        <ele>1286.6</ele>
        <time>2018-12-08T17:28:19Z</time>
      </trkpt>
      <trkpt lat="45.0751" lon="6.05212">
        <ele>1287.2</ele>
        <time>2018-12-08T17:28:21Z</time>
      </trkpt>
      <trkpt lat="45.07506" lon="6.05214">
        <ele>1287.7</ele>
        <time>2018-12-08T17:28:23Z</time>
      </trkpt>
      <trkpt lat="45.07502" lon="6.05215">
        <ele>1288.3</ele>
        <time>2018-12-08T17:28:25Z</time>
      </trkpt>
      <trkpt lat="45.07498" lon="6.05217">
        <ele>1288.7</ele>
        <time>2018-12-08T17:28:27Z</time>
      </trkpt>
      <trkpt lat="45.07484" lon="6.05225">
        <ele>1290.8</ele>
        <time>2018-12-08T17:28:29Z</time>
      </trkpt>
      <trkpt lat="45.07483" lon="6.0523">
        <ele>1291.3</ele>
        <time>2018-12-08T17:28:31Z</time>
      </trkpt>
      <trkpt lat="45.07482" lon="6.05235">
        <ele>1291.8</ele>
        <time>2018-12-08T17:28:33Z</time>
      </trkpt>
      <trkpt lat="45.07482" lon="6.05245">
        <ele>1292.8</ele>
        <time>2018-12-08T17:28:35Z</time>
      </trkpt>
      <trkpt lat="45.07486" lon="6.05247">
        <ele>1293.3</ele>
        <time>2018-12-08T17:28:37Z</time>
      </trkpt>
      <trkpt lat="45.07492" lon="6.05246">
        <ele>1294.1</ele>
        <time>2018-12-08T17:28:39Z</time>
      </trkpt>
      <trkpt lat="45.07495" lon="6.05244">
        <ele>1294.6</ele>
        <time>2018-12-08T17:28:41Z</time>
      </trkpt>
      <trkpt lat="45.07499" lon="6.05241">
        <ele>1295.1</ele>
        <time>2018-12-08T17:28:43Z</time>
      </trkpt>
      <trkpt lat="45.07502" lon="6.05239">
        <ele>1295.6</ele>
        <time>2018-12-08T17:28:45Z</time>
      </trkpt>
      <trkpt lat="45.07506" lon="6.05237">
        <ele>1296</ele>
        <time>2018-12-08T17:28:47Z</time>
      </trkpt>
      <trkpt lat="45.07509" lon="6.05234">
        <ele>1296.5</ele>
        <time>2018-12-08T17:28:49Z</time>
      </trkpt>
      <trkpt lat="45.07513" lon="6.05232">
        <ele>1297</ele>
        <time>2018-12-08T17:28:51Z</time>
      </trkpt>
      <trkpt lat="45.07528" lon="6.05222">
        <ele>1299.1</ele>
        <time>2018-12-08T17:28:53Z</time>
      </trkpt>
      <trkpt lat="45.07531" lon="6.05221">
        <ele>1299.4</ele>
        <time>2018-12-08T17:28:55Z</time>
      </trkpt>
      <trkpt lat="45.07535" lon="6.05219">
        <ele>1299.9</ele>
        <time>2018-12-08T17:28:57Z</time>
      </trkpt>
      <trkpt lat="45.0754" lon="6.05218">
        <ele>1300.3</ele>
        <time>2018-12-08T17:28:59Z</time>
      </trkpt>
      <trkpt lat="45.07544" lon="6.05216">
        <ele>1300.8</ele>
        <time>2018-12-08T17:29:01Z</time>
      </trkpt>
      <trkpt lat="45.07549" lon="6.05214">
        <ele>1301.2</ele>
        <time>2018-12-08T17:29:03Z</time>
      </trkpt>
      <trkpt lat="45.07554" lon="6.05212">
        <ele>1301.7</ele>
        <time>2018-12-08T17:29:05Z</time>
      </trkpt>
      <trkpt lat="45.07558" lon="6.05211">
        <ele>1302.2</ele>
        <time>2018-12-08T17:29:07Z</time>
      </trkpt>
      <trkpt lat="45.07563" lon="6.05209">
        <ele>1302.6</ele>
        <time>2018-12-08T17:29:09Z</time>
      </trkpt>
      <trkpt lat="45.07568" lon="6.05207">
        <ele>1303.1</ele>
        <time>2018-12-08T17:29:11Z</time>
      </trkpt>
      <trkpt lat="45.07573" lon="6.05205">
        <ele>1303.6</ele>
        <time>2018-12-08T17:29:13Z</time>
      </trkpt>
      <trkpt lat="45.07577" lon="6.05204">
        <ele>1304.1</ele>
        <time>2018-12-08T17:29:15Z</time>
      </trkpt>
      <trkpt lat="45.07582" lon="6.05202">
        <ele>1304.5</ele>
        <time>2018-12-08T17:29:17Z</time>
      </trkpt>
      <trkpt lat="45.07587" lon="6.052">
        <ele>1305</ele>
        <time>2018-12-08T17:29:19Z</time>
      </trkpt>
      <trkpt lat="45.07591" lon="6.05198">
        <ele>1305.5</ele>
        <time>2018-12-08T17:29:21Z</time>
      </trkpt>
      <trkpt lat="45.07596" lon="6.05197">
        <ele>1305.9</ele>
        <time>2018-12-08T17:29:23Z</time>
      </trkpt>
      <trkpt lat="45.07601" lon="6.05195">
        <ele>1306.4</ele>
        <time>2018-12-08T17:29:25Z</time>
      </trkpt>
      <trkpt lat="45.07605" lon="6.05193">
        <ele>1306.9</ele>
        <time>2018-12-08T17:29:27Z</time>
      </trkpt>
      <trkpt lat="45.0761" lon="6.05191">
        <ele>1307.4</ele>
        <time>2018-12-08T17:29:29Z</time>
      </trkpt>
      <trkpt lat="45.07615" lon="6.0519">
        <ele>1307.9</ele>
        <time>2018-12-08T17:29:31Z</time>
      </trkpt>
      <trkpt lat="45.0762" lon="6.05188">
        <ele>1308.3</ele>
        <time>2018-12-08T17:29:33Z</time>
      </trkpt>
      <trkpt lat="45.07625" lon="6.05186">
        <ele>1308.8</ele>
        <time>2018-12-08T17:29:35Z</time>
      </trkpt>
      <trkpt lat="45.07629" lon="6.05185">
        <ele>1309.3</ele>
        <time>2018-12-08T17:29:37Z</time>
      </trkpt>
      <trkpt lat="45.07634" lon="6.05183">
        <ele>1309.7</ele>
        <time>2018-12-08T17:29:39Z</time>
      </trkpt>
      <trkpt lat="45.07681" lon="6.05162">
        <ele>1314.6</ele>
        <time>2018-12-08T17:29:41Z</time>
      </trkpt>
      <trkpt lat="45.07684" lon="6.05158">
        <ele>1315.1</ele>
        <time>2018-12-08T17:29:43Z</time>
      </trkpt>
      <trkpt lat="45.07688" lon="6.05153">
        <ele>1315.5</ele>
        <time>2018-12-08T17:29:45Z</time>
      </trkpt>
      <trkpt lat="45.07691" lon="6.05149">
        <ele>1316</ele>
        <time>2018-12-08T17:29:47Z</time>
      </trkpt>
      <trkpt lat="45.07695" lon="6.05144">
        <ele>1316.4</ele>
        <time>2018-12-08T17:29:49Z</time>
      </trkpt>
      <trkpt lat="45.07699" lon="6.05139">
        <ele>1316.9</ele>
        <time>2018-12-08T17:29:51Z</time>
      </trkpt>
      <trkpt lat="45.0771" lon="6.05123">
        <ele>1318.6</ele>
        <time>2018-12-08T17:29:53Z</time>
      </trkpt>
      <trkpt lat="45.07713" lon="6.05118">
        <ele>1319.2</ele>
        <time>2018-12-08T17:29:55Z</time>
      </trkpt>
      <trkpt lat="45.07715" lon="6.05114">
        <ele>1319.7</ele>
        <time>2018-12-08T17:29:57Z</time>
      </trkpt>
      <trkpt lat="45.07718" lon="6.05109">
        <ele>1320.1</ele>
        <time>2018-12-08T17:29:59Z</time>
      </trkpt>
      <trkpt lat="45.0772" lon="6.05105">
        <ele>1320.6</ele>
        <time>2018-12-08T17:30:01Z</time>
      </trkpt>
      <trkpt lat="45.07722" lon="6.05101">
        <ele>1321</ele>
        <time>2018-12-08T17:30:03Z</time>
      </trkpt>
      <trkpt lat="45.07724" lon="6.05097">
        <ele>1321.5</ele>
        <time>2018-12-08T17:30:05Z</time>
      </trkpt>
      <trkpt lat="45.07726" lon="6.05093">
        <ele>1321.9</ele>
        <time>2018-12-08T17:30:07Z</time>
      </trkpt>
      <trkpt lat="45.07729" lon="6.05089">
        <ele>1322.3</ele>
        <time>2018-12-08T17:30:09Z</time>
      </trkpt>
      <trkpt lat="45.07731" lon="6.05085">
        <ele>1322.8</ele>
        <time>2018-12-08T17:30:11Z</time>
      </trkpt>
      <trkpt lat="45.07733" lon="6.05081">
        <ele>1323.3</ele>
        <time>2018-12-08T17:30:13Z</time>
      </trkpt>
      <trkpt lat="45.07736" lon="6.05077">
        <ele>1323.7</ele>
        <time>2018-12-08T17:30:15Z</time>
      </trkpt>
      <trkpt lat="45.07738" lon="6.05072">
        <ele>1324.2</ele>
        <time>2018-12-08T17:30:17Z</time>
      </trkpt>
      <trkpt lat="45.0774" lon="6.05068">
        <ele>1324.7</ele>
        <time>2018-12-08T17:30:19Z</time>
      </trkpt>
      <trkpt lat="45.07743" lon="6.05064">
        <ele>1325.1</ele>
        <time>2018-12-08T17:30:21Z</time>
      </trkpt>
      <trkpt lat="45.07745" lon="6.0506">
        <ele>1325.6</ele>
        <time>2018-12-08T17:30:23Z</time>
      </trkpt>
      <trkpt lat="45.07747" lon="6.05056">
        <ele>1326</ele>
        <time>2018-12-08T17:30:25Z</time>
      </trkpt>
      <trkpt lat="45.07749" lon="6.05052">
        <ele>1326.5</ele>
        <time>2018-12-08T17:30:27Z</time>
      </trkpt>
      <trkpt lat="45.07752" lon="6.05047">
        <ele>1327</ele>
        <time>2018-12-08T17:30:29Z</time>
      </trkpt>
      <trkpt lat="45.07754" lon="6.05043">
        <ele>1327.4</ele>
        <time>2018-12-08T17:30:31Z</time>
      </trkpt>
      <trkpt lat="45.07756" lon="6.05039">
        <ele>1327.9</ele>
        <time>2018-12-08T17:30:33Z</time>
      </trkpt>
      <trkpt lat="45.07759" lon="6.05035">
        <ele>1328.4</ele>
        <time>2018-12-08T17:30:35Z</time>
      </trkpt>
      <trkpt lat="45.07782" lon="6.04992">
        <ele>1333.1</ele>
        <time>2018-12-08T17:30:37Z</time>
      </trkpt>
      <trkpt lat="45.07785" lon="6.04987">
        <ele>1333.6</ele>
        <time>2018-12-08T17:30:39Z</time>
      </trkpt>
      <trkpt lat="45.07787" lon="6.04983">
        <ele>1334</ele>
        <time>2018-12-08T17:30:41Z</time>
      </trkpt>
      <trkpt lat="45.07789" lon="6.04979">
        <ele>1334.5</ele>
        <time>2018-12-08T17:30:43Z</time>
      </trkpt>
      <trkpt lat="45.07792" lon="6.04975">
        <ele>1335</ele>
        <time>2018-12-08T17:30:45Z</time>
      </trkpt>
      <trkpt lat="45.07794" lon="6.0497">
        <ele>1335.5</ele>
        <time>2018-12-08T17:30:47Z</time>
      </trkpt>
      <trkpt lat="45.07802" lon="6.04954">
        <ele>1337.2</ele>
        <time>2018-12-08T17:30:49Z</time>
      </trkpt>
      <trkpt lat="45.07803" lon="6.04949">
        <ele>1337.7</ele>
        <time>2018-12-08T17:30:51Z</time>
      </trkpt>
      <trkpt lat="45.07805" lon="6.04944">
        <ele>1338.1</ele>
        <time>2018-12-08T17:30:53Z</time>
      </trkpt>
      <trkpt lat="45.07806" lon="6.04932">
        <ele>1339.2</ele>
        <time>2018-12-08T17:30:55Z</time>
      </trkpt>
      <trkpt lat="45.07804" lon="6.04927">
        <ele>1339.7</ele>
        <time>2018-12-08T17:30:57Z</time>
      </trkpt>
      <trkpt lat="45.07803" lon="6.04922">
        <ele>1340.1</ele>
        <time>2018-12-08T17:30:59Z</time>
      </trkpt>
      <trkpt lat="45.07801" lon="6.04917">
        <ele>1340.6</ele>
        <time>2018-12-08T17:31:01Z</time>
      </trkpt>
      <trkpt lat="45.078" lon="6.04912">
        <ele>1341.1</ele>
        <time>2018-12-08T17:31:03Z</time>
      </trkpt>
      <trkpt lat="45.07799" lon="6.04906">
        <ele>1341.6</ele>
        <time>2018-12-08T17:31:05Z</time>
      </trkpt>
      <trkpt lat="45.07793" lon="6.04887">
        <ele>1343.4</ele>
        <time>2018-12-08T17:31:07Z</time>
      </trkpt>
      <trkpt lat="45.07793" lon="6.04882">
        <ele>1343.9</ele>
        <time>2018-12-08T17:31:09Z</time>
      </trkpt>
      <trkpt lat="45.07793" lon="6.04876">
        <ele>1344.3</ele>
        <time>2018-12-08T17:31:11Z</time>
      </trkpt>
      <trkpt lat="45.07793" lon="6.0487">
        <ele>1344.8</ele>
        <time>2018-12-08T17:31:13Z</time>
      </trkpt>
      <trkpt lat="45.07793" lon="6.04865">
        <ele>1345.3</ele>
        <time>2018-12-08T17:31:15Z</time>
      </trkpt>
      <trkpt lat="45.07793" lon="6.04849">
        <ele>1346.7</ele>
        <time>2018-12-08T17:31:17Z</time>
      </trkpt>
      <trkpt lat="45.07791" lon="6.04844">
        <ele>1347.2</ele>
        <time>2018-12-08T17:31:19Z</time>
      </trkpt>
      <trkpt lat="45.0779" lon="6.04839">
        <ele>1347.7</ele>
        <time>2018-12-08T17:31:21Z</time>
      </trkpt>
      <trkpt lat="45.07789" lon="6.04833">
        <ele>1348.1</ele>
        <time>2018-12-08T17:31:23Z</time>
      </trkpt>
      <trkpt lat="45.07788" lon="6.04828">
        <ele>1348.6</ele>
        <time>2018-12-08T17:31:25Z</time>
      </trkpt>
      <trkpt lat="45.07786" lon="6.04823">
        <ele>1349.1</ele>
        <time>2018-12-08T17:31:27Z</time>
      </trkpt>
      <trkpt lat="45.07785" lon="6.04817">
        <ele>1349.6</ele>
        <time>2018-12-08T17:31:29Z</time>
      </trkpt>
      <trkpt lat="45.07781" lon="6.04796">
        <ele>1351.6</ele>
        <time>2018-12-08T17:31:31Z</time>
      </trkpt>
      <trkpt lat="45.07784" lon="6.04791">
        <ele>1351.9</ele>
        <time>2018-12-08T17:31:33Z</time>
      </trkpt>
      <trkpt lat="45.07786" lon="6.04787">
        <ele>1352.2</ele>
        <time>2018-12-08T17:31:35Z</time>
      </trkpt>
      <trkpt lat="45.07792" lon="6.04781">
        <ele>1353</ele>
        <time>2018-12-08T17:31:37Z</time>
      </trkpt>
      <trkpt lat="45.07798" lon="6.04785">
        <ele>1353.6</ele>
        <time>2018-12-08T17:31:39Z</time>
      </trkpt>
      <trkpt lat="45.07799" lon="6.04792">
        <ele>1354.1</ele>
        <time>2018-12-08T17:31:41Z</time>
      </trkpt>
      <trkpt lat="45.078" lon="6.04797">
        <ele>1354.4</ele>
        <time>2018-12-08T17:31:43Z</time>
      </trkpt>
      <trkpt lat="45.07801" lon="6.04803">
        <ele>1354.8</ele>
        <time>2018-12-08T17:31:45Z</time>
      </trkpt>
      <trkpt lat="45.07803" lon="6.04809">
        <ele>1355.2</ele>
        <time>2018-12-08T17:31:47Z</time>
      </trkpt>
      <trkpt lat="45.07804" lon="6.04816">
        <ele>1355.7</ele>
        <time>2018-12-08T17:31:49Z</time>
      </trkpt>
      <trkpt lat="45.07805" lon="6.04823">
        <ele>1356.1</ele>
        <time>2018-12-08T17:31:51Z</time>
      </trkpt>
      <trkpt lat="45.07807" lon="6.04829">
        <ele>1356.5</ele>
        <time>2018-12-08T17:31:53Z</time>
      </trkpt>
      <trkpt lat="45.07812" lon="6.04854">
        <ele>1358.1</ele>
        <time>2018-12-08T17:31:55Z</time>
      </trkpt>
      <trkpt lat="45.07815" lon="6.0486">
        <ele>1358.6</ele>
        <time>2018-12-08T17:31:57Z</time>
      </trkpt>
      <trkpt lat="45.07817" lon="6.04866">
        <ele>1359</ele>
        <time>2018-12-08T17:31:59Z</time>
      </trkpt>
      <trkpt lat="45.07819" lon="6.04872">
        <ele>1359.5</ele>
        <time>2018-12-08T17:32:01Z</time>
      </trkpt>
      <trkpt lat="45.07822" lon="6.04879">
        <ele>1359.9</ele>
        <time>2018-12-08T17:32:03Z</time>
      </trkpt>
      <trkpt lat="45.07824" lon="6.04886">
        <ele>1360.4</ele>
        <time>2018-12-08T17:32:05Z</time>
      </trkpt>
      <trkpt lat="45.07827" lon="6.04892">
        <ele>1360.9</ele>
        <time>2018-12-08T17:32:07Z</time>
      </trkpt>
      <trkpt lat="45.07829" lon="6.04899">
        <ele>1361.4</ele>
        <time>2018-12-08T17:32:09Z</time>
      </trkpt>
      <trkpt lat="45.07831" lon="6.04906">
        <ele>1361.8</ele>
        <time>2018-12-08T17:32:11Z</time>
      </trkpt>
      <trkpt lat="45.07841" lon="6.04937">
        <ele>1364</ele>
        <time>2018-12-08T17:32:13Z</time>
      </trkpt>
      <trkpt lat="45.07841" lon="6.04944">
        <ele>1364.5</ele>
        <time>2018-12-08T17:32:15Z</time>
      </trkpt>
      <trkpt lat="45.07841" lon="6.04952">
        <ele>1364.9</ele>
        <time>2018-12-08T17:32:17Z</time>
      </trkpt>
      <trkpt lat="45.07841" lon="6.04959">
        <ele>1365.4</ele>
        <time>2018-12-08T17:32:19Z</time>
      </trkpt>
      <trkpt lat="45.07841" lon="6.04967">
        <ele>1365.9</ele>
        <time>2018-12-08T17:32:21Z</time>
      </trkpt>
      <trkpt lat="45.07841" lon="6.04974">
        <ele>1366.4</ele>
        <time>2018-12-08T17:32:23Z</time>
      </trkpt>
      <trkpt lat="45.0784" lon="6.05002">
        <ele>1368.1</ele>
        <time>2018-12-08T17:32:25Z</time>
      </trkpt>
      <trkpt lat="45.07839" lon="6.05009">
        <ele>1368.6</ele>
        <time>2018-12-08T17:32:27Z</time>
      </trkpt>
      <trkpt lat="45.07837" lon="6.05016">
        <ele>1369</ele>
        <time>2018-12-08T17:32:29Z</time>
      </trkpt>
      <trkpt lat="45.07836" lon="6.05022">
        <ele>1369.4</ele>
        <time>2018-12-08T17:32:31Z</time>
      </trkpt>
      <trkpt lat="45.07835" lon="6.05029">
        <ele>1369.9</ele>
        <time>2018-12-08T17:32:33Z</time>
      </trkpt>
      <trkpt lat="45.0783" lon="6.05048">
        <ele>1371.1</ele>
        <time>2018-12-08T17:32:35Z</time>
      </trkpt>
      <trkpt lat="45.07828" lon="6.05054">
        <ele>1371.6</ele>
        <time>2018-12-08T17:32:37Z</time>
      </trkpt>
      <trkpt lat="45.07825" lon="6.0506">
        <ele>1372</ele>
        <time>2018-12-08T17:32:39Z</time>
      </trkpt>
      <trkpt lat="45.07823" lon="6.05066">
        <ele>1372.4</ele>
        <time>2018-12-08T17:32:41Z</time>
      </trkpt>
      <trkpt lat="45.07821" lon="6.05072">
        <ele>1372.9</ele>
        <time>2018-12-08T17:32:43Z</time>
      </trkpt>
      <trkpt lat="45.07818" lon="6.05079">
        <ele>1373.3</ele>
        <time>2018-12-08T17:32:45Z</time>
      </trkpt>
      <trkpt lat="45.07816" lon="6.05085">
        <ele>1373.8</ele>
        <time>2018-12-08T17:32:47Z</time>
      </trkpt>
      <trkpt lat="45.07813" lon="6.05091">
        <ele>1374.2</ele>
        <time>2018-12-08T17:32:49Z</time>
      </trkpt>
      <trkpt lat="45.07811" lon="6.05097">
        <ele>1374.7</ele>
        <time>2018-12-08T17:32:51Z</time>
      </trkpt>
      <trkpt lat="45.07809" lon="6.05104">
        <ele>1375.1</ele>
        <time>2018-12-08T17:32:53Z</time>
      </trkpt>
      <trkpt lat="45.07806" lon="6.0511">
        <ele>1375.6</ele>
        <time>2018-12-08T17:32:55Z</time>
      </trkpt>
      <trkpt lat="45.07804" lon="6.05116">
        <ele>1376</ele>
        <time>2018-12-08T17:32:57Z</time>
      </trkpt>
      <trkpt lat="45.07801" lon="6.05123">
        <ele>1376.5</ele>
        <time>2018-12-08T17:32:59Z</time>
      </trkpt>
      <trkpt lat="45.07799" lon="6.05129">
        <ele>1377</ele>
        <time>2018-12-08T17:33:01Z</time>
      </trkpt>
      <trkpt lat="45.07783" lon="6.05172">
        <ele>1380</ele>
        <time>2018-12-08T17:33:03Z</time>
      </trkpt>
      <trkpt lat="45.07782" lon="6.05179">
        <ele>1380.5</ele>
        <time>2018-12-08T17:33:05Z</time>
      </trkpt>
      <trkpt lat="45.0778" lon="6.05185">
        <ele>1380.9</ele>
        <time>2018-12-08T17:33:07Z</time>
      </trkpt>
      <trkpt lat="45.07778" lon="6.05192">
        <ele>1381.4</ele>
        <time>2018-12-08T17:33:09Z</time>
      </trkpt>
      <trkpt lat="45.07776" lon="6.05199">
        <ele>1381.8</ele>
        <time>2018-12-08T17:33:11Z</time>
      </trkpt>
      <trkpt lat="45.07774" lon="6.05206">
        <ele>1382.3</ele>
        <time>2018-12-08T17:33:13Z</time>
      </trkpt>
      <trkpt lat="45.07767" lon="6.05231">
        <ele>1384</ele>
        <time>2018-12-08T17:33:15Z</time>
      </trkpt>
      <trkpt lat="45.07764" lon="6.05237">
        <ele>1384.5</ele>
        <time>2018-12-08T17:33:17Z</time>
      </trkpt>
      <trkpt lat="45.07761" lon="6.05243">
        <ele>1384.9</ele>
        <time>2018-12-08T17:33:19Z</time>
      </trkpt>
      <trkpt lat="45.07758" lon="6.05248">
        <ele>1385.4</ele>
        <time>2018-12-08T17:33:21Z</time>
      </trkpt>
      <trkpt lat="45.07755" lon="6.05254">
        <ele>1385.8</ele>
        <time>2018-12-08T17:33:23Z</time>
      </trkpt>
      <trkpt lat="45.07752" lon="6.0526">
        <ele>1386.3</ele>
        <time>2018-12-08T17:33:25Z</time>
      </trkpt>
      <trkpt lat="45.07749" lon="6.05266">
        <ele>1386.7</ele>
        <time>2018-12-08T17:33:27Z</time>
      </trkpt>
      <trkpt lat="45.07737" lon="6.05287">
        <ele>1388.5</ele>
        <time>2018-12-08T17:33:29Z</time>
      </trkpt>
      <trkpt lat="45.07733" lon="6.05292">
        <ele>1389.2</ele>
        <time>2018-12-08T17:33:31Z</time>
      </trkpt>
      <trkpt lat="45.07729" lon="6.05296">
        <ele>1389.8</ele>
        <time>2018-12-08T17:33:33Z</time>
      </trkpt>
      <trkpt lat="45.07726" lon="6.053">
        <ele>1390.4</ele>
        <time>2018-12-08T17:33:35Z</time>
      </trkpt>
      <trkpt lat="45.07723" lon="6.05303">
        <ele>1390.9</ele>
        <time>2018-12-08T17:33:37Z</time>
      </trkpt>
      <trkpt lat="45.07721" lon="6.05306">
        <ele>1391.3</ele>
        <time>2018-12-08T17:33:39Z</time>
      </trkpt>
      <trkpt lat="45.07711" lon="6.05318">
        <ele>1393</ele>
        <time>2018-12-08T17:33:41Z</time>
      </trkpt>
      <trkpt lat="45.07709" lon="6.05322">
        <ele>1393.5</ele>
        <time>2018-12-08T17:33:43Z</time>
      </trkpt>
      <trkpt lat="45.07708" lon="6.05329">
        <ele>1394.2</ele>
        <time>2018-12-08T17:33:45Z</time>
      </trkpt>
      <trkpt lat="45.07709" lon="6.05334">
        <ele>1394.6</ele>
        <time>2018-12-08T17:33:47Z</time>
      </trkpt>
      <trkpt lat="45.0771" lon="6.05338">
        <ele>1395.1</ele>
        <time>2018-12-08T17:33:49Z</time>
      </trkpt>
      <trkpt lat="45.07714" lon="6.05348">
        <ele>1396.2</ele>
        <time>2018-12-08T17:33:51Z</time>
      </trkpt>
      <trkpt lat="45.07717" lon="6.0535">
        <ele>1396.7</ele>
        <time>2018-12-08T17:33:53Z</time>
      </trkpt>
      <trkpt lat="45.07721" lon="6.05352">
        <ele>1397.2</ele>
        <time>2018-12-08T17:33:55Z</time>
      </trkpt>
      <trkpt lat="45.07728" lon="6.05356">
        <ele>1398.2</ele>
        <time>2018-12-08T17:33:57Z</time>
      </trkpt>
      <trkpt lat="45.07732" lon="6.05357">
        <ele>1398.8</ele>
        <time>2018-12-08T17:33:59Z</time>
      </trkpt>
      <trkpt lat="45.07736" lon="6.05357">
        <ele>1399.3</ele>
        <time>2018-12-08T17:34:01Z</time>
      </trkpt>
      <trkpt lat="45.0774" lon="6.05358">
        <ele>1399.8</ele>
        <time>2018-12-08T17:34:03Z</time>
      </trkpt>
      <trkpt lat="45.07743" lon="6.05359">
        <ele>1400.3</ele>
        <time>2018-12-08T17:34:05Z</time>
      </trkpt>
      <trkpt lat="45.07747" lon="6.0536">
        <ele>1400.8</ele>
        <time>2018-12-08T17:34:07Z</time>
      </trkpt>
      <trkpt lat="45.07751" lon="6.05361">
        <ele>1401.3</ele>
        <time>2018-12-08T17:34:09Z</time>
      </trkpt>
      <trkpt lat="45.07755" lon="6.05361">
        <ele>1401.8</ele>
        <time>2018-12-08T17:34:11Z</time>
      </trkpt>
      <trkpt lat="45.07771" lon="6.05367">
        <ele>1403.8</ele>
        <time>2018-12-08T17:34:13Z</time>
      </trkpt>
      <trkpt lat="45.07774" lon="6.0537">
        <ele>1404.2</ele>
        <time>2018-12-08T17:34:15Z</time>
      </trkpt>
      <trkpt lat="45.07778" lon="6.05373">
        <ele>1404.5</ele>
        <time>2018-12-08T17:34:17Z</time>
      </trkpt>
      <trkpt lat="45.07783" lon="6.05376">
        <ele>1404.9</ele>
        <time>2018-12-08T17:34:19Z</time>
      </trkpt>
      <trkpt lat="45.07787" lon="6.0538">
        <ele>1405.3</ele>
        <time>2018-12-08T17:34:21Z</time>
      </trkpt>
      <trkpt lat="45.07791" lon="6.05383">
        <ele>1405.6</ele>
        <time>2018-12-08T17:34:23Z</time>
      </trkpt>
      <trkpt lat="45.07795" lon="6.05387">
        <ele>1406</ele>
        <time>2018-12-08T17:34:25Z</time>
      </trkpt>
      <trkpt lat="45.07799" lon="6.0539">
        <ele>1406.4</ele>
        <time>2018-12-08T17:34:27Z</time>
      </trkpt>
      <trkpt lat="45.07804" lon="6.05394">
        <ele>1406.8</ele>
        <time>2018-12-08T17:34:29Z</time>
      </trkpt>
      <trkpt lat="45.07823" lon="6.05409">
        <ele>1408.5</ele>
        <time>2018-12-08T17:34:31Z</time>
      </trkpt>
      <trkpt lat="45.07828" lon="6.05412">
        <ele>1408.9</ele>
        <time>2018-12-08T17:34:33Z</time>
      </trkpt>
      <trkpt lat="45.07832" lon="6.05414">
        <ele>1409.2</ele>
        <time>2018-12-08T17:34:35Z</time>
      </trkpt>
      <trkpt lat="45.07837" lon="6.05417">
        <ele>1409.6</ele>
        <time>2018-12-08T17:34:37Z</time>
      </trkpt>
      <trkpt lat="45.07842" lon="6.0542">
        <ele>1410</ele>
        <time>2018-12-08T17:34:39Z</time>
      </trkpt>
      <trkpt lat="45.07847" lon="6.05423">
        <ele>1410.4</ele>
        <time>2018-12-08T17:34:41Z</time>
      </trkpt>
      <trkpt lat="45.07851" lon="6.05425">
        <ele>1410.8</ele>
        <time>2018-12-08T17:34:43Z</time>
      </trkpt>
      <trkpt lat="45.07856" lon="6.05428">
        <ele>1411.2</ele>
        <time>2018-12-08T17:34:45Z</time>
      </trkpt>
      <trkpt lat="45.0786" lon="6.05431">
        <ele>1411.6</ele>
        <time>2018-12-08T17:34:47Z</time>
      </trkpt>
      <trkpt lat="45.07865" lon="6.05433">
        <ele>1412</ele>
        <time>2018-12-08T17:34:49Z</time>
      </trkpt>
      <trkpt lat="45.0787" lon="6.05436">
        <ele>1412.4</ele>
        <time>2018-12-08T17:34:51Z</time>
      </trkpt>
      <trkpt lat="45.07874" lon="6.05438">
        <ele>1412.7</ele>
        <time>2018-12-08T17:34:53Z</time>
      </trkpt>
      <trkpt lat="45.07879" lon="6.05441">
        <ele>1413.1</ele>
        <time>2018-12-08T17:34:55Z</time>
      </trkpt>
      <trkpt lat="45.07883" lon="6.05444">
        <ele>1413.5</ele>
        <time>2018-12-08T17:34:57Z</time>
      </trkpt>
      <trkpt lat="45.07888" lon="6.05447">
        <ele>1413.9</ele>
        <time>2018-12-08T17:34:59Z</time>
      </trkpt>
      <trkpt lat="45.07894" lon="6.0545">
        <ele>1414.4</ele>
        <time>2018-12-08T17:35:01Z</time>
      </trkpt>
      <trkpt lat="45.07931" lon="6.05471">
        <ele>1417.5</ele>
        <time>2018-12-08T17:35:03Z</time>
      </trkpt>
      <trkpt lat="45.07937" lon="6.05471">
        <ele>1417.9</ele>
        <time>2018-12-08T17:35:05Z</time>
      </trkpt>
      <trkpt lat="45.07942" lon="6.0547">
        <ele>1418.2</ele>
        <time>2018-12-08T17:35:07Z</time>
      </trkpt>
      <trkpt lat="45.07948" lon="6.0547">
        <ele>1418.6</ele>
        <time>2018-12-08T17:35:09Z</time>
      </trkpt>
      <trkpt lat="45.07954" lon="6.05469">
        <ele>1419</ele>
        <time>2018-12-08T17:35:11Z</time>
      </trkpt>
      <trkpt lat="45.0796" lon="6.05469">
        <ele>1419.4</ele>
        <time>2018-12-08T17:35:13Z</time>
      </trkpt>
      <trkpt lat="45.07966" lon="6.05468">
        <ele>1419.8</ele>
        <time>2018-12-08T17:35:15Z</time>
      </trkpt>
      <trkpt lat="45.07987" lon="6.05468">
        <ele>1421.2</ele>
        <time>2018-12-08T17:35:17Z</time>
      </trkpt>
      <trkpt lat="45.07993" lon="6.05469">
        <ele>1421.6</ele>
        <time>2018-12-08T17:35:19Z</time>
      </trkpt>
      <trkpt lat="45.07999" lon="6.05471">
        <ele>1422</ele>
        <time>2018-12-08T17:35:21Z</time>
      </trkpt>
      <trkpt lat="45.08005" lon="6.05472">
        <ele>1422.4</ele>
        <time>2018-12-08T17:35:23Z</time>
      </trkpt>
      <trkpt lat="45.08012" lon="6.05474">
        <ele>1422.8</ele>
        <time>2018-12-08T17:35:25Z</time>
      </trkpt>
      <trkpt lat="45.08018" lon="6.05475">
        <ele>1423.2</ele>
        <time>2018-12-08T17:35:27Z</time>
      </trkpt>
      <trkpt lat="45.08024" lon="6.05477">
        <ele>1423.6</ele>
        <time>2018-12-08T17:35:29Z</time>
      </trkpt>
      <trkpt lat="45.0803" lon="6.05478">
        <ele>1424</ele>
        <time>2018-12-08T17:35:31Z</time>
      </trkpt>
      <trkpt lat="45.08057" lon="6.05485">
        <ele>1425.8</ele>
        <time>2018-12-08T17:35:33Z</time>
      </trkpt>
      <trkpt lat="45.08062" lon="6.05489">
        <ele>1426.2</ele>
        <time>2018-12-08T17:35:35Z</time>
      </trkpt>
      <trkpt lat="45.08067" lon="6.05494">
        <ele>1426.6</ele>
        <time>2018-12-08T17:35:37Z</time>
      </trkpt>
      <trkpt lat="45.08077" lon="6.05504">
        <ele>1427.4</ele>
        <time>2018-12-08T17:35:39Z</time>
      </trkpt>
      <trkpt lat="45.08078" lon="6.05513">
        <ele>1427.8</ele>
        <time>2018-12-08T17:35:41Z</time>
      </trkpt>
      <trkpt lat="45.0808" lon="6.05521">
        <ele>1428.2</ele>
        <time>2018-12-08T17:35:43Z</time>
      </trkpt>
      <trkpt lat="45.0808" lon="6.05538">
        <ele>1429.1</ele>
        <time>2018-12-08T17:35:45Z</time>
      </trkpt>
      <trkpt lat="45.08076" lon="6.05553">
        <ele>1429.8</ele>
        <time>2018-12-08T17:35:47Z</time>
      </trkpt>
      <trkpt lat="45.08071" lon="6.05557">
        <ele>1430.2</ele>
        <time>2018-12-08T17:35:49Z</time>
      </trkpt>
      <trkpt lat="45.08061" lon="6.05562">
        <ele>1430.8</ele>
        <time>2018-12-08T17:35:51Z</time>
      </trkpt>
      <trkpt lat="45.08056" lon="6.05565">
        <ele>1431.2</ele>
        <time>2018-12-08T17:35:53Z</time>
      </trkpt>
      <trkpt lat="45.0805" lon="6.05568">
        <ele>1431.6</ele>
        <time>2018-12-08T17:35:55Z</time>
      </trkpt>
      <trkpt lat="45.08044" lon="6.05571">
        <ele>1432</ele>
        <time>2018-12-08T17:35:57Z</time>
      </trkpt>
      <trkpt lat="45.08029" lon="6.0558">
        <ele>1433.2</ele>
        <time>2018-12-08T17:35:59Z</time>
      </trkpt>
      <trkpt lat="45.08025" lon="6.05587">
        <ele>1433.8</ele>
        <time>2018-12-08T17:36:01Z</time>
      </trkpt>
      <trkpt lat="45.08022" lon="6.05593">
        <ele>1434.4</ele>
        <time>2018-12-08T17:36:03Z</time>
      </trkpt>
      <trkpt lat="45.0802" lon="6.05598">
        <ele>1434.9</ele>
        <time>2018-12-08T17:36:05Z</time>
      </trkpt>
      <trkpt lat="45.08012" lon="6.05613">
        <ele>1436.3</ele>
        <time>2018-12-08T17:36:07Z</time>
      </trkpt>
      <trkpt lat="45.08012" lon="6.0562">
        <ele>1436.7</ele>
        <time>2018-12-08T17:36:09Z</time>
      </trkpt>
      <trkpt lat="45.08011" lon="6.05626">
        <ele>1437.2</ele>
        <time>2018-12-08T17:36:11Z</time>
      </trkpt>
      <trkpt lat="45.0801" lon="6.05632">
        <ele>1437.7</ele>
        <time>2018-12-08T17:36:13Z</time>
      </trkpt>
      <trkpt lat="45.0801" lon="6.05639">
        <ele>1438.2</ele>
        <time>2018-12-08T17:36:15Z</time>
      </trkpt>
      <trkpt lat="45.08008" lon="6.05658">
        <ele>1439.6</ele>
        <time>2018-12-08T17:36:17Z</time>
      </trkpt>
      <trkpt lat="45.08008" lon="6.05664">
        <ele>1440.1</ele>
        <time>2018-12-08T17:36:19Z</time>
      </trkpt>
      <trkpt lat="45.08008" lon="6.05671">
        <ele>1440.6</ele>
        <time>2018-12-08T17:36:21Z</time>
      </trkpt>
      <trkpt lat="45.08008" lon="6.05683">
        <ele>1441.5</ele>
        <time>2018-12-08T17:36:23Z</time>
      </trkpt>
      <trkpt lat="45.08008" lon="6.05695">
        <ele>1442.4</ele>
        <time>2018-12-08T17:36:25Z</time>
      </trkpt>
      <trkpt lat="45.08011" lon="6.057">
        <ele>1442.9</ele>
        <time>2018-12-08T17:36:27Z</time>
      </trkpt>
      <trkpt lat="45.08013" lon="6.05706">
        <ele>1443.4</ele>
        <time>2018-12-08T17:36:29Z</time>
      </trkpt>
      <trkpt lat="45.08016" lon="6.05711">
        <ele>1443.8</ele>
        <time>2018-12-08T17:36:31Z</time>
      </trkpt>
      <trkpt lat="45.08018" lon="6.05717">
        <ele>1444.4</ele>
        <time>2018-12-08T17:36:33Z</time>
      </trkpt>
      <trkpt lat="45.08021" lon="6.05721">
        <ele>1444.8</ele>
        <time>2018-12-08T17:36:35Z</time>
      </trkpt>
      <trkpt lat="45.08023" lon="6.05726">
        <ele>1445.2</ele>
        <time>2018-12-08T17:36:37Z</time>
      </trkpt>
      <trkpt lat="45.08025" lon="6.05731">
        <ele>1445.6</ele>
        <time>2018-12-08T17:36:39Z</time>
      </trkpt>
      <trkpt lat="45.08035" lon="6.05752">
        <ele>1447.6</ele>
        <time>2018-12-08T17:36:41Z</time>
      </trkpt>
      <trkpt lat="45.08037" lon="6.05758">
        <ele>1448.2</ele>
        <time>2018-12-08T17:36:43Z</time>
      </trkpt>
      <trkpt lat="45.08038" lon="6.05762">
        <ele>1448.7</ele>
        <time>2018-12-08T17:36:45Z</time>
      </trkpt>
      <trkpt lat="45.0804" lon="6.05766">
        <ele>1449.1</ele>
        <time>2018-12-08T17:36:47Z</time>
      </trkpt>
      <trkpt lat="45.08041" lon="6.0577">
        <ele>1449.6</ele>
        <time>2018-12-08T17:36:49Z</time>
      </trkpt>
      <trkpt lat="45.08043" lon="6.05775">
        <ele>1450.1</ele>
        <time>2018-12-08T17:36:51Z</time>
      </trkpt>
      <trkpt lat="45.08044" lon="6.0578">
        <ele>1450.6</ele>
        <time>2018-12-08T17:36:53Z</time>
      </trkpt>
      <trkpt lat="45.08046" lon="6.05784">
        <ele>1451.1</ele>
        <time>2018-12-08T17:36:55Z</time>
      </trkpt>
      <trkpt lat="45.08048" lon="6.05789">
        <ele>1451.6</ele>
        <time>2018-12-08T17:36:57Z</time>
      </trkpt>
      <trkpt lat="45.08055" lon="6.05811">
        <ele>1454</ele>
        <time>2018-12-08T17:36:59Z</time>
      </trkpt>
      <trkpt lat="45.08057" lon="6.05815">
        <ele>1454.5</ele>
        <time>2018-12-08T17:37:01Z</time>
      </trkpt>
      <trkpt lat="45.08059" lon="6.05819">
        <ele>1455</ele>
        <time>2018-12-08T17:37:03Z</time>
      </trkpt>
      <trkpt lat="45.08061" lon="6.05823">
        <ele>1455.4</ele>
        <time>2018-12-08T17:37:05Z</time>
      </trkpt>
      <trkpt lat="45.08063" lon="6.05827">
        <ele>1455.9</ele>
        <time>2018-12-08T17:37:07Z</time>
      </trkpt>
      <trkpt lat="45.08065" lon="6.05832">
        <ele>1456.4</ele>
        <time>2018-12-08T17:37:09Z</time>
      </trkpt>
      <trkpt lat="45.08067" lon="6.05836">
        <ele>1456.9</ele>
        <time>2018-12-08T17:37:11Z</time>
      </trkpt>
      <trkpt lat="45.08069" lon="6.0584">
        <ele>1457.4</ele>
        <time>2018-12-08T17:37:13Z</time>
      </trkpt>
      <trkpt lat="45.08077" lon="6.05858">
        <ele>1459.5</ele>
        <time>2018-12-08T17:37:15Z</time>
      </trkpt>
      <trkpt lat="45.08079" lon="6.05862">
        <ele>1460</ele>
        <time>2018-12-08T17:37:17Z</time>
      </trkpt>
      <trkpt lat="45.08082" lon="6.05866">
        <ele>1460.5</ele>
        <time>2018-12-08T17:37:19Z</time>
      </trkpt>
      <trkpt lat="45.08084" lon="6.0587">
        <ele>1461</ele>
        <time>2018-12-08T17:37:21Z</time>
      </trkpt>
      <trkpt lat="45.08091" lon="6.0588">
        <ele>1462.3</ele>
        <time>2018-12-08T17:37:23Z</time>
      </trkpt>
      <trkpt lat="45.08093" lon="6.05884">
        <ele>1462.6</ele>
        <time>2018-12-08T17:37:25Z</time>
      </trkpt>
      <trkpt lat="45.08096" lon="6.05888">
        <ele>1462.9</ele>
        <time>2018-12-08T17:37:27Z</time>
      </trkpt>
      <trkpt lat="45.08099" lon="6.05893">
        <ele>1463.3</ele>
        <time>2018-12-08T17:37:29Z</time>
      </trkpt>
      <trkpt lat="45.08102" lon="6.05897">
        <ele>1463.7</ele>
        <time>2018-12-08T17:37:31Z</time>
      </trkpt>
      <trkpt lat="45.08105" lon="6.05902">
        <ele>1464</ele>
        <time>2018-12-08T17:37:33Z</time>
      </trkpt>
      <trkpt lat="45.08108" lon="6.05907">
        <ele>1464.4</ele>
        <time>2018-12-08T17:37:35Z</time>
      </trkpt>
      <trkpt lat="45.08111" lon="6.05912">
        <ele>1464.8</ele>
        <time>2018-12-08T17:37:37Z</time>
      </trkpt>
      <trkpt lat="45.08124" lon="6.05932">
        <ele>1466.4</ele>
        <time>2018-12-08T17:37:39Z</time>
      </trkpt>
      <trkpt lat="45.08126" lon="6.05938">
        <ele>1466.8</ele>
        <time>2018-12-08T17:37:41Z</time>
      </trkpt>
      <trkpt lat="45.0813" lon="6.05947">
        <ele>1467.4</ele>
        <time>2018-12-08T17:37:43Z</time>
      </trkpt>
      <trkpt lat="45.08132" lon="6.05953">
        <ele>1467.7</ele>
        <time>2018-12-08T17:37:45Z</time>
      </trkpt>
      <trkpt lat="45.08134" lon="6.05959">
        <ele>1468.1</ele>
        <time>2018-12-08T17:37:47Z</time>
      </trkpt>
      <trkpt lat="45.08136" lon="6.05964">
        <ele>1468.5</ele>
        <time>2018-12-08T17:37:49Z</time>
      </trkpt>
      <trkpt lat="45.08138" lon="6.0597">
        <ele>1468.9</ele>
        <time>2018-12-08T17:37:51Z</time>
      </trkpt>
      <trkpt lat="45.0814" lon="6.05976">
        <ele>1469.2</ele>
        <time>2018-12-08T17:37:53Z</time>
      </trkpt>
      <trkpt lat="45.08142" lon="6.05982">
        <ele>1469.6</ele>
        <time>2018-12-08T17:37:55Z</time>
      </trkpt>
      <trkpt lat="45.0815" lon="6.06005">
        <ele>1471.1</ele>
        <time>2018-12-08T17:37:57Z</time>
      </trkpt>
      <trkpt lat="45.08152" lon="6.06011">
        <ele>1471.5</ele>
        <time>2018-12-08T17:37:59Z</time>
      </trkpt>
      <trkpt lat="45.08154" lon="6.06018">
        <ele>1471.9</ele>
        <time>2018-12-08T17:38:01Z</time>
      </trkpt>
      <trkpt lat="45.08156" lon="6.06024">
        <ele>1472.3</ele>
        <time>2018-12-08T17:38:03Z</time>
      </trkpt>
      <trkpt lat="45.08158" lon="6.0603">
        <ele>1472.7</ele>
        <time>2018-12-08T17:38:05Z</time>
      </trkpt>
      <trkpt lat="45.08163" lon="6.0605">
        <ele>1474</ele>
        <time>2018-12-08T17:38:07Z</time>
      </trkpt>
      <trkpt lat="45.08165" lon="6.06057">
        <ele>1474.4</ele>
        <time>2018-12-08T17:38:09Z</time>
      </trkpt>
      <trkpt lat="45.08167" lon="6.06064">
        <ele>1474.8</ele>
        <time>2018-12-08T17:38:11Z</time>
      </trkpt>
      <trkpt lat="45.08169" lon="6.0607">
        <ele>1475.2</ele>
        <time>2018-12-08T17:38:13Z</time>
      </trkpt>
      <trkpt lat="45.08171" lon="6.06077">
        <ele>1475.7</ele>
        <time>2018-12-08T17:38:15Z</time>
      </trkpt>
      <trkpt lat="45.08173" lon="6.06084">
        <ele>1476.1</ele>
        <time>2018-12-08T17:38:17Z</time>
      </trkpt>
      <trkpt lat="45.08174" lon="6.06091">
        <ele>1476.5</ele>
        <time>2018-12-08T17:38:19Z</time>
      </trkpt>
      <trkpt lat="45.08176" lon="6.06098">
        <ele>1476.9</ele>
        <time>2018-12-08T17:38:21Z</time>
      </trkpt>
      <trkpt lat="45.08178" lon="6.06105">
        <ele>1477.4</ele>
        <time>2018-12-08T17:38:23Z</time>
      </trkpt>
      <trkpt lat="45.0818" lon="6.06111">
        <ele>1477.8</ele>
        <time>2018-12-08T17:38:25Z</time>
      </trkpt>
      <trkpt lat="45.08182" lon="6.06118">
        <ele>1478.2</ele>
        <time>2018-12-08T17:38:27Z</time>
      </trkpt>
      <trkpt lat="45.08184" lon="6.06125">
        <ele>1478.7</ele>
        <time>2018-12-08T17:38:29Z</time>
      </trkpt>
      <trkpt lat="45.08185" lon="6.06132">
        <ele>1479.1</ele>
        <time>2018-12-08T17:38:31Z</time>
      </trkpt>
      <trkpt lat="45.08197" lon="6.06176">
        <ele>1481.8</ele>
        <time>2018-12-08T17:38:33Z</time>
      </trkpt>
      <trkpt lat="45.082" lon="6.06183">
        <ele>1482.2</ele>
        <time>2018-12-08T17:38:35Z</time>
      </trkpt>
      <trkpt lat="45.08202" lon="6.06189">
        <ele>1482.7</ele>
        <time>2018-12-08T17:38:37Z</time>
      </trkpt>
      <trkpt lat="45.08204" lon="6.06195">
        <ele>1483.1</ele>
        <time>2018-12-08T17:38:39Z</time>
      </trkpt>
      <trkpt lat="45.08207" lon="6.06202">
        <ele>1483.5</ele>
        <time>2018-12-08T17:38:41Z</time>
      </trkpt>
      <trkpt lat="45.08214" lon="6.06222">
        <ele>1484.9</ele>
        <time>2018-12-08T17:38:43Z</time>
      </trkpt>
      <trkpt lat="45.08218" lon="6.06227">
        <ele>1485.3</ele>
        <time>2018-12-08T17:38:45Z</time>
      </trkpt>
      <trkpt lat="45.08226" lon="6.06229">
        <ele>1486</ele>
        <time>2018-12-08T17:38:47Z</time>
      </trkpt>
      <trkpt lat="45.08232" lon="6.06224">
        <ele>1486.6</ele>
        <time>2018-12-08T17:38:49Z</time>
      </trkpt>
      <trkpt lat="45.08235" lon="6.06213">
        <ele>1487.3</ele>
        <time>2018-12-08T17:38:51Z</time>
      </trkpt>
      <trkpt lat="45.08232" lon="6.06208">
        <ele>1487.7</ele>
        <time>2018-12-08T17:38:53Z</time>
      </trkpt>
      <trkpt lat="45.08229" lon="6.06202">
        <ele>1488.2</ele>
        <time>2018-12-08T17:38:55Z</time>
      </trkpt>
      <trkpt lat="45.08226" lon="6.06196">
        <ele>1488.6</ele>
        <time>2018-12-08T17:38:57Z</time>
      </trkpt>
      <trkpt lat="45.08222" lon="6.0619">
        <ele>1489</ele>
        <time>2018-12-08T17:38:59Z</time>
      </trkpt>
      <trkpt lat="45.08213" lon="6.06173">
        <ele>1490.3</ele>
        <time>2018-12-08T17:39:01Z</time>
      </trkpt>
      <trkpt lat="45.08212" lon="6.06166">
        <ele>1490.7</ele>
        <time>2018-12-08T17:39:03Z</time>
      </trkpt>
      <trkpt lat="45.0821" lon="6.06154">
        <ele>1491.4</ele>
        <time>2018-12-08T17:39:05Z</time>
      </trkpt>
      <trkpt lat="45.0821" lon="6.06147">
        <ele>1491.9</ele>
        <time>2018-12-08T17:39:07Z</time>
      </trkpt>
      <trkpt lat="45.08211" lon="6.06139">
        <ele>1492.3</ele>
        <time>2018-12-08T17:39:09Z</time>
      </trkpt>
      <trkpt lat="45.08211" lon="6.06132">
        <ele>1492.7</ele>
        <time>2018-12-08T17:39:11Z</time>
      </trkpt>
      <trkpt lat="45.08211" lon="6.06125">
        <ele>1493.1</ele>
        <time>2018-12-08T17:39:13Z</time>
      </trkpt>
      <trkpt lat="45.08212" lon="6.06117">
        <ele>1493.6</ele>
        <time>2018-12-08T17:39:15Z</time>
      </trkpt>
      <trkpt lat="45.08212" lon="6.0611">
        <ele>1494</ele>
        <time>2018-12-08T17:39:17Z</time>
      </trkpt>
      <trkpt lat="45.08212" lon="6.06102">
        <ele>1494.4</ele>
        <time>2018-12-08T17:39:19Z</time>
      </trkpt>
      <trkpt lat="45.08213" lon="6.06095">
        <ele>1494.9</ele>
        <time>2018-12-08T17:39:21Z</time>
      </trkpt>
      <trkpt lat="45.08214" lon="6.06061">
        <ele>1496.9</ele>
        <time>2018-12-08T17:39:23Z</time>
      </trkpt>
      <trkpt lat="45.08215" lon="6.06053">
        <ele>1497.3</ele>
        <time>2018-12-08T17:39:25Z</time>
      </trkpt>
      <trkpt lat="45.08215" lon="6.06046">
        <ele>1497.7</ele>
        <time>2018-12-08T17:39:27Z</time>
      </trkpt>
      <trkpt lat="45.08215" lon="6.06038">
        <ele>1498.2</ele>
        <time>2018-12-08T17:39:29Z</time>
      </trkpt>
      <trkpt lat="45.08216" lon="6.0603">
        <ele>1498.6</ele>
        <time>2018-12-08T17:39:31Z</time>
      </trkpt>
      <trkpt lat="45.08216" lon="6.06023">
        <ele>1499.1</ele>
        <time>2018-12-08T17:39:33Z</time>
      </trkpt>
      <trkpt lat="45.08216" lon="6.06015">
        <ele>1499.5</ele>
        <time>2018-12-08T17:39:35Z</time>
      </trkpt>
      <trkpt lat="45.08217" lon="6.06008">
        <ele>1500</ele>
        <time>2018-12-08T17:39:37Z</time>
      </trkpt>
      <trkpt lat="45.08218" lon="6.05974">
        <ele>1502.1</ele>
        <time>2018-12-08T17:39:39Z</time>
      </trkpt>
      <trkpt lat="45.08218" lon="6.05967">
        <ele>1502.7</ele>
        <time>2018-12-08T17:39:41Z</time>
      </trkpt>
      <trkpt lat="45.08218" lon="6.05963">
        <ele>1503.2</ele>
        <time>2018-12-08T17:39:43Z</time>
      </trkpt>
      <trkpt lat="45.08219" lon="6.05952">
        <ele>1504.3</ele>
        <time>2018-12-08T17:39:45Z</time>
      </trkpt>
      <trkpt lat="45.08219" lon="6.05947">
        <ele>1504.7</ele>
        <time>2018-12-08T17:39:47Z</time>
      </trkpt>
      <trkpt lat="45.0822" lon="6.05942">
        <ele>1505.2</ele>
        <time>2018-12-08T17:39:49Z</time>
      </trkpt>
      <trkpt lat="45.0822" lon="6.05937">
        <ele>1505.7</ele>
        <time>2018-12-08T17:39:51Z</time>
      </trkpt>
      <trkpt lat="45.08221" lon="6.05932">
        <ele>1506.2</ele>
        <time>2018-12-08T17:39:53Z</time>
      </trkpt>
      <trkpt lat="45.08221" lon="6.05928">
        <ele>1506.6</ele>
        <time>2018-12-08T17:39:55Z</time>
      </trkpt>
      <trkpt lat="45.08223" lon="6.05911">
        <ele>1508.3</ele>
        <time>2018-12-08T17:39:57Z</time>
      </trkpt>
      <trkpt lat="45.08223" lon="6.05906">
        <ele>1508.8</ele>
        <time>2018-12-08T17:39:59Z</time>
      </trkpt>
      <trkpt lat="45.08223" lon="6.05901">
        <ele>1509.3</ele>
        <time>2018-12-08T17:40:01Z</time>
      </trkpt>
      <trkpt lat="45.08223" lon="6.05896">
        <ele>1509.8</ele>
        <time>2018-12-08T17:40:03Z</time>
      </trkpt>
      <trkpt lat="45.08223" lon="6.05891">
        <ele>1510.3</ele>
        <time>2018-12-08T17:40:05Z</time>
      </trkpt>
      <trkpt lat="45.08223" lon="6.05886">
        <ele>1510.8</ele>
        <time>2018-12-08T17:40:07Z</time>
      </trkpt>
      <trkpt lat="45.08223" lon="6.05881">
        <ele>1511.3</ele>
        <time>2018-12-08T17:40:09Z</time>
      </trkpt>
      <trkpt lat="45.08223" lon="6.05876">
        <ele>1511.7</ele>
        <time>2018-12-08T17:40:11Z</time>
      </trkpt>
      <trkpt lat="45.08223" lon="6.05871">
        <ele>1512.2</ele>
        <time>2018-12-08T17:40:13Z</time>
      </trkpt>
      <trkpt lat="45.08223" lon="6.05866">
        <ele>1512.8</ele>
        <time>2018-12-08T17:40:15Z</time>
      </trkpt>
      <trkpt lat="45.08223" lon="6.05861">
        <ele>1513.3</ele>
        <time>2018-12-08T17:40:17Z</time>
      </trkpt>
      <trkpt lat="45.08223" lon="6.05856">
        <ele>1513.8</ele>
        <time>2018-12-08T17:40:19Z</time>
      </trkpt>
      <trkpt lat="45.08223" lon="6.0585">
        <ele>1514.3</ele>
        <time>2018-12-08T17:40:21Z</time>
      </trkpt>
      <trkpt lat="45.08224" lon="6.05819">
        <ele>1517.4</ele>
        <time>2018-12-08T17:40:23Z</time>
      </trkpt>
      <trkpt lat="45.08225" lon="6.05815">
        <ele>1517.9</ele>
        <time>2018-12-08T17:40:25Z</time>
      </trkpt>
      <trkpt lat="45.08227" lon="6.0581">
        <ele>1518.4</ele>
        <time>2018-12-08T17:40:27Z</time>
      </trkpt>
      <trkpt lat="45.08228" lon="6.05806">
        <ele>1518.9</ele>
        <time>2018-12-08T17:40:29Z</time>
      </trkpt>
      <trkpt lat="45.08234" lon="6.05798">
        <ele>1520.2</ele>
        <time>2018-12-08T17:40:31Z</time>
      </trkpt>
      <trkpt lat="45.08238" lon="6.05799">
        <ele>1520.7</ele>
        <time>2018-12-08T17:40:33Z</time>
      </trkpt>
      <trkpt lat="45.08245" lon="6.05802">
        <ele>1521.7</ele>
        <time>2018-12-08T17:40:35Z</time>
      </trkpt>
      <trkpt lat="45.08248" lon="6.05804">
        <ele>1522.2</ele>
        <time>2018-12-08T17:40:37Z</time>
      </trkpt>
      <trkpt lat="45.08251" lon="6.05806">
        <ele>1522.6</ele>
        <time>2018-12-08T17:40:39Z</time>
      </trkpt>
      <trkpt lat="45.08257" lon="6.05811">
        <ele>1523.7</ele>
        <time>2018-12-08T17:40:41Z</time>
      </trkpt>
      <trkpt lat="45.08259" lon="6.05814">
        <ele>1524.2</ele>
        <time>2018-12-08T17:40:43Z</time>
      </trkpt>
      <trkpt lat="45.08261" lon="6.05818">
        <ele>1524.6</ele>
        <time>2018-12-08T17:40:45Z</time>
      </trkpt>
      <trkpt lat="45.08263" lon="6.05822">
        <ele>1525.1</ele>
        <time>2018-12-08T17:40:47Z</time>
      </trkpt>
      <trkpt lat="45.08265" lon="6.05826">
        <ele>1525.5</ele>
        <time>2018-12-08T17:40:49Z</time>
      </trkpt>
      <trkpt lat="45.08267" lon="6.05829">
        <ele>1526</ele>
        <time>2018-12-08T17:40:51Z</time>
      </trkpt>
      <trkpt lat="45.08269" lon="6.05833">
        <ele>1526.5</ele>
        <time>2018-12-08T17:40:53Z</time>
      </trkpt>
      <trkpt lat="45.08271" lon="6.05837">
        <ele>1526.9</ele>
        <time>2018-12-08T17:40:55Z</time>
      </trkpt>
      <trkpt lat="45.08274" lon="6.05841">
        <ele>1527.4</ele>
        <time>2018-12-08T17:40:57Z</time>
      </trkpt>
      <trkpt lat="45.08276" lon="6.05845">
        <ele>1527.9</ele>
        <time>2018-12-08T17:40:59Z</time>
      </trkpt>
      <trkpt lat="45.08278" lon="6.05849">
        <ele>1528.4</ele>
        <time>2018-12-08T17:41:01Z</time>
      </trkpt>
      <trkpt lat="45.08289" lon="6.05868">
        <ele>1530.9</ele>
        <time>2018-12-08T17:41:03Z</time>
      </trkpt>
      <trkpt lat="45.08292" lon="6.05871">
        <ele>1531.4</ele>
        <time>2018-12-08T17:41:05Z</time>
      </trkpt>
      <trkpt lat="45.08295" lon="6.05874">
        <ele>1531.9</ele>
        <time>2018-12-08T17:41:07Z</time>
      </trkpt>
      <trkpt lat="45.08297" lon="6.05876">
        <ele>1532.3</ele>
        <time>2018-12-08T17:41:09Z</time>
      </trkpt>
      <trkpt lat="45.08304" lon="6.05885">
        <ele>1533.7</ele>
        <time>2018-12-08T17:41:11Z</time>
      </trkpt>
      <trkpt lat="45.08304" lon="6.0589">
        <ele>1534.2</ele>
        <time>2018-12-08T17:41:13Z</time>
      </trkpt>
      <trkpt lat="45.08304" lon="6.05895">
        <ele>1534.7</ele>
        <time>2018-12-08T17:41:15Z</time>
      </trkpt>
      <trkpt lat="45.08304" lon="6.059">
        <ele>1535.2</ele>
        <time>2018-12-08T17:41:17Z</time>
      </trkpt>
      <trkpt lat="45.08304" lon="6.05906">
        <ele>1535.7</ele>
        <time>2018-12-08T17:41:19Z</time>
      </trkpt>
      <trkpt lat="45.08304" lon="6.05911">
        <ele>1536.2</ele>
        <time>2018-12-08T17:41:21Z</time>
      </trkpt>
      <trkpt lat="45.08304" lon="6.05916">
        <ele>1536.7</ele>
        <time>2018-12-08T17:41:23Z</time>
      </trkpt>
      <trkpt lat="45.08304" lon="6.05921">
        <ele>1537.2</ele>
        <time>2018-12-08T17:41:25Z</time>
      </trkpt>
      <trkpt lat="45.08304" lon="6.05927">
        <ele>1537.7</ele>
        <time>2018-12-08T17:41:27Z</time>
      </trkpt>
      <trkpt lat="45.08304" lon="6.05932">
        <ele>1538.3</ele>
        <time>2018-12-08T17:41:29Z</time>
      </trkpt>
      <trkpt lat="45.08304" lon="6.05937">
        <ele>1538.8</ele>
        <time>2018-12-08T17:41:31Z</time>
      </trkpt>
      <trkpt lat="45.08304" lon="6.05942">
        <ele>1539.3</ele>
        <time>2018-12-08T17:41:33Z</time>
      </trkpt>
      <trkpt lat="45.08304" lon="6.05947">
        <ele>1539.8</ele>
        <time>2018-12-08T17:41:35Z</time>
      </trkpt>
      <trkpt lat="45.08304" lon="6.0598">
        <ele>1543</ele>
        <time>2018-12-08T17:41:37Z</time>
      </trkpt>
      <trkpt lat="45.08305" lon="6.05985">
        <ele>1543.5</ele>
        <time>2018-12-08T17:41:39Z</time>
      </trkpt>
      <trkpt lat="45.08306" lon="6.0599">
        <ele>1544</ele>
        <time>2018-12-08T17:41:41Z</time>
      </trkpt>
      <trkpt lat="45.08306" lon="6.05995">
        <ele>1544.5</ele>
        <time>2018-12-08T17:41:43Z</time>
      </trkpt>
      <trkpt lat="45.08307" lon="6.06">
        <ele>1545.1</ele>
        <time>2018-12-08T17:41:45Z</time>
      </trkpt>
      <trkpt lat="45.08309" lon="6.06017">
        <ele>1546.7</ele>
        <time>2018-12-08T17:41:47Z</time>
      </trkpt>
      <trkpt lat="45.0831" lon="6.06024">
        <ele>1546.9</ele>
        <time>2018-12-08T17:41:49Z</time>
      </trkpt>
      <trkpt lat="45.08312" lon="6.06033">
        <ele>1547.3</ele>
        <time>2018-12-08T17:41:51Z</time>
      </trkpt>
      <trkpt lat="45.08314" lon="6.06044">
        <ele>1547.7</ele>
        <time>2018-12-08T17:41:53Z</time>
      </trkpt>
      <trkpt lat="45.08316" lon="6.06056">
        <ele>1548.1</ele>
        <time>2018-12-08T17:41:55Z</time>
      </trkpt>
      <trkpt lat="45.08318" lon="6.06066">
        <ele>1548.5</ele>
        <time>2018-12-08T17:41:57Z</time>
      </trkpt>
      <trkpt lat="45.08321" lon="6.06078">
        <ele>1549</ele>
        <time>2018-12-08T17:41:59Z</time>
      </trkpt>
      <trkpt lat="45.08323" lon="6.06089">
        <ele>1549.4</ele>
        <time>2018-12-08T17:42:01Z</time>
      </trkpt>
      <trkpt lat="45.08325" lon="6.061">
        <ele>1549.8</ele>
        <time>2018-12-08T17:42:03Z</time>
      </trkpt>
      <trkpt lat="45.08327" lon="6.06111">
        <ele>1550.2</ele>
        <time>2018-12-08T17:42:05Z</time>
      </trkpt>
      <trkpt lat="45.0833" lon="6.06123">
        <ele>1550.6</ele>
        <time>2018-12-08T17:42:07Z</time>
      </trkpt>
      <trkpt lat="45.08332" lon="6.06133">
        <ele>1551</ele>
        <time>2018-12-08T17:42:09Z</time>
      </trkpt>
      <trkpt lat="45.08334" lon="6.06144">
        <ele>1551.4</ele>
        <time>2018-12-08T17:42:11Z</time>
      </trkpt>
      <trkpt lat="45.08347" lon="6.06211">
        <ele>1554</ele>
        <time>2018-12-08T17:42:13Z</time>
      </trkpt>
      <trkpt lat="45.08348" lon="6.06222">
        <ele>1554.4</ele>
        <time>2018-12-08T17:42:15Z</time>
      </trkpt>
      <trkpt lat="45.08349" lon="6.06234">
        <ele>1554.8</ele>
        <time>2018-12-08T17:42:17Z</time>
      </trkpt>
      <trkpt lat="45.08353" lon="6.06258">
        <ele>1555.7</ele>
        <time>2018-12-08T17:42:19Z</time>
      </trkpt>
      <trkpt lat="45.08362" lon="6.06262">
        <ele>1556.3</ele>
        <time>2018-12-08T17:42:21Z</time>
      </trkpt>
      <trkpt lat="45.08368" lon="6.0625">
        <ele>1556.9</ele>
        <time>2018-12-08T17:42:23Z</time>
      </trkpt>
      <trkpt lat="45.08367" lon="6.06239">
        <ele>1557.3</ele>
        <time>2018-12-08T17:42:25Z</time>
      </trkpt>
      <trkpt lat="45.08366" lon="6.06227">
        <ele>1557.7</ele>
        <time>2018-12-08T17:42:27Z</time>
      </trkpt>
      <trkpt lat="45.08364" lon="6.06205">
        <ele>1558.5</ele>
        <time>2018-12-08T17:42:29Z</time>
      </trkpt>
      <trkpt lat="45.08364" lon="6.06195">
        <ele>1558.9</ele>
        <time>2018-12-08T17:42:31Z</time>
      </trkpt>
      <trkpt lat="45.08364" lon="6.06184">
        <ele>1559.3</ele>
        <time>2018-12-08T17:42:33Z</time>
      </trkpt>
      <trkpt lat="45.08364" lon="6.06174">
        <ele>1559.7</ele>
        <time>2018-12-08T17:42:35Z</time>
      </trkpt>
      <trkpt lat="45.08366" lon="6.06144">
        <ele>1560.8</ele>
        <time>2018-12-08T17:42:37Z</time>
      </trkpt>
      <trkpt lat="45.0837" lon="6.06135">
        <ele>1561.2</ele>
        <time>2018-12-08T17:42:39Z</time>
      </trkpt>
      <trkpt lat="45.08374" lon="6.06125">
        <ele>1561.7</ele>
        <time>2018-12-08T17:42:41Z</time>
      </trkpt>
      <trkpt lat="45.08377" lon="6.06116">
        <ele>1562.1</ele>
        <time>2018-12-08T17:42:43Z</time>
      </trkpt>
      <trkpt lat="45.08381" lon="6.06107">
        <ele>1562.6</ele>
        <time>2018-12-08T17:42:45Z</time>
      </trkpt>
      <trkpt lat="45.08385" lon="6.06097">
        <ele>1563</ele>
        <time>2018-12-08T17:42:47Z</time>
      </trkpt>
      <trkpt lat="45.08388" lon="6.06088">
        <ele>1563.5</ele>
        <time>2018-12-08T17:42:49Z</time>
      </trkpt>
      <trkpt lat="45.08403" lon="6.0605">
        <ele>1565.3</ele>
        <time>2018-12-08T17:42:51Z</time>
      </trkpt>
      <trkpt lat="45.08409" lon="6.06044">
        <ele>1565.7</ele>
        <time>2018-12-08T17:42:53Z</time>
      </trkpt>
      <trkpt lat="45.08419" lon="6.06036">
        <ele>1566.6</ele>
        <time>2018-12-08T17:42:55Z</time>
      </trkpt>
      <trkpt lat="45.08425" lon="6.06034">
        <ele>1567.2</ele>
        <time>2018-12-08T17:42:57Z</time>
      </trkpt>
      <trkpt lat="45.08429" lon="6.06032">
        <ele>1567.7</ele>
        <time>2018-12-08T17:42:59Z</time>
      </trkpt>
      <trkpt lat="45.08433" lon="6.0603">
        <ele>1568.1</ele>
        <time>2018-12-08T17:43:01Z</time>
      </trkpt>
      <trkpt lat="45.08436" lon="6.06028">
        <ele>1568.6</ele>
        <time>2018-12-08T17:43:03Z</time>
      </trkpt>
      <trkpt lat="45.0844" lon="6.06027">
        <ele>1569</ele>
        <time>2018-12-08T17:43:05Z</time>
      </trkpt>
      <trkpt lat="45.08456" lon="6.0602">
        <ele>1570.8</ele>
        <time>2018-12-08T17:43:07Z</time>
      </trkpt>
      <trkpt lat="45.0846" lon="6.06019">
        <ele>1571.3</ele>
        <time>2018-12-08T17:43:09Z</time>
      </trkpt>
      <trkpt lat="45.08464" lon="6.06017">
        <ele>1571.7</ele>
        <time>2018-12-08T17:43:11Z</time>
      </trkpt>
      <trkpt lat="45.08468" lon="6.06016">
        <ele>1572.2</ele>
        <time>2018-12-08T17:43:13Z</time>
      </trkpt>
      <trkpt lat="45.08473" lon="6.06014">
        <ele>1572.7</ele>
        <time>2018-12-08T17:43:15Z</time>
      </trkpt>
      <trkpt lat="45.08477" lon="6.06013">
        <ele>1573.2</ele>
        <time>2018-12-08T17:43:17Z</time>
      </trkpt>
      <trkpt lat="45.08481" lon="6.06011">
        <ele>1573.7</ele>
        <time>2018-12-08T17:43:19Z</time>
      </trkpt>
      <trkpt lat="45.08497" lon="6.06005">
        <ele>1575.5</ele>
        <time>2018-12-08T17:43:21Z</time>
      </trkpt>
      <trkpt lat="45.08501" lon="6.06003">
        <ele>1576</ele>
        <time>2018-12-08T17:43:23Z</time>
      </trkpt>
      <trkpt lat="45.08506" lon="6.06001">
        <ele>1576.5</ele>
        <time>2018-12-08T17:43:25Z</time>
      </trkpt>
      <trkpt lat="45.0851" lon="6.05999">
        <ele>1577</ele>
        <time>2018-12-08T17:43:27Z</time>
      </trkpt>
      <trkpt lat="45.08514" lon="6.05997">
        <ele>1577.5</ele>
        <time>2018-12-08T17:43:29Z</time>
      </trkpt>
      <trkpt lat="45.08518" lon="6.05995">
        <ele>1578</ele>
        <time>2018-12-08T17:43:31Z</time>
      </trkpt>
      <trkpt lat="45.08523" lon="6.05993">
        <ele>1578.5</ele>
        <time>2018-12-08T17:43:33Z</time>
      </trkpt>
      <trkpt lat="45.08527" lon="6.05991">
        <ele>1579</ele>
        <time>2018-12-08T17:43:35Z</time>
      </trkpt>
      <trkpt lat="45.08546" lon="6.0598">
        <ele>1581.2</ele>
        <time>2018-12-08T17:43:37Z</time>
      </trkpt>
      <trkpt lat="45.0855" lon="6.05977">
        <ele>1581.7</ele>
        <time>2018-12-08T17:43:39Z</time>
      </trkpt>
      <trkpt lat="45.08555" lon="6.05972">
        <ele>1582.2</ele>
        <time>2018-12-08T17:43:41Z</time>
      </trkpt>
      <trkpt lat="45.08559" lon="6.05968">
        <ele>1582.8</ele>
        <time>2018-12-08T17:43:43Z</time>
      </trkpt>
      <trkpt lat="45.08563" lon="6.05964">
        <ele>1583.2</ele>
        <time>2018-12-08T17:43:45Z</time>
      </trkpt>
      <trkpt lat="45.08567" lon="6.05961">
        <ele>1583.6</ele>
        <time>2018-12-08T17:43:47Z</time>
      </trkpt>
      <trkpt lat="45.0857" lon="6.05958">
        <ele>1584</ele>
        <time>2018-12-08T17:43:49Z</time>
      </trkpt>
      <trkpt lat="45.08574" lon="6.05954">
        <ele>1584.5</ele>
        <time>2018-12-08T17:43:51Z</time>
      </trkpt>
      <trkpt lat="45.08579" lon="6.05949">
        <ele>1585</ele>
        <time>2018-12-08T17:43:53Z</time>
      </trkpt>
      <trkpt lat="45.08582" lon="6.05946">
        <ele>1585.5</ele>
        <time>2018-12-08T17:43:55Z</time>
      </trkpt>
      <trkpt lat="45.08586" lon="6.05942">
        <ele>1585.9</ele>
        <time>2018-12-08T17:43:57Z</time>
      </trkpt>
      <trkpt lat="45.0859" lon="6.05939">
        <ele>1586.4</ele>
        <time>2018-12-08T17:43:59Z</time>
      </trkpt>
      <trkpt lat="45.08594" lon="6.05935">
        <ele>1586.8</ele>
        <time>2018-12-08T17:44:01Z</time>
      </trkpt>
      <trkpt lat="45.08598" lon="6.05931">
        <ele>1587.3</ele>
        <time>2018-12-08T17:44:03Z</time>
      </trkpt>
      <trkpt lat="45.08626" lon="6.05904">
        <ele>1590.6</ele>
        <time>2018-12-08T17:44:05Z</time>
      </trkpt>
      <trkpt lat="45.08631" lon="6.05899">
        <ele>1591.1</ele>
        <time>2018-12-08T17:44:07Z</time>
      </trkpt>
      <trkpt lat="45.08635" lon="6.05894">
        <ele>1591.6</ele>
        <time>2018-12-08T17:44:09Z</time>
      </trkpt>
      <trkpt lat="45.08638" lon="6.0589">
        <ele>1592.1</ele>
        <time>2018-12-08T17:44:11Z</time>
      </trkpt>
      <trkpt lat="45.08649" lon="6.05878">
        <ele>1593.3</ele>
        <time>2018-12-08T17:44:13Z</time>
      </trkpt>
      <trkpt lat="45.08654" lon="6.05877">
        <ele>1593.8</ele>
        <time>2018-12-08T17:44:15Z</time>
      </trkpt>
      <trkpt lat="45.08662" lon="6.05879">
        <ele>1594.7</ele>
        <time>2018-12-08T17:44:17Z</time>
      </trkpt>
      <trkpt lat="45.08665" lon="6.05887">
        <ele>1595.2</ele>
        <time>2018-12-08T17:44:19Z</time>
      </trkpt>
      <trkpt lat="45.08669" lon="6.05894">
        <ele>1595.6</ele>
        <time>2018-12-08T17:44:21Z</time>
      </trkpt>
      <trkpt lat="45.08671" lon="6.05909">
        <ele>1596.7</ele>
        <time>2018-12-08T17:44:23Z</time>
      </trkpt>
      <trkpt lat="45.08665" lon="6.05917">
        <ele>1597.4</ele>
        <time>2018-12-08T17:44:25Z</time>
      </trkpt>
      <trkpt lat="45.08661" lon="6.05922">
        <ele>1597.9</ele>
        <time>2018-12-08T17:44:27Z</time>
      </trkpt>
      <trkpt lat="45.08656" lon="6.05927">
        <ele>1598.4</ele>
        <time>2018-12-08T17:44:29Z</time>
      </trkpt>
      <trkpt lat="45.08651" lon="6.05933">
        <ele>1598.9</ele>
        <time>2018-12-08T17:44:31Z</time>
      </trkpt>
      <trkpt lat="45.08646" lon="6.05938">
        <ele>1599.3</ele>
        <time>2018-12-08T17:44:33Z</time>
      </trkpt>
      <trkpt lat="45.08642" lon="6.05943">
        <ele>1599.8</ele>
        <time>2018-12-08T17:44:35Z</time>
      </trkpt>
      <trkpt lat="45.08625" lon="6.05962">
        <ele>1601.6</ele>
        <time>2018-12-08T17:44:37Z</time>
      </trkpt>
      <trkpt lat="45.08621" lon="6.05968">
        <ele>1602.1</ele>
        <time>2018-12-08T17:44:39Z</time>
      </trkpt>
      <trkpt lat="45.08617" lon="6.05975">
        <ele>1602.6</ele>
        <time>2018-12-08T17:44:41Z</time>
      </trkpt>
      <trkpt lat="45.0861" lon="6.05988">
        <ele>1603.6</ele>
        <time>2018-12-08T17:44:43Z</time>
      </trkpt>
      <trkpt lat="45.08607" lon="6.05995">
        <ele>1604</ele>
        <time>2018-12-08T17:44:45Z</time>
      </trkpt>
      <trkpt lat="45.08604" lon="6.06002">
        <ele>1604.5</ele>
        <time>2018-12-08T17:44:47Z</time>
      </trkpt>
      <trkpt lat="45.08601" lon="6.06008">
        <ele>1605</ele>
        <time>2018-12-08T17:44:49Z</time>
      </trkpt>
      <trkpt lat="45.08598" lon="6.06016">
        <ele>1605.5</ele>
        <time>2018-12-08T17:44:51Z</time>
      </trkpt>
      <trkpt lat="45.08595" lon="6.06023">
        <ele>1605.9</ele>
        <time>2018-12-08T17:44:53Z</time>
      </trkpt>
      <trkpt lat="45.08592" lon="6.06029">
        <ele>1606.4</ele>
        <time>2018-12-08T17:44:55Z</time>
      </trkpt>
      <trkpt lat="45.08579" lon="6.06059">
        <ele>1608.5</ele>
        <time>2018-12-08T17:44:57Z</time>
      </trkpt>
      <trkpt lat="45.08575" lon="6.06065">
        <ele>1609</ele>
        <time>2018-12-08T17:44:59Z</time>
      </trkpt>
      <trkpt lat="45.08571" lon="6.06072">
        <ele>1609.4</ele>
        <time>2018-12-08T17:45:01Z</time>
      </trkpt>
      <trkpt lat="45.08567" lon="6.06078">
        <ele>1609.9</ele>
        <time>2018-12-08T17:45:03Z</time>
      </trkpt>
      <trkpt lat="45.08563" lon="6.06085">
        <ele>1610.4</ele>
        <time>2018-12-08T17:45:05Z</time>
      </trkpt>
      <trkpt lat="45.0856" lon="6.06091">
        <ele>1610.9</ele>
        <time>2018-12-08T17:45:07Z</time>
      </trkpt>
      <trkpt lat="45.08556" lon="6.06098">
        <ele>1611.4</ele>
        <time>2018-12-08T17:45:09Z</time>
      </trkpt>
      <trkpt lat="45.08552" lon="6.06104">
        <ele>1611.9</ele>
        <time>2018-12-08T17:45:11Z</time>
      </trkpt>
      <trkpt lat="45.08548" lon="6.06111">
        <ele>1612.4</ele>
        <time>2018-12-08T17:45:13Z</time>
      </trkpt>
      <trkpt lat="45.08544" lon="6.06117">
        <ele>1612.9</ele>
        <time>2018-12-08T17:45:15Z</time>
      </trkpt>
      <trkpt lat="45.0854" lon="6.06124">
        <ele>1613.4</ele>
        <time>2018-12-08T17:45:17Z</time>
      </trkpt>
      <trkpt lat="45.08537" lon="6.0613">
        <ele>1613.9</ele>
        <time>2018-12-08T17:45:19Z</time>
      </trkpt>
      <trkpt lat="45.08533" lon="6.06136">
        <ele>1614.4</ele>
        <time>2018-12-08T17:45:21Z</time>
      </trkpt>
      <trkpt lat="45.0851" lon="6.06177">
        <ele>1617.5</ele>
        <time>2018-12-08T17:45:23Z</time>
      </trkpt>
      <trkpt lat="45.08508" lon="6.06184">
        <ele>1618</ele>
        <time>2018-12-08T17:45:25Z</time>
      </trkpt>
      <trkpt lat="45.08507" lon="6.06191">
        <ele>1618.5</ele>
        <time>2018-12-08T17:45:27Z</time>
      </trkpt>
      <trkpt lat="45.08506" lon="6.06197">
        <ele>1618.9</ele>
        <time>2018-12-08T17:45:29Z</time>
      </trkpt>
      <trkpt lat="45.08505" lon="6.06202">
        <ele>1619.4</ele>
        <time>2018-12-08T17:45:31Z</time>
      </trkpt>
      <trkpt lat="45.08504" lon="6.06208">
        <ele>1619.8</ele>
        <time>2018-12-08T17:45:33Z</time>
      </trkpt>
      <trkpt lat="45.08503" lon="6.06215">
        <ele>1620.3</ele>
        <time>2018-12-08T17:45:35Z</time>
      </trkpt>
      <trkpt lat="45.08501" lon="6.06222">
        <ele>1620.8</ele>
        <time>2018-12-08T17:45:37Z</time>
      </trkpt>
      <trkpt lat="45.085" lon="6.06228">
        <ele>1621.3</ele>
        <time>2018-12-08T17:45:39Z</time>
      </trkpt>
      <trkpt lat="45.08499" lon="6.06234">
        <ele>1621.7</ele>
        <time>2018-12-08T17:45:41Z</time>
      </trkpt>
      <trkpt lat="45.08498" lon="6.06241">
        <ele>1622.2</ele>
        <time>2018-12-08T17:45:43Z</time>
      </trkpt>
      <trkpt lat="45.08497" lon="6.06247">
        <ele>1622.7</ele>
        <time>2018-12-08T17:45:45Z</time>
      </trkpt>
      <trkpt lat="45.08495" lon="6.06253">
        <ele>1623.2</ele>
        <time>2018-12-08T17:45:47Z</time>
      </trkpt>
      <trkpt lat="45.08494" lon="6.0626">
        <ele>1623.7</ele>
        <time>2018-12-08T17:45:49Z</time>
      </trkpt>
      <trkpt lat="45.08493" lon="6.06266">
        <ele>1624.2</ele>
        <time>2018-12-08T17:45:51Z</time>
      </trkpt>
      <trkpt lat="45.08484" lon="6.06313">
        <ele>1627.6</ele>
        <time>2018-12-08T17:45:53Z</time>
      </trkpt>
      <trkpt lat="45.08484" lon="6.06319">
        <ele>1628.1</ele>
        <time>2018-12-08T17:45:55Z</time>
      </trkpt>
      <trkpt lat="45.08484" lon="6.06326">
        <ele>1628.6</ele>
        <time>2018-12-08T17:45:57Z</time>
      </trkpt>
      <trkpt lat="45.08483" lon="6.06333">
        <ele>1629.1</ele>
        <time>2018-12-08T17:45:59Z</time>
      </trkpt>
      <trkpt lat="45.08483" lon="6.0634">
        <ele>1629.6</ele>
        <time>2018-12-08T17:46:01Z</time>
      </trkpt>
      <trkpt lat="45.08482" lon="6.06346">
        <ele>1630</ele>
        <time>2018-12-08T17:46:03Z</time>
      </trkpt>
      <trkpt lat="45.08482" lon="6.06352">
        <ele>1630.5</ele>
        <time>2018-12-08T17:46:05Z</time>
      </trkpt>
      <trkpt lat="45.08482" lon="6.06359">
        <ele>1631</ele>
        <time>2018-12-08T17:46:07Z</time>
      </trkpt>
      <trkpt lat="45.0848" lon="6.06387">
        <ele>1633</ele>
        <time>2018-12-08T17:46:09Z</time>
      </trkpt>
      <trkpt lat="45.08478" lon="6.06393">
        <ele>1633.5</ele>
        <time>2018-12-08T17:46:11Z</time>
      </trkpt>
      <trkpt lat="45.08477" lon="6.06399">
        <ele>1633.9</ele>
        <time>2018-12-08T17:46:13Z</time>
      </trkpt>
      <trkpt lat="45.08476" lon="6.06406">
        <ele>1634.4</ele>
        <time>2018-12-08T17:46:15Z</time>
      </trkpt>
      <trkpt lat="45.08474" lon="6.06412">
        <ele>1634.9</ele>
        <time>2018-12-08T17:46:17Z</time>
      </trkpt>
      <trkpt lat="45.08473" lon="6.06419">
        <ele>1635.4</ele>
        <time>2018-12-08T17:46:19Z</time>
      </trkpt>
      <trkpt lat="45.08472" lon="6.06425">
        <ele>1635.9</ele>
        <time>2018-12-08T17:46:21Z</time>
      </trkpt>
      <trkpt lat="45.0847" lon="6.06432">
        <ele>1636.4</ele>
        <time>2018-12-08T17:46:23Z</time>
      </trkpt>
      <trkpt lat="45.08469" lon="6.06438">
        <ele>1636.9</ele>
        <time>2018-12-08T17:46:25Z</time>
      </trkpt>
      <trkpt lat="45.08462" lon="6.06469">
        <ele>1639.2</ele>
        <time>2018-12-08T17:46:27Z</time>
      </trkpt>
      <trkpt lat="45.08461" lon="6.06475">
        <ele>1639.7</ele>
        <time>2018-12-08T17:46:29Z</time>
      </trkpt>
      <trkpt lat="45.08459" lon="6.06481">
        <ele>1640.2</ele>
        <time>2018-12-08T17:46:31Z</time>
      </trkpt>
      <trkpt lat="45.08458" lon="6.06488">
        <ele>1640.7</ele>
        <time>2018-12-08T17:46:33Z</time>
      </trkpt>
      <trkpt lat="45.08453" lon="6.06504">
        <ele>1641.9</ele>
        <time>2018-12-08T17:46:35Z</time>
      </trkpt>
      <trkpt lat="45.08451" lon="6.0651">
        <ele>1642.4</ele>
        <time>2018-12-08T17:46:37Z</time>
      </trkpt>
      <trkpt lat="45.08448" lon="6.06515">
        <ele>1642.9</ele>
        <time>2018-12-08T17:46:39Z</time>
      </trkpt>
      <trkpt lat="45.08446" lon="6.06521">
        <ele>1643.4</ele>
        <time>2018-12-08T17:46:41Z</time>
      </trkpt>
      <trkpt lat="45.08443" lon="6.06527">
        <ele>1643.8</ele>
        <time>2018-12-08T17:46:43Z</time>
      </trkpt>
      <trkpt lat="45.08441" lon="6.06533">
        <ele>1644.4</ele>
        <time>2018-12-08T17:46:45Z</time>
      </trkpt>
      <trkpt lat="45.08438" lon="6.06539">
        <ele>1644.9</ele>
        <time>2018-12-08T17:46:47Z</time>
      </trkpt>
      <trkpt lat="45.08429" lon="6.06562">
        <ele>1646.8</ele>
        <time>2018-12-08T17:46:49Z</time>
      </trkpt>
      <trkpt lat="45.08429" lon="6.06571">
        <ele>1647.3</ele>
        <time>2018-12-08T17:46:51Z</time>
      </trkpt>
      <trkpt lat="45.08432" lon="6.06582">
        <ele>1648</ele>
        <time>2018-12-08T17:46:53Z</time>
      </trkpt>
      <trkpt lat="45.0844" lon="6.06586">
        <ele>1648.6</ele>
        <time>2018-12-08T17:46:55Z</time>
      </trkpt>
      <trkpt lat="45.0845" lon="6.06582">
        <ele>1649.4</ele>
        <time>2018-12-08T17:46:57Z</time>
      </trkpt>
      <trkpt lat="45.08452" lon="6.06574">
        <ele>1649.8</ele>
        <time>2018-12-08T17:46:59Z</time>
      </trkpt>
      <trkpt lat="45.08454" lon="6.06565">
        <ele>1650.3</ele>
        <time>2018-12-08T17:47:01Z</time>
      </trkpt>
      <trkpt lat="45.08457" lon="6.06556">
        <ele>1650.8</ele>
        <time>2018-12-08T17:47:03Z</time>
      </trkpt>
      <trkpt lat="45.08459" lon="6.06547">
        <ele>1651.3</ele>
        <time>2018-12-08T17:47:05Z</time>
      </trkpt>
      <trkpt lat="45.08461" lon="6.06538">
        <ele>1651.7</ele>
        <time>2018-12-08T17:47:07Z</time>
      </trkpt>
      <trkpt lat="45.08469" lon="6.0651">
        <ele>1653.3</ele>
        <time>2018-12-08T17:47:09Z</time>
      </trkpt>
      <trkpt lat="45.08473" lon="6.06502">
        <ele>1653.8</ele>
        <time>2018-12-08T17:47:11Z</time>
      </trkpt>
      <trkpt lat="45.08476" lon="6.06494">
        <ele>1654.3</ele>
        <time>2018-12-08T17:47:13Z</time>
      </trkpt>
      <trkpt lat="45.0848" lon="6.06486">
        <ele>1654.7</ele>
        <time>2018-12-08T17:47:15Z</time>
      </trkpt>
      <trkpt lat="45.08484" lon="6.06478">
        <ele>1655.2</ele>
        <time>2018-12-08T17:47:17Z</time>
      </trkpt>
      <trkpt lat="45.08487" lon="6.06471">
        <ele>1655.7</ele>
        <time>2018-12-08T17:47:19Z</time>
      </trkpt>
      <trkpt lat="45.08491" lon="6.06463">
        <ele>1656.2</ele>
        <time>2018-12-08T17:47:21Z</time>
      </trkpt>
      <trkpt lat="45.08495" lon="6.06454">
        <ele>1656.7</ele>
        <time>2018-12-08T17:47:23Z</time>
      </trkpt>
      <trkpt lat="45.08498" lon="6.06447">
        <ele>1657.1</ele>
        <time>2018-12-08T17:47:25Z</time>
      </trkpt>
      <trkpt lat="45.08502" lon="6.06439">
        <ele>1657.6</ele>
        <time>2018-12-08T17:47:27Z</time>
      </trkpt>
      <trkpt lat="45.0852" lon="6.06398">
        <ele>1659.9</ele>
        <time>2018-12-08T17:47:29Z</time>
      </trkpt>
      <trkpt lat="45.08524" lon="6.06386">
        <ele>1660.3</ele>
        <time>2018-12-08T17:47:31Z</time>
      </trkpt>
      <trkpt lat="45.08528" lon="6.06375">
        <ele>1660.6</ele>
        <time>2018-12-08T17:47:33Z</time>
      </trkpt>
      <trkpt lat="45.08532" lon="6.06363">
        <ele>1660.9</ele>
        <time>2018-12-08T17:47:35Z</time>
      </trkpt>
      <trkpt lat="45.08544" lon="6.06333">
        <ele>1661.8</ele>
        <time>2018-12-08T17:47:37Z</time>
      </trkpt>
      <trkpt lat="45.0855" lon="6.06323">
        <ele>1662.2</ele>
        <time>2018-12-08T17:47:39Z</time>
      </trkpt>
      <trkpt lat="45.08557" lon="6.06314">
        <ele>1662.5</ele>
        <time>2018-12-08T17:47:41Z</time>
      </trkpt>
      <trkpt lat="45.08563" lon="6.06304">
        <ele>1662.8</ele>
        <time>2018-12-08T17:47:43Z</time>
      </trkpt>
      <trkpt lat="45.0857" lon="6.06294">
        <ele>1663.2</ele>
        <time>2018-12-08T17:47:45Z</time>
      </trkpt>
      <trkpt lat="45.08577" lon="6.06284">
        <ele>1663.5</ele>
        <time>2018-12-08T17:47:47Z</time>
      </trkpt>
      <trkpt lat="45.08602" lon="6.06254">
        <ele>1665.1</ele>
        <time>2018-12-08T17:47:49Z</time>
      </trkpt>
      <trkpt lat="45.08609" lon="6.0625">
        <ele>1665.8</ele>
        <time>2018-12-08T17:47:51Z</time>
      </trkpt>
      <trkpt lat="45.08615" lon="6.06247">
        <ele>1666.4</ele>
        <time>2018-12-08T17:47:53Z</time>
      </trkpt>
      <trkpt lat="45.0862" lon="6.06245">
        <ele>1666.9</ele>
        <time>2018-12-08T17:47:55Z</time>
      </trkpt>
      <trkpt lat="45.08624" lon="6.06242">
        <ele>1667.3</ele>
        <time>2018-12-08T17:47:57Z</time>
      </trkpt>
      <trkpt lat="45.08629" lon="6.0624">
        <ele>1667.8</ele>
        <time>2018-12-08T17:47:59Z</time>
      </trkpt>
      <trkpt lat="45.08634" lon="6.06237">
        <ele>1668.2</ele>
        <time>2018-12-08T17:48:01Z</time>
      </trkpt>
      <trkpt lat="45.08639" lon="6.06235">
        <ele>1668.7</ele>
        <time>2018-12-08T17:48:03Z</time>
      </trkpt>
      <trkpt lat="45.08644" lon="6.06233">
        <ele>1669.2</ele>
        <time>2018-12-08T17:48:05Z</time>
      </trkpt>
      <trkpt lat="45.08649" lon="6.0623">
        <ele>1669.7</ele>
        <time>2018-12-08T17:48:07Z</time>
      </trkpt>
      <trkpt lat="45.08654" lon="6.06228">
        <ele>1670.2</ele>
        <time>2018-12-08T17:48:09Z</time>
      </trkpt>
      <trkpt lat="45.08659" lon="6.06225">
        <ele>1670.7</ele>
        <time>2018-12-08T17:48:11Z</time>
      </trkpt>
      <trkpt lat="45.08664" lon="6.06223">
        <ele>1671.1</ele>
        <time>2018-12-08T17:48:13Z</time>
      </trkpt>
      <trkpt lat="45.08668" lon="6.0622">
        <ele>1671.6</ele>
        <time>2018-12-08T17:48:15Z</time>
      </trkpt>
      <trkpt lat="45.08673" lon="6.06218">
        <ele>1672.1</ele>
        <time>2018-12-08T17:48:17Z</time>
      </trkpt>
      <trkpt lat="45.08678" lon="6.06216">
        <ele>1672.5</ele>
        <time>2018-12-08T17:48:19Z</time>
      </trkpt>
      <trkpt lat="45.08683" lon="6.06213">
        <ele>1673</ele>
        <time>2018-12-08T17:48:21Z</time>
      </trkpt>
      <trkpt lat="45.08688" lon="6.0621">
        <ele>1673.5</ele>
        <time>2018-12-08T17:48:23Z</time>
      </trkpt>
      <trkpt lat="45.08693" lon="6.06208">
        <ele>1674</ele>
        <time>2018-12-08T17:48:25Z</time>
      </trkpt>
      <trkpt lat="45.08738" lon="6.06189">
        <ele>1678.4</ele>
        <time>2018-12-08T17:48:27Z</time>
      </trkpt>
      <trkpt lat="45.08746" lon="6.06193">
        <ele>1679.2</ele>
        <time>2018-12-08T17:48:29Z</time>
      </trkpt>
      <trkpt lat="45.08748" lon="6.062">
        <ele>1679.7</ele>
        <time>2018-12-08T17:48:31Z</time>
      </trkpt>
      <trkpt lat="45.0875" lon="6.06211">
        <ele>1680.6</ele>
        <time>2018-12-08T17:48:33Z</time>
      </trkpt>
      <trkpt lat="45.08746" lon="6.06216">
        <ele>1681.1</ele>
        <time>2018-12-08T17:48:35Z</time>
      </trkpt>
      <trkpt lat="45.0874" lon="6.06223">
        <ele>1681.9</ele>
        <time>2018-12-08T17:48:37Z</time>
      </trkpt>
      <trkpt lat="45.08735" lon="6.06224">
        <ele>1682.4</ele>
        <time>2018-12-08T17:48:39Z</time>
      </trkpt>
      <trkpt lat="45.08729" lon="6.06225">
        <ele>1682.9</ele>
        <time>2018-12-08T17:48:41Z</time>
      </trkpt>
      <trkpt lat="45.08724" lon="6.06226">
        <ele>1683.5</ele>
        <time>2018-12-08T17:48:43Z</time>
      </trkpt>
      <trkpt lat="45.08719" lon="6.06227">
        <ele>1684</ele>
        <time>2018-12-08T17:48:45Z</time>
      </trkpt>
      <trkpt lat="45.08715" lon="6.06228">
        <ele>1684.4</ele>
        <time>2018-12-08T17:48:47Z</time>
      </trkpt>
      <trkpt lat="45.08699" lon="6.06234">
        <ele>1686.1</ele>
        <time>2018-12-08T17:48:49Z</time>
      </trkpt>
      <trkpt lat="45.08694" lon="6.06237">
        <ele>1686.6</ele>
        <time>2018-12-08T17:48:51Z</time>
      </trkpt>
      <trkpt lat="45.0869" lon="6.0624">
        <ele>1687.1</ele>
        <time>2018-12-08T17:48:53Z</time>
      </trkpt>
      <trkpt lat="45.08677" lon="6.06248">
        <ele>1688.5</ele>
        <time>2018-12-08T17:48:55Z</time>
      </trkpt>
      <trkpt lat="45.08674" lon="6.06253">
        <ele>1689</ele>
        <time>2018-12-08T17:48:57Z</time>
      </trkpt>
      <trkpt lat="45.0867" lon="6.06258">
        <ele>1689.5</ele>
        <time>2018-12-08T17:48:59Z</time>
      </trkpt>
      <trkpt lat="45.08666" lon="6.06263">
        <ele>1690</ele>
        <time>2018-12-08T17:49:01Z</time>
      </trkpt>
      <trkpt lat="45.08662" lon="6.06267">
        <ele>1690.5</ele>
        <time>2018-12-08T17:49:03Z</time>
      </trkpt>
      <trkpt lat="45.08658" lon="6.06272">
        <ele>1691</ele>
        <time>2018-12-08T17:49:05Z</time>
      </trkpt>
      <trkpt lat="45.08655" lon="6.06277">
        <ele>1691.5</ele>
        <time>2018-12-08T17:49:07Z</time>
      </trkpt>
      <trkpt lat="45.08651" lon="6.06281">
        <ele>1692</ele>
        <time>2018-12-08T17:49:09Z</time>
      </trkpt>
      <trkpt lat="45.08646" lon="6.06287">
        <ele>1692.6</ele>
        <time>2018-12-08T17:49:11Z</time>
      </trkpt>
      <trkpt lat="45.08643" lon="6.06291">
        <ele>1693.1</ele>
        <time>2018-12-08T17:49:13Z</time>
      </trkpt>
      <trkpt lat="45.08625" lon="6.06315">
        <ele>1695.5</ele>
        <time>2018-12-08T17:49:15Z</time>
      </trkpt>
      <trkpt lat="45.08622" lon="6.0632">
        <ele>1696</ele>
        <time>2018-12-08T17:49:17Z</time>
      </trkpt>
      <trkpt lat="45.0862" lon="6.06326">
        <ele>1696.4</ele>
        <time>2018-12-08T17:49:19Z</time>
      </trkpt>
      <trkpt lat="45.08618" lon="6.06331">
        <ele>1696.9</ele>
        <time>2018-12-08T17:49:21Z</time>
      </trkpt>
      <trkpt lat="45.08616" lon="6.06337">
        <ele>1697.3</ele>
        <time>2018-12-08T17:49:23Z</time>
      </trkpt>
      <trkpt lat="45.08613" lon="6.06342">
        <ele>1697.8</ele>
        <time>2018-12-08T17:49:25Z</time>
      </trkpt>
      <trkpt lat="45.08611" lon="6.06347">
        <ele>1698.2</ele>
        <time>2018-12-08T17:49:27Z</time>
      </trkpt>
      <trkpt lat="45.08609" lon="6.06352">
        <ele>1698.6</ele>
        <time>2018-12-08T17:49:29Z</time>
      </trkpt>
      <trkpt lat="45.08607" lon="6.06358">
        <ele>1699.1</ele>
        <time>2018-12-08T17:49:31Z</time>
      </trkpt>
      <trkpt lat="45.08605" lon="6.06363">
        <ele>1699.5</ele>
        <time>2018-12-08T17:49:33Z</time>
      </trkpt>
      <trkpt lat="45.08602" lon="6.06369">
        <ele>1700</ele>
        <time>2018-12-08T17:49:35Z</time>
      </trkpt>
      <trkpt lat="45.08591" lon="6.06398">
        <ele>1702.4</ele>
        <time>2018-12-08T17:49:37Z</time>
      </trkpt>
      <trkpt lat="45.0859" lon="6.06403">
        <ele>1702.9</ele>
        <time>2018-12-08T17:49:39Z</time>
      </trkpt>
      <trkpt lat="45.0859" lon="6.06408">
        <ele>1703.3</ele>
        <time>2018-12-08T17:49:41Z</time>
      </trkpt>
      <trkpt lat="45.08589" lon="6.06413">
        <ele>1703.8</ele>
        <time>2018-12-08T17:49:43Z</time>
      </trkpt>
      <trkpt lat="45.08587" lon="6.06427">
        <ele>1705.1</ele>
        <time>2018-12-08T17:49:45Z</time>
      </trkpt>
      <trkpt lat="45.08587" lon="6.06433">
        <ele>1705.6</ele>
        <time>2018-12-08T17:49:47Z</time>
      </trkpt>
      <trkpt lat="45.08587" lon="6.06439">
        <ele>1706.2</ele>
        <time>2018-12-08T17:49:49Z</time>
      </trkpt>
      <trkpt lat="45.08587" lon="6.06445">
        <ele>1706.7</ele>
        <time>2018-12-08T17:49:51Z</time>
      </trkpt>
      <trkpt lat="45.08587" lon="6.06451">
        <ele>1707.2</ele>
        <time>2018-12-08T17:49:53Z</time>
      </trkpt>
      <trkpt lat="45.08587" lon="6.06457">
        <ele>1707.8</ele>
        <time>2018-12-08T17:49:55Z</time>
      </trkpt>
      <trkpt lat="45.08587" lon="6.06478">
        <ele>1709.7</ele>
        <time>2018-12-08T17:49:57Z</time>
      </trkpt>
      <trkpt lat="45.08585" lon="6.06483">
        <ele>1710.2</ele>
        <time>2018-12-08T17:49:59Z</time>
      </trkpt>
      <trkpt lat="45.08584" lon="6.06489">
        <ele>1710.8</ele>
        <time>2018-12-08T17:50:01Z</time>
      </trkpt>
      <trkpt lat="45.08582" lon="6.06494">
        <ele>1711.3</ele>
        <time>2018-12-08T17:50:03Z</time>
      </trkpt>
      <trkpt lat="45.08581" lon="6.065">
        <ele>1711.8</ele>
        <time>2018-12-08T17:50:05Z</time>
      </trkpt>
      <trkpt lat="45.0858" lon="6.06505">
        <ele>1712.4</ele>
        <time>2018-12-08T17:50:07Z</time>
      </trkpt>
      <trkpt lat="45.08578" lon="6.06511">
        <ele>1712.9</ele>
        <time>2018-12-08T17:50:09Z</time>
      </trkpt>
      <trkpt lat="45.08577" lon="6.06516">
        <ele>1713.4</ele>
        <time>2018-12-08T17:50:11Z</time>
      </trkpt>
      <trkpt lat="45.08575" lon="6.06522">
        <ele>1713.9</ele>
        <time>2018-12-08T17:50:13Z</time>
      </trkpt>
      <trkpt lat="45.08574" lon="6.06527">
        <ele>1714.5</ele>
        <time>2018-12-08T17:50:15Z</time>
      </trkpt>
      <trkpt lat="45.08572" lon="6.06533">
        <ele>1715</ele>
        <time>2018-12-08T17:50:17Z</time>
      </trkpt>
      <trkpt lat="45.08571" lon="6.06538">
        <ele>1715.5</ele>
        <time>2018-12-08T17:50:19Z</time>
      </trkpt>
      <trkpt lat="45.08569" lon="6.06544">
        <ele>1716.1</ele>
        <time>2018-12-08T17:50:21Z</time>
      </trkpt>
      <trkpt lat="45.08561" lon="6.06579">
        <ele>1719.4</ele>
        <time>2018-12-08T17:50:23Z</time>
      </trkpt>
      <trkpt lat="45.0856" lon="6.06584">
        <ele>1719.9</ele>
        <time>2018-12-08T17:50:25Z</time>
      </trkpt>
      <trkpt lat="45.08559" lon="6.0659">
        <ele>1720.4</ele>
        <time>2018-12-08T17:50:27Z</time>
      </trkpt>
      <trkpt lat="45.08557" lon="6.06596">
        <ele>1721</ele>
        <time>2018-12-08T17:50:29Z</time>
      </trkpt>
      <trkpt lat="45.08556" lon="6.06601">
        <ele>1721.5</ele>
        <time>2018-12-08T17:50:31Z</time>
      </trkpt>
      <trkpt lat="45.08555" lon="6.06607">
        <ele>1722</ele>
        <time>2018-12-08T17:50:33Z</time>
      </trkpt>
      <trkpt lat="45.08554" lon="6.06612">
        <ele>1722.6</ele>
        <time>2018-12-08T17:50:35Z</time>
      </trkpt>
      <trkpt lat="45.08553" lon="6.06618">
        <ele>1723.1</ele>
        <time>2018-12-08T17:50:37Z</time>
      </trkpt>
      <trkpt lat="45.08548" lon="6.06642">
        <ele>1725.4</ele>
        <time>2018-12-08T17:50:39Z</time>
      </trkpt>
      <trkpt lat="45.08546" lon="6.06647">
        <ele>1725.8</ele>
        <time>2018-12-08T17:50:41Z</time>
      </trkpt>
      <trkpt lat="45.08544" lon="6.06652">
        <ele>1726.3</ele>
        <time>2018-12-08T17:50:43Z</time>
      </trkpt>
      <trkpt lat="45.08543" lon="6.06657">
        <ele>1726.8</ele>
        <time>2018-12-08T17:50:45Z</time>
      </trkpt>
      <trkpt lat="45.08541" lon="6.06662">
        <ele>1727.3</ele>
        <time>2018-12-08T17:50:47Z</time>
      </trkpt>
      <trkpt lat="45.08536" lon="6.06677">
        <ele>1728.9</ele>
        <time>2018-12-08T17:50:49Z</time>
      </trkpt>
      <trkpt lat="45.08533" lon="6.06679">
        <ele>1729.3</ele>
        <time>2018-12-08T17:50:51Z</time>
      </trkpt>
      <trkpt lat="45.0853" lon="6.06682">
        <ele>1729.8</ele>
        <time>2018-12-08T17:50:53Z</time>
      </trkpt>
      <trkpt lat="45.08526" lon="6.06684">
        <ele>1730.2</ele>
        <time>2018-12-08T17:50:55Z</time>
      </trkpt>
      <trkpt lat="45.08523" lon="6.06686">
        <ele>1730.7</ele>
        <time>2018-12-08T17:50:57Z</time>
      </trkpt>
      <trkpt lat="45.0852" lon="6.06689">
        <ele>1731.2</ele>
        <time>2018-12-08T17:50:59Z</time>
      </trkpt>
      <trkpt lat="45.08516" lon="6.06691">
        <ele>1731.7</ele>
        <time>2018-12-08T17:51:01Z</time>
      </trkpt>
      <trkpt lat="45.08513" lon="6.06694">
        <ele>1732.2</ele>
        <time>2018-12-08T17:51:03Z</time>
      </trkpt>
      <trkpt lat="45.08509" lon="6.06696">
        <ele>1732.7</ele>
        <time>2018-12-08T17:51:05Z</time>
      </trkpt>
      <trkpt lat="45.08506" lon="6.06699">
        <ele>1733.1</ele>
        <time>2018-12-08T17:51:07Z</time>
      </trkpt>
      <trkpt lat="45.08503" lon="6.06701">
        <ele>1733.6</ele>
        <time>2018-12-08T17:51:09Z</time>
      </trkpt>
      <trkpt lat="45.08486" lon="6.06715">
        <ele>1736.1</ele>
        <time>2018-12-08T17:51:11Z</time>
      </trkpt>
      <trkpt lat="45.08484" lon="6.06719">
        <ele>1736.6</ele>
        <time>2018-12-08T17:51:13Z</time>
      </trkpt>
      <trkpt lat="45.08481" lon="6.06724">
        <ele>1737.2</ele>
        <time>2018-12-08T17:51:15Z</time>
      </trkpt>
      <trkpt lat="45.08478" lon="6.06728">
        <ele>1737.7</ele>
        <time>2018-12-08T17:51:17Z</time>
      </trkpt>
      <trkpt lat="45.08476" lon="6.06732">
        <ele>1738.2</ele>
        <time>2018-12-08T17:51:19Z</time>
      </trkpt>
      <trkpt lat="45.08467" lon="6.06747">
        <ele>1739.9</ele>
        <time>2018-12-08T17:51:21Z</time>
      </trkpt>
      <trkpt lat="45.08466" lon="6.06752">
        <ele>1740.4</ele>
        <time>2018-12-08T17:51:23Z</time>
      </trkpt>
      <trkpt lat="45.08465" lon="6.06757">
        <ele>1740.9</ele>
        <time>2018-12-08T17:51:25Z</time>
      </trkpt>
      <trkpt lat="45.08463" lon="6.06763">
        <ele>1741.4</ele>
        <time>2018-12-08T17:51:27Z</time>
      </trkpt>
      <trkpt lat="45.08462" lon="6.06768">
        <ele>1741.9</ele>
        <time>2018-12-08T17:51:29Z</time>
      </trkpt>
      <trkpt lat="45.08459" lon="6.06784">
        <ele>1743.4</ele>
        <time>2018-12-08T17:51:31Z</time>
      </trkpt>
      <trkpt lat="45.08459" lon="6.0679">
        <ele>1744</ele>
        <time>2018-12-08T17:51:33Z</time>
      </trkpt>
      <trkpt lat="45.0846" lon="6.06796">
        <ele>1744.5</ele>
        <time>2018-12-08T17:51:35Z</time>
      </trkpt>
      <trkpt lat="45.08461" lon="6.06801">
        <ele>1745</ele>
        <time>2018-12-08T17:51:37Z</time>
      </trkpt>
      <trkpt lat="45.08464" lon="6.06815">
        <ele>1746.3</ele>
        <time>2018-12-08T17:51:39Z</time>
      </trkpt>
      <trkpt lat="45.08466" lon="6.0682">
        <ele>1746.8</ele>
        <time>2018-12-08T17:51:41Z</time>
      </trkpt>
      <trkpt lat="45.08469" lon="6.06824">
        <ele>1747.3</ele>
        <time>2018-12-08T17:51:43Z</time>
      </trkpt>
      <trkpt lat="45.08471" lon="6.06828">
        <ele>1747.8</ele>
        <time>2018-12-08T17:51:45Z</time>
      </trkpt>
      <trkpt lat="45.08474" lon="6.06833">
        <ele>1748.4</ele>
        <time>2018-12-08T17:51:47Z</time>
      </trkpt>
      <trkpt lat="45.08476" lon="6.06837">
        <ele>1748.9</ele>
        <time>2018-12-08T17:51:49Z</time>
      </trkpt>
      <trkpt lat="45.08479" lon="6.06842">
        <ele>1749.4</ele>
        <time>2018-12-08T17:51:51Z</time>
      </trkpt>
      <trkpt lat="45.08482" lon="6.06846">
        <ele>1750</ele>
        <time>2018-12-08T17:51:53Z</time>
      </trkpt>
      <trkpt lat="45.08484" lon="6.06851">
        <ele>1750.5</ele>
        <time>2018-12-08T17:51:55Z</time>
      </trkpt>
      <trkpt lat="45.08496" lon="6.06869">
        <ele>1752.6</ele>
        <time>2018-12-08T17:51:57Z</time>
      </trkpt>
      <trkpt lat="45.08501" lon="6.06874">
        <ele>1753.1</ele>
        <time>2018-12-08T17:51:59Z</time>
      </trkpt>
      <trkpt lat="45.08505" lon="6.06878">
        <ele>1753.6</ele>
        <time>2018-12-08T17:52:01Z</time>
      </trkpt>
      <trkpt lat="45.0851" lon="6.06883">
        <ele>1754.1</ele>
        <time>2018-12-08T17:52:03Z</time>
      </trkpt>
      <trkpt lat="45.08514" lon="6.06887">
        <ele>1754.6</ele>
        <time>2018-12-08T17:52:05Z</time>
      </trkpt>
      <trkpt lat="45.08519" lon="6.06892">
        <ele>1755.1</ele>
        <time>2018-12-08T17:52:07Z</time>
      </trkpt>
      <trkpt lat="45.08534" lon="6.06909">
        <ele>1756.8</ele>
        <time>2018-12-08T17:52:09Z</time>
      </trkpt>
      <trkpt lat="45.08538" lon="6.06915">
        <ele>1757.3</ele>
        <time>2018-12-08T17:52:11Z</time>
      </trkpt>
      <trkpt lat="45.08542" lon="6.06921">
        <ele>1757.8</ele>
        <time>2018-12-08T17:52:13Z</time>
      </trkpt>
      <trkpt lat="45.08546" lon="6.06927">
        <ele>1758.3</ele>
        <time>2018-12-08T17:52:15Z</time>
      </trkpt>
      <trkpt lat="45.08549" lon="6.06933">
        <ele>1758.8</ele>
        <time>2018-12-08T17:52:17Z</time>
      </trkpt>
      <trkpt lat="45.08553" lon="6.06939">
        <ele>1759.3</ele>
        <time>2018-12-08T17:52:19Z</time>
      </trkpt>
      <trkpt lat="45.08557" lon="6.06945">
        <ele>1759.8</ele>
        <time>2018-12-08T17:52:21Z</time>
      </trkpt>
      <trkpt lat="45.08561" lon="6.06951">
        <ele>1760.3</ele>
        <time>2018-12-08T17:52:23Z</time>
      </trkpt>
      <trkpt lat="45.08576" lon="6.06978">
        <ele>1762.5</ele>
        <time>2018-12-08T17:52:25Z</time>
      </trkpt>
      <trkpt lat="45.08578" lon="6.06985">
        <ele>1763</ele>
        <time>2018-12-08T17:52:27Z</time>
      </trkpt>
      <trkpt lat="45.0858" lon="6.06993">
        <ele>1763.5</ele>
        <time>2018-12-08T17:52:29Z</time>
      </trkpt>
      <trkpt lat="45.08582" lon="6.07001">
        <ele>1764</ele>
        <time>2018-12-08T17:52:31Z</time>
      </trkpt>
      <trkpt lat="45.08584" lon="6.07009">
        <ele>1764.5</ele>
        <time>2018-12-08T17:52:33Z</time>
      </trkpt>
      <trkpt lat="45.08586" lon="6.07016">
        <ele>1765</ele>
        <time>2018-12-08T17:52:35Z</time>
      </trkpt>
      <trkpt lat="45.08592" lon="6.07043">
        <ele>1766.8</ele>
        <time>2018-12-08T17:52:37Z</time>
      </trkpt>
      <trkpt lat="45.08593" lon="6.0705">
        <ele>1767.3</ele>
        <time>2018-12-08T17:52:39Z</time>
      </trkpt>
      <trkpt lat="45.08595" lon="6.07058">
        <ele>1767.8</ele>
        <time>2018-12-08T17:52:41Z</time>
      </trkpt>
      <trkpt lat="45.08595" lon="6.07075">
        <ele>1768.8</ele>
        <time>2018-12-08T17:52:43Z</time>
      </trkpt>
      <trkpt lat="45.08594" lon="6.07083">
        <ele>1769.3</ele>
        <time>2018-12-08T17:52:45Z</time>
      </trkpt>
      <trkpt lat="45.08593" lon="6.07091">
        <ele>1769.9</ele>
        <time>2018-12-08T17:52:47Z</time>
      </trkpt>
      <trkpt lat="45.08595" lon="6.07108">
        <ele>1771</ele>
        <time>2018-12-08T17:52:49Z</time>
      </trkpt>
      <trkpt lat="45.08598" lon="6.07114">
        <ele>1771.5</ele>
        <time>2018-12-08T17:52:51Z</time>
      </trkpt>
      <trkpt lat="45.08601" lon="6.07121">
        <ele>1772</ele>
        <time>2018-12-08T17:52:53Z</time>
      </trkpt>
      <trkpt lat="45.08605" lon="6.07127">
        <ele>1772.5</ele>
        <time>2018-12-08T17:52:55Z</time>
      </trkpt>
      <trkpt lat="45.08608" lon="6.07134">
        <ele>1773</ele>
        <time>2018-12-08T17:52:57Z</time>
      </trkpt>
      <trkpt lat="45.08611" lon="6.0714">
        <ele>1773.5</ele>
        <time>2018-12-08T17:52:59Z</time>
      </trkpt>
      <trkpt lat="45.08615" lon="6.07147">
        <ele>1774</ele>
        <time>2018-12-08T17:53:01Z</time>
      </trkpt>
      <trkpt lat="45.08618" lon="6.07153">
        <ele>1774.5</ele>
        <time>2018-12-08T17:53:03Z</time>
      </trkpt>
      <trkpt lat="45.08621" lon="6.07159">
        <ele>1775</ele>
        <time>2018-12-08T17:53:05Z</time>
      </trkpt>
      <trkpt lat="45.08624" lon="6.07166">
        <ele>1775.5</ele>
        <time>2018-12-08T17:53:07Z</time>
      </trkpt>
      <trkpt lat="45.08628" lon="6.07172">
        <ele>1776</ele>
        <time>2018-12-08T17:53:09Z</time>
      </trkpt>
      <trkpt lat="45.08631" lon="6.07179">
        <ele>1776.5</ele>
        <time>2018-12-08T17:53:11Z</time>
      </trkpt>
      <trkpt lat="45.08634" lon="6.07185">
        <ele>1777</ele>
        <time>2018-12-08T17:53:13Z</time>
      </trkpt>
      <trkpt lat="45.08638" lon="6.07192">
        <ele>1777.5</ele>
        <time>2018-12-08T17:53:15Z</time>
      </trkpt>
      <trkpt lat="45.08641" lon="6.07198">
        <ele>1778</ele>
        <time>2018-12-08T17:53:17Z</time>
      </trkpt>
      <trkpt lat="45.08645" lon="6.07205">
        <ele>1778.5</ele>
        <time>2018-12-08T17:53:19Z</time>
      </trkpt>
      <trkpt lat="45.08648" lon="6.07212">
        <ele>1779</ele>
        <time>2018-12-08T17:53:21Z</time>
      </trkpt>
      <trkpt lat="45.08676" lon="6.07263">
        <ele>1783.1</ele>
        <time>2018-12-08T17:53:23Z</time>
      </trkpt>
      <trkpt lat="45.08681" lon="6.07267">
        <ele>1783.6</ele>
        <time>2018-12-08T17:53:25Z</time>
      </trkpt>
      <trkpt lat="45.08686" lon="6.07271">
        <ele>1784.1</ele>
        <time>2018-12-08T17:53:27Z</time>
      </trkpt>
      <trkpt lat="45.08697" lon="6.0728">
        <ele>1785</ele>
        <time>2018-12-08T17:53:29Z</time>
      </trkpt>
      <trkpt lat="45.08705" lon="6.07286">
        <ele>1785</ele>
        <time>2018-12-08T17:53:31Z</time>
      </trkpt>
      <trkpt lat="45.08716" lon="6.07293">
        <ele>1785.1</ele>
        <time>2018-12-08T17:53:33Z</time>
      </trkpt>
      <trkpt lat="45.08729" lon="6.07303">
        <ele>1785.1</ele>
        <time>2018-12-08T17:53:35Z</time>
      </trkpt>
      <trkpt lat="45.08761" lon="6.07326">
        <ele>1785.3</ele>
        <time>2018-12-08T17:53:37Z</time>
      </trkpt>
      <trkpt lat="45.08772" lon="6.07335">
        <ele>1785.3</ele>
        <time>2018-12-08T17:53:39Z</time>
      </trkpt>
      <trkpt lat="45.08795" lon="6.07353">
        <ele>1785.6</ele>
        <time>2018-12-08T17:53:41Z</time>
      </trkpt>
      <trkpt lat="45.08805" lon="6.07367">
        <ele>1786.6</ele>
        <time>2018-12-08T17:53:43Z</time>
      </trkpt>
      <trkpt lat="45.08813" lon="6.07379">
        <ele>1787.4</ele>
        <time>2018-12-08T17:53:45Z</time>
      </trkpt>
      <trkpt lat="45.08828" lon="6.07402">
        <ele>1789.1</ele>
        <time>2018-12-08T17:53:47Z</time>
      </trkpt>
      <trkpt lat="45.08832" lon="6.07412">
        <ele>1789.7</ele>
        <time>2018-12-08T17:53:49Z</time>
      </trkpt>
      <trkpt lat="45.08836" lon="6.0742">
        <ele>1790.3</ele>
        <time>2018-12-08T17:53:51Z</time>
      </trkpt>
      <trkpt lat="45.0884" lon="6.07426">
        <ele>1790.7</ele>
        <time>2018-12-08T17:53:53Z</time>
      </trkpt>
      <trkpt lat="45.08844" lon="6.07434">
        <ele>1791.2</ele>
        <time>2018-12-08T17:53:55Z</time>
      </trkpt>
      <trkpt lat="45.08847" lon="6.07442">
        <ele>1791.7</ele>
        <time>2018-12-08T17:53:57Z</time>
      </trkpt>
      <trkpt lat="45.08851" lon="6.07449">
        <ele>1792.2</ele>
        <time>2018-12-08T17:53:59Z</time>
      </trkpt>
      <trkpt lat="45.08868" lon="6.07481">
        <ele>1794.3</ele>
        <time>2018-12-08T17:54:01Z</time>
      </trkpt>
      <trkpt lat="45.08874" lon="6.07487">
        <ele>1794.7</ele>
        <time>2018-12-08T17:54:03Z</time>
      </trkpt>
      <trkpt lat="45.08886" lon="6.07497">
        <ele>1795.5</ele>
        <time>2018-12-08T17:54:05Z</time>
      </trkpt>
      <trkpt lat="45.08894" lon="6.07497">
        <ele>1795.9</ele>
        <time>2018-12-08T17:54:07Z</time>
      </trkpt>
      <trkpt lat="45.08908" lon="6.07495">
        <ele>1796.7</ele>
        <time>2018-12-08T17:54:09Z</time>
      </trkpt>
      <trkpt lat="45.08916" lon="6.0749">
        <ele>1797.2</ele>
        <time>2018-12-08T17:54:11Z</time>
      </trkpt>
      <trkpt lat="45.08928" lon="6.0748">
        <ele>1798</ele>
        <time>2018-12-08T17:54:13Z</time>
      </trkpt>
      <trkpt lat="45.08932" lon="6.07471">
        <ele>1798.4</ele>
        <time>2018-12-08T17:54:15Z</time>
      </trkpt>
      <trkpt lat="45.08936" lon="6.07462">
        <ele>1798.9</ele>
        <time>2018-12-08T17:54:17Z</time>
      </trkpt>
      <trkpt lat="45.08941" lon="6.07452">
        <ele>1799.3</ele>
        <time>2018-12-08T17:54:19Z</time>
      </trkpt>
      <trkpt lat="45.08952" lon="6.07429">
        <ele>1800.4</ele>
        <time>2018-12-08T17:54:21Z</time>
      </trkpt>
      <trkpt lat="45.08957" lon="6.07419">
        <ele>1800.8</ele>
        <time>2018-12-08T17:54:23Z</time>
      </trkpt>
      <trkpt lat="45.08957" lon="6.07419">
        <ele>1800.8</ele>
        <time>2018-12-08T17:54:23Z</time>
      </trkpt>
      <trkpt lat="45.08957" lon="6.07419">
        <ele>1800.8</ele>
        <time>2018-12-08T17:54:25Z</time>
      </trkpt>
      <trkpt lat="45.08957" lon="6.07419">
        <ele>1800.8</ele>
        <time>2018-12-08T17:54:27Z</time>
      </trkpt>
      <trkpt lat="45.08957" lon="6.07419">
        <ele>1800.8</ele>
        <time>2018-12-08T17:54:29Z</time>
      </trkpt>
      <trkpt lat="45.08957" lon="6.07419">
        <ele>1800.8</ele>
        <time>2018-12-08T17:54:31Z</time>
      </trkpt>
      <trkpt lat="45.08957" lon="6.07419">
        <ele>1800.8</ele>
        <time>2018-12-08T17:54:33Z</time>
      </trkpt>
      <trkpt lat="45.08957" lon="6.07419">
        <ele>1800.8</ele>
        <time>2018-12-08T17:54:35Z</time>
      </trkpt>
      <trkpt lat="45.08957" lon="6.07419">
        <ele>1800.8</ele>
        <time>2018-12-08T17:54:37Z</time>
      </trkpt>
      <trkpt lat="45.08957" lon="6.07419">
        <ele>1800.8</ele>
        <time>2018-12-08T17:54:39Z</time>
      </trkpt>
      <trkpt lat="45.08957" lon="6.07419">
        <ele>1800.8</ele>
        <time>2018-12-08T17:54:41Z</time>
      </trkpt>
      <trkpt lat="45.08957" lon="6.07419">
        <ele>1800.8</ele>
        <time>2018-12-08T17:54:43Z</time>
      </trkpt>
      <trkpt lat="45.08957" lon="6.07419">
        <ele>1800.8</ele>
        <time>2018-12-08T17:54:45Z</time>
      </trkpt>
      <trkpt lat="45.08957" lon="6.07419">
        <ele>1800.8</ele>
        <time>2018-12-08T17:54:47Z</time>
      </trkpt>
      <trkpt lat="45.08957" lon="6.07419">
        <ele>1800.8</ele>
        <time>2018-12-08T17:54:49Z</time>
      </trkpt>
      <trkpt lat="45.08957" lon="6.07419">
        <ele>1800.8</ele>
        <time>2018-12-08T17:54:51Z</time>
      </trkpt>
      <trkpt lat="45.08957" lon="6.07419">
        <ele>1800.8</ele>
        <time>2018-12-08T17:54:53Z</time>
      </trkpt>
      <trkpt lat="45.08957" lon="6.07419">
        <ele>1800.8</ele>
        <time>2018-12-08T17:54:55Z</time>
      </trkpt>
      <trkpt lat="45.08957" lon="6.07419">
        <ele>1800.8</ele>
        <time>2018-12-08T17:54:57Z</time>
      </trkpt>
      <trkpt lat="45.08957" lon="6.07419">
        <ele>1800.8</ele>
        <time>2018-12-08T17:54:59Z</time>
      </trkpt>
      <trkpt lat="45.08957" lon="6.07419">
        <ele>1800.8</ele>
        <time>2018-12-08T17:55:01Z</time>
      </trkpt>
      <trkpt lat="45.08957" lon="6.07419">
        <ele>1800.8</ele>
        <time>2018-12-08T17:55:03Z</time>
      </trkpt>
      <trkpt lat="45.08957" lon="6.07419">
        <ele>1800.8</ele>
        <time>2018-12-08T17:55:05Z</time>
      </trkpt>
      <trkpt lat="45.08957" lon="6.07419">
        <ele>1800.8</ele>
        <time>2018-12-08T17:55:07Z</time>
      </trkpt>
      <trkpt lat="45.08957" lon="6.07419">
        <ele>1800.8</ele>
        <time>2018-12-08T17:55:09Z</time>
      </trkpt>
      <trkpt lat="45.08957" lon="6.07419">
        <ele>1800.8</ele>
        <time>2018-12-08T17:55:11Z</time>
      </trkpt>
      <trkpt lat="45.08957" lon="6.07419">
        <ele>1800.8</ele>
        <time>2018-12-08T17:55:13Z</time>
      </trkpt>
      <trkpt lat="45.08957" lon="6.07419">
        <ele>1800.8</ele>
        <time>2018-12-08T17:55:15Z</time>
      </trkpt>
      <trkpt lat="45.08957" lon="6.07419">
        <ele>1800.8</ele>
        <time>2018-12-08T17:55:17Z</time>
      </trkpt>
      <trkpt lat="45.08957" lon="6.07419">
        <ele>1800.8</ele>
        <time>2018-12-08T17:55:19Z</time>
      </trkpt>
      <trkpt lat="45.08957" lon="6.07419">
        <ele>1800.8</ele>
        <time>2018-12-08T17:55:21Z</time>
      </trkpt>
      <trkpt lat="45.08957" lon="6.07419">
        <ele>1800.8</ele>
        <time>2018-12-08T17:55:23Z</time>
      </trkpt>
      <trkpt lat="45.08957" lon="6.07419">
        <ele>1800.8</ele>
        <time>2018-12-08T17:55:25Z</time>
      </trkpt>
      <trkpt lat="45.08957" lon="6.07419">
        <ele>1800.8</ele>
        <time>2018-12-08T17:55:27Z</time>
      </trkpt>
      <trkpt lat="45.08957" lon="6.07419">
        <ele>1800.8</ele>
        <time>2018-12-08T17:55:29Z</time>
      </trkpt>
      <trkpt lat="45.08957" lon="6.07419">
        <ele>1800.8</ele>
        <time>2018-12-08T17:55:31Z</time>
      </trkpt>
      <trkpt lat="45.08957" lon="6.07419">
        <ele>1800.8</ele>
        <time>2018-12-08T17:55:33Z</time>
      </trkpt>
      <trkpt lat="45.08957" lon="6.07419">
        <ele>1800.8</ele>
        <time>2018-12-08T17:55:35Z</time>
      </trkpt>
      <trkpt lat="45.08957" lon="6.07419">
        <ele>1800.8</ele>
        <time>2018-12-08T17:55:37Z</time>
      </trkpt>
      <trkpt lat="45.08957" lon="6.07419">
        <ele>1800.8</ele>
        <time>2018-12-08T17:55:39Z</time>
      </trkpt>
      <trkpt lat="45.08957" lon="6.07419">
        <ele>1800.8</ele>
        <time>2018-12-08T17:55:41Z</time>
      </trkpt>
      <trkpt lat="45.08957" lon="6.07419">
        <ele>1800.8</ele>
        <time>2018-12-08T17:55:43Z</time>
      </trkpt>
      <trkpt lat="45.08957" lon="6.07419">
        <ele>1800.8</ele>
        <time>2018-12-08T17:55:45Z</time>
      </trkpt>
      <trkpt lat="45.08957" lon="6.07419">
        <ele>1800.8</ele>
        <time>2018-12-08T17:55:47Z</time>
      </trkpt>
      <trkpt lat="45.08957" lon="6.07419">
        <ele>1800.8</ele>
        <time>2018-12-08T17:55:49Z</time>
      </trkpt>
      <trkpt lat="45.08957" lon="6.07419">
        <ele>1800.8</ele>
        <time>2018-12-08T17:55:51Z</time>
      </trkpt>
      <trkpt lat="45.08957" lon="6.07419">
        <ele>1800.8</ele>
        <time>2018-12-08T17:55:53Z</time>
      </trkpt>
      <trkpt lat="45.08957" lon="6.07419">
        <ele>1800.8</ele>
        <time>2018-12-08T17:55:55Z</time>
      </trkpt>
      <trkpt lat="45.08957" lon="6.07419">
        <ele>1800.8</ele>
        <time>2018-12-08T17:55:57Z</time>
      </trkpt>
      <trkpt lat="45.08957" lon="6.07419">
        <ele>1800.8</ele>
        <time>2018-12-08T17:55:59Z</time>
      </trkpt>
      <trkpt lat="45.08957" lon="6.07419">
        <ele>1800.8</ele>
        <time>2018-12-08T17:56:01Z</time>
      </trkpt>
      <trkpt lat="45.08957" lon="6.07419">
        <ele>1800.8</ele>
        <time>2018-12-08T17:56:03Z</time>
      </trkpt>
      <trkpt lat="45.08957" lon="6.07419">
        <ele>1800.8</ele>
        <time>2018-12-08T17:56:05Z</time>
      </trkpt>
      <trkpt lat="45.08957" lon="6.07419">
        <ele>1800.8</ele>
        <time>2018-12-08T17:56:07Z</time>
      </trkpt>
      <trkpt lat="45.08957" lon="6.07419">
        <ele>1800.8</ele>
        <time>2018-12-08T17:56:09Z</time>
      </trkpt>
      <trkpt lat="45.08957" lon="6.07419">
        <ele>1800.8</ele>
        <time>2018-12-08T17:56:11Z</time>
      </trkpt>
      <trkpt lat="45.08957" lon="6.07419">
        <ele>1800.8</ele>
        <time>2018-12-08T17:56:13Z</time>
      </trkpt>
      <trkpt lat="45.08957" lon="6.07419">
        <ele>1800.8</ele>
        <time>2018-12-08T17:56:15Z</time>
      </trkpt>
      <trkpt lat="45.08957" lon="6.07419">
        <ele>1800.8</ele>
        <time>2018-12-08T17:56:17Z</time>
      </trkpt>
      <trkpt lat="45.08957" lon="6.07419">
        <ele>1800.8</ele>
        <time>2018-12-08T17:56:19Z</time>
      </trkpt>
      <trkpt lat="45.08957" lon="6.07419">
        <ele>1800.8</ele>
        <time>2018-12-08T17:56:21Z</time>
      </trkpt>
      <trkpt lat="45.08957" lon="6.07419">
        <ele>1800.8</ele>
        <time>2018-12-08T17:56:23Z</time>
      </trkpt>
      <trkpt lat="45.08957" lon="6.07419">
        <ele>1800.8</ele>
        <time>2018-12-08T17:56:25Z</time>
      </trkpt>
      <trkpt lat="45.08957" lon="6.07419">
        <ele>1800.8</ele>
        <time>2018-12-08T17:56:27Z</time>
      </trkpt>
      <trkpt lat="45.08957" lon="6.07419">
        <ele>1800.8</ele>
        <time>2018-12-08T17:56:29Z</time>
      </trkpt>
      <trkpt lat="45.08957" lon="6.07419">
        <ele>1800.8</ele>
        <time>2018-12-08T17:56:31Z</time>
      </trkpt>
      <trkpt lat="45.08957" lon="6.07419">
        <ele>1800.8</ele>
        <time>2018-12-08T17:56:33Z</time>
      </trkpt>
      <trkpt lat="45.08957" lon="6.07419">
        <ele>1800.8</ele>
        <time>2018-12-08T17:56:35Z</time>
      </trkpt>
      <trkpt lat="45.08957" lon="6.07419">
        <ele>1800.8</ele>
        <time>2018-12-08T17:56:37Z</time>
      </trkpt>
      <trkpt lat="45.08957" lon="6.07419">
        <ele>1800.8</ele>
        <time>2018-12-08T17:56:39Z</time>
      </trkpt>
      <trkpt lat="45.08957" lon="6.07419">
        <ele>1800.8</ele>
        <time>2018-12-08T17:56:41Z</time>
      </trkpt>
      <trkpt lat="45.08957" lon="6.07419">
        <ele>1800.8</ele>
        <time>2018-12-08T17:56:43Z</time>
      </trkpt>
      <trkpt lat="45.08957" lon="6.07419">
        <ele>1800.8</ele>
        <time>2018-12-08T17:56:45Z</time>
      </trkpt>
      <trkpt lat="45.08957" lon="6.07419">
        <ele>1800.8</ele>
        <time>2018-12-08T17:56:47Z</time>
      </trkpt>
      <trkpt lat="45.08957" lon="6.07419">
        <ele>1800.8</ele>
        <time>2018-12-08T17:56:49Z</time>
      </trkpt>
      <trkpt lat="45.08957" lon="6.07419">
        <ele>1800.8</ele>
        <time>2018-12-08T17:56:51Z</time>
      </trkpt>
      <trkpt lat="45.08957" lon="6.07419">
        <ele>1800.8</ele>
        <time>2018-12-08T17:56:53Z</time>
      </trkpt>
      <trkpt lat="45.08957" lon="6.07419">
        <ele>1800.8</ele>
        <time>2018-12-08T17:56:55Z</time>
      </trkpt>
      <trkpt lat="45.08957" lon="6.07419">
        <ele>1800.8</ele>
        <time>2018-12-08T17:56:57Z</time>
      </trkpt>
      <trkpt lat="45.08957" lon="6.07419">
        <ele>1800.8</ele>
        <time>2018-12-08T17:56:59Z</time>
      </trkpt>
      <trkpt lat="45.08957" lon="6.07419">
        <ele>1800.8</ele>
        <time>2018-12-08T17:57:01Z</time>
      </trkpt>
      <trkpt lat="45.08957" lon="6.07419">
        <ele>1800.8</ele>
        <time>2018-12-08T17:57:03Z</time>
      </trkpt>
      <trkpt lat="45.08957" lon="6.07419">
        <ele>1800.8</ele>
        <time>2018-12-08T17:57:05Z</time>
      </trkpt>
      <trkpt lat="45.08957" lon="6.07419">
        <ele>1800.8</ele>
        <time>2018-12-08T17:57:07Z</time>
      </trkpt>
      <trkpt lat="45.08957" lon="6.07419">
        <ele>1800.8</ele>
        <time>2018-12-08T17:57:09Z</time>
      </trkpt>
      <trkpt lat="45.08957" lon="6.07419">
        <ele>1800.8</ele>
        <time>2018-12-08T17:57:11Z</time>
      </trkpt>
      <trkpt lat="45.08957" lon="6.07419">
        <ele>1800.8</ele>
        <time>2018-12-08T17:57:13Z</time>
      </trkpt>
      <trkpt lat="45.08957" lon="6.07419">
        <ele>1800.8</ele>
        <time>2018-12-08T17:57:15Z</time>
      </trkpt>
      <trkpt lat="45.08957" lon="6.07419">
        <ele>1800.8</ele>
        <time>2018-12-08T17:57:17Z</time>
      </trkpt>
      <trkpt lat="45.08957" lon="6.07419">
        <ele>1800.8</ele>
        <time>2018-12-08T17:57:19Z</time>
      </trkpt>
      <trkpt lat="45.08957" lon="6.07419">
        <ele>1800.8</ele>
        <time>2018-12-08T17:57:21Z</time>
      </trkpt>
      <trkpt lat="45.08957" lon="6.07419">
        <ele>1800.8</ele>
        <time>2018-12-08T17:57:23Z</time>
      </trkpt>
      <trkpt lat="45.08957" lon="6.07419">
        <ele>1800.8</ele>
        <time>2018-12-08T17:57:25Z</time>
      </trkpt>
      <trkpt lat="45.08957" lon="6.07419">
        <ele>1800.8</ele>
        <time>2018-12-08T17:57:27Z</time>
      </trkpt>
      <trkpt lat="45.08957" lon="6.07419">
        <ele>1800.8</ele>
        <time>2018-12-08T17:57:29Z</time>
      </trkpt>
      <trkpt lat="45.08957" lon="6.07419">
        <ele>1800.8</ele>
        <time>2018-12-08T17:57:31Z</time>
      </trkpt>
      <trkpt lat="45.08957" lon="6.07419">
        <ele>1800.8</ele>
        <time>2018-12-08T17:57:33Z</time>
      </trkpt>
      <trkpt lat="45.08957" lon="6.07419">
        <ele>1800.8</ele>
        <time>2018-12-08T17:57:35Z</time>
      </trkpt>
      <trkpt lat="45.08957" lon="6.07419">
        <ele>1800.8</ele>
        <time>2018-12-08T17:57:37Z</time>
      </trkpt>
      <trkpt lat="45.08957" lon="6.07419">
        <ele>1800.8</ele>
        <time>2018-12-08T17:57:39Z</time>
      </trkpt>
      <trkpt lat="45.08957" lon="6.07419">
        <ele>1800.8</ele>
        <time>2018-12-08T17:57:41Z</time>
      </trkpt>
      <trkpt lat="45.08957" lon="6.07419">
        <ele>1800.8</ele>
        <time>2018-12-08T17:57:43Z</time>
      </trkpt>
      <trkpt lat="45.08957" lon="6.07419">
        <ele>1800.8</ele>
        <time>2018-12-08T17:57:45Z</time>
      </trkpt>
      <trkpt lat="45.08957" lon="6.07419">
        <ele>1800.8</ele>
        <time>2018-12-08T17:57:47Z</time>
      </trkpt>
      <trkpt lat="45.08957" lon="6.07419">
        <ele>1800.8</ele>
        <time>2018-12-08T17:57:49Z</time>
      </trkpt>
      <trkpt lat="45.08957" lon="6.07419">
        <ele>1800.8</ele>
        <time>2018-12-08T17:57:51Z</time>
      </trkpt>
      <trkpt lat="45.08957" lon="6.07419">
        <ele>1800.8</ele>
        <time>2018-12-08T17:57:53Z</time>
      </trkpt>
      <trkpt lat="45.08957" lon="6.07419">
        <ele>1800.8</ele>
        <time>2018-12-08T17:57:55Z</time>
      </trkpt>
      <trkpt lat="45.08957" lon="6.07419">
        <ele>1800.8</ele>
        <time>2018-12-08T17:57:57Z</time>
      </trkpt>
      <trkpt lat="45.08957" lon="6.07419">
        <ele>1800.8</ele>
        <time>2018-12-08T17:57:59Z</time>
      </trkpt>
      <trkpt lat="45.08957" lon="6.07419">
        <ele>1800.8</ele>
        <time>2018-12-08T17:58:01Z</time>
      </trkpt>
      <trkpt lat="45.08957" lon="6.07419">
        <ele>1800.8</ele>
        <time>2018-12-08T17:58:03Z</time>
      </trkpt>
      <trkpt lat="45.08957" lon="6.07419">
        <ele>1800.8</ele>
        <time>2018-12-08T17:58:05Z</time>
      </trkpt>
      <trkpt lat="45.08957" lon="6.07419">
        <ele>1800.8</ele>
        <time>2018-12-08T17:58:07Z</time>
      </trkpt>
      <trkpt lat="45.08957" lon="6.07419">
        <ele>1800.8</ele>
        <time>2018-12-08T17:58:09Z</time>
      </trkpt>
      <trkpt lat="45.08957" lon="6.07419">
        <ele>1800.8</ele>
        <time>2018-12-08T17:58:11Z</time>
      </trkpt>
      <trkpt lat="45.08957" lon="6.07419">
        <ele>1800.8</ele>
        <time>2018-12-08T17:58:13Z</time>
      </trkpt>
      <trkpt lat="45.08957" lon="6.07419">
        <ele>1800.8</ele>
        <time>2018-12-08T17:58:15Z</time>
      </trkpt>
      <trkpt lat="45.08957" lon="6.07419">
        <ele>1800.8</ele>
        <time>2018-12-08T17:58:17Z</time>
      </trkpt>
      <trkpt lat="45.08957" lon="6.07419">
        <ele>1800.8</ele>
        <time>2018-12-08T17:58:19Z</time>
      </trkpt>
      <trkpt lat="45.08957" lon="6.07419">
        <ele>1800.8</ele>
        <time>2018-12-08T17:58:21Z</time>
      </trkpt>
      <trkpt lat="45.08957" lon="6.07419">
        <ele>1800.8</ele>
        <time>2018-12-08T17:58:23Z</time>
      </trkpt>
      <trkpt lat="45.08957" lon="6.07419">
        <ele>1800.8</ele>
        <time>2018-12-08T17:58:25Z</time>
      </trkpt>
      <trkpt lat="45.08957" lon="6.07419">
        <ele>1800.8</ele>
        <time>2018-12-08T17:58:27Z</time>
      </trkpt>
      <trkpt lat="45.08957" lon="6.07419">
        <ele>1800.8</ele>
        <time>2018-12-08T17:58:29Z</time>
      </trkpt>
      <trkpt lat="45.08957" lon="6.07419">
        <ele>1800.8</ele>
        <time>2018-12-08T17:58:31Z</time>
      </trkpt>
      <trkpt lat="45.08957" lon="6.07419">
        <ele>1800.8</ele>
        <time>2018-12-08T17:58:33Z</time>
      </trkpt>
      <trkpt lat="45.08957" lon="6.07419">
        <ele>1800.8</ele>
        <time>2018-12-08T17:58:35Z</time>
      </trkpt>
      <trkpt lat="45.08957" lon="6.07419">
        <ele>1800.8</ele>
        <time>2018-12-08T17:58:37Z</time>
      </trkpt>
      <trkpt lat="45.08957" lon="6.07419">
        <ele>1800.8</ele>
        <time>2018-12-08T17:58:39Z</time>
      </trkpt>
      <trkpt lat="45.08957" lon="6.07419">
        <ele>1800.8</ele>
        <time>2018-12-08T17:58:41Z</time>
      </trkpt>
      <trkpt lat="45.08957" lon="6.07419">
        <ele>1800.8</ele>
        <time>2018-12-08T17:58:43Z</time>
      </trkpt>
      <trkpt lat="45.08957" lon="6.07419">
        <ele>1800.8</ele>
        <time>2018-12-08T17:58:45Z</time>
      </trkpt>
      <trkpt lat="45.08957" lon="6.07419">
        <ele>1800.8</ele>
        <time>2018-12-08T17:58:47Z</time>
      </trkpt>
      <trkpt lat="45.08957" lon="6.07419">
        <ele>1800.8</ele>
        <time>2018-12-08T17:58:49Z</time>
      </trkpt>
      <trkpt lat="45.08957" lon="6.07419">
        <ele>1800.8</ele>
        <time>2018-12-08T17:58:51Z</time>
      </trkpt>
      <trkpt lat="45.08957" lon="6.07419">
        <ele>1800.8</ele>
        <time>2018-12-08T17:58:53Z</time>
      </trkpt>
      <trkpt lat="45.08957" lon="6.07419">
        <ele>1800.8</ele>
        <time>2018-12-08T17:58:55Z</time>
      </trkpt>
      <trkpt lat="45.08957" lon="6.07419">
        <ele>1800.8</ele>
        <time>2018-12-08T17:58:57Z</time>
      </trkpt>
      <trkpt lat="45.08957" lon="6.07419">
        <ele>1800.8</ele>
        <time>2018-12-08T17:58:59Z</time>
      </trkpt>
      <trkpt lat="45.08957" lon="6.07419">
        <ele>1800.8</ele>
        <time>2018-12-08T17:59:01Z</time>
      </trkpt>
      <trkpt lat="45.08957" lon="6.07419">
        <ele>1800.8</ele>
        <time>2018-12-08T17:59:03Z</time>
      </trkpt>
      <trkpt lat="45.08957" lon="6.07419">
        <ele>1800.8</ele>
        <time>2018-12-08T17:59:05Z</time>
      </trkpt>
      <trkpt lat="45.08957" lon="6.07419">
        <ele>1800.8</ele>
        <time>2018-12-08T17:59:07Z</time>
      </trkpt>
      <trkpt lat="45.08957" lon="6.07419">
        <ele>1800.8</ele>
        <time>2018-12-08T17:59:09Z</time>
      </trkpt>
      <trkpt lat="45.08957" lon="6.07419">
        <ele>1800.8</ele>
        <time>2018-12-08T17:59:11Z</time>
      </trkpt>
      <trkpt lat="45.08957" lon="6.07419">
        <ele>1800.8</ele>
        <time>2018-12-08T17:59:13Z</time>
      </trkpt>
      <trkpt lat="45.08957" lon="6.07419">
        <ele>1800.8</ele>
        <time>2018-12-08T17:59:15Z</time>
      </trkpt>
      <trkpt lat="45.08957" lon="6.07419">
        <ele>1800.8</ele>
        <time>2018-12-08T17:59:17Z</time>
      </trkpt>
      <trkpt lat="45.08957" lon="6.07419">
        <ele>1800.8</ele>
        <time>2018-12-08T17:59:19Z</time>
      </trkpt>
      <trkpt lat="45.08957" lon="6.07419">
        <ele>1800.8</ele>
        <time>2018-12-08T17:59:21Z</time>
      </trkpt>
      <trkpt lat="45.08957" lon="6.07419">
        <ele>1800.8</ele>
        <time>2018-12-08T17:59:23Z</time>
      </trkpt>
    </trkseg>
  </trk>
</gpx>